GFSMW_700_spd_000.txt.gz
Wind_Speed
21 18 13 8 12 14 15 16 17 18 19 19 20 20 21 21 21 22 23 23 25 27 30 32 32 33 34 31 32 34 36 35 37 40 39 38 36 34 33 33 30 30 29
15 9 8 10 12 14 16 18 19 19 18 18 19 20 21 21 21 20 22 25 26 28 29 31 32 33 34 34 35 37 39 41 39 42 44 47 41 36 33 35 34 32 33
9 8 8 10 12 13 14 14 14 15 16 16 18 19 20 21 21 20 21 24 28 31 32 35 36 37 38 38 40 41 43 44 41 40 42 47 50 45 36 35 36 36 34
10 8 10 11 13 13 11 11 13 18 21 23 23 23 23 23 24 23 23 25 29 31 32 34 35 35 38 39 41 42 42 42 42 40 41 44 46 47 50 38 36 37 37
10 11 12 13 12 11 14 17 20 21 23 25 25 26 26 26 27 28 28 28 29 32 33 35 36 37 38 39 39 39 40 41 42 42 42 43 45 45 47 51 41 41 38
12 12 12 12 14 18 20 21 22 25 29 27 26 25 25 25 26 27 27 28 30 31 33 35 36 37 39 40 42 42 42 40 39 41 41 42 45 45 47 51 52 51 45
12 13 13 15 19 21 21 24 28 32 32 32 28 24 25 25 27 29 31 32 33 35 36 38 39 40 41 42 42 42 42 41 41 40 43 44 44 44 47 51 56 56 57
13 13 16 19 20 22 26 29 30 31 28 27 25 24 24 25 27 29 31 33 35 36 37 39 41 41 42 43 44 46 47 47 47 46 45 47 49 49 49 51 50 56 57
10 11 17 21 24 28 29 31 33 30 28 26 25 25 25 27 30 32 34 35 37 38 39 40 42 43 44 46 47 48 48 48 49 50 51 52 52 53 52 53 54 56 62
12 18 22 27 31 32 34 35 32 30 30 30 29 29 30 33 34 35 37 39 41 42 43 43 43 44 44 46 47 48 49 50 49 50 51 51 53 55 55 56 56 55 57
17 20 26 32 34 34 32 32 30 31 32 30 31 33 35 35 37 40 43 45 46 46 46 46 46 45 44 45 46 47 48 47 47 46 47 47 48 50 51 53 55 57 56
20 28 33 32 30 32 33 33 34 34 33 33 34 37 39 41 42 45 47 48 48 47 46 45 44 43 43 43 44 45 45 47 48 48 49 49 50 49 47 47 50 53 53
31 27 26 27 30 32 35 36 35 35 34 35 40 43 45 47 48 48 47 47 46 45 44 44 44 44 43 42 41 41 42 44 45 46 48 49 51 51 51 50 50 50 49
23 22 27 28 33 35 34 34 35 37 40 42 45 48 52 51 49 48 47 45 44 43 42 42 42 41 41 41 42 42 43 44 44 45 48 50 52 53 54 54 53 52 50
24 28 26 30 37 37 36 37 39 40 43 45 48 54 55 52 49 48 45 43 41 40 41 41 41 42 42 43 43 43 44 45 45 46 49 49 50 52 52 54 55 54 54
26 26 27 36 40 39 37 40 42 45 48 51 54 54 49 46 42 41 40 40 41 41 43 43 44 44 44 43 42 43 48 49 50 51 51 49 48 49 50 51 50 49 52
24 28 37 39 38 38 41 42 45 47 50 51 49 45 43 41 40 41 43 44 45 46 47 48 49 49 48 46 46 48 48 50 51 52 52 50 47 47 48 49 49 48 47
34 38 36 38 40 41 46 46 49 52 49 44 43 42 40 40 41 43 45 47 48 50 51 51 51 51 51 49 48 45 45 46 50 52 49 51 52 46 45 48 49 46 45
37 33 36 39 43 43 44 51 51 46 43 42 39 38 38 39 42 44 47 49 51 52 53 53 53 53 53 51 48 44 46 46 47 48 49 51 51 46 44 47 48 47 42
30 33 36 40 44 47 54 51 46 44 43 39 36 37 39 42 45 49 50 52 52 53 54 54 53 53 53 50 47 44 45 45 46 45 44 46 46 44 42 42 46 46 41
31 34 37 39 50 48 46 45 43 41 39 37 37 39 42 46 49 52 52 53 54 55 54 54 53 52 52 49 45 42 41 41 44 46 47 45 41 40 38 38 38 40 37
38 40 41 47 44 43 41 40 40 40 38 38 40 43 47 50 51 53 54 54 54 54 54 54 54 52 50 46 42 39 37 39 43 44 45 43 38 35 34 34 33 35 35
37 40 43 42 44 39 38 39 38 38 38 40 44 47 50 51 52 53 53 53 53 53 54 54 53 52 47 42 37 36 36 38 41 40 41 40 35 33 32 30 30 30 33
37 39 40 38 33 33 35 36 36 39 42 45 48 50 52 53 52 51 51 52 52 53 54 53 50 48 45 40 37 37 37 39 39 39 39 38 33 31 28 27 27 29 31
35 35 32 29 31 32 32 35 39 43 45 48 50 52 53 52 51 50 50 51 51 52 51 48 45 44 43 39 37 37 39 38 40 40 38 37 32 31 26 23 25 27 29
33 31 30 31 32 33 34 38 41 44 47 49 51 51 51 51 50 51 51 49 51 50 45 39 39 39 39 39 38 36 36 38 38 38 37 35 32 30 26 25 27 27 30

GFSMW_700_spd_003.txt.gz
Wind_Speed
18 15 14 10 8 10 11 12 12 13 13 13 13 14 15 15 17 19 20 23 26 29 30 31 31 31 31 32 34 36 37 39 41 46 46 47 45 42 42 42 41 41 40
12 13 9 9 10 12 12 13 14 13 12 12 13 14 16 17 18 20 20 21 23 25 29 32 33 34 35 36 37 40 41 43 44 48 51 55 51 46 42 43 44 44 44
15 9 8 10 11 11 12 13 13 13 14 16 17 19 20 21 22 22 24 25 26 27 29 32 34 35 38 38 39 41 43 45 44 47 48 51 55 54 48 45 45 45 46
11 9 9 9 11 12 12 15 18 18 19 21 24 24 23 24 24 25 26 28 29 30 31 33 34 36 37 38 38 40 43 44 47 45 45 45 48 51 55 50 46 43 45
11 10 9 10 10 13 17 20 21 22 24 27 28 26 25 24 25 26 27 29 31 33 34 36 37 39 40 41 42 42 43 45 46 45 42 43 47 47 51 55 55 52 47
12 10 9 9 12 15 18 19 22 25 28 28 27 25 24 24 25 26 28 29 32 34 36 38 40 42 43 45 46 47 47 47 47 47 46 46 47 45 48 53 54 57 56
11 10 9 11 14 16 19 23 25 28 30 27 25 25 24 25 25 27 29 31 33 35 37 40 41 43 45 46 47 48 49 51 52 52 53 52 51 49 51 54 59 60 60
9 9 9 11 15 19 24 26 29 29 27 25 25 25 24 25 28 30 33 36 38 40 41 42 43 44 46 47 48 50 51 51 52 52 53 55 56 56 57 58 59 62 63
8 9 10 17 21 25 26 25 27 27 27 27 26 25 26 28 31 35 38 41 43 45 46 47 47 47 48 49 50 51 52 53 55 55 54 53 52 53 56 58 59 57 61
9 12 17 21 24 24 23 25 27 27 28 29 29 28 29 31 35 38 41 44 45 46 47 47 48 48 48 49 50 50 51 53 54 54 54 54 53 52 51 52 54 56 57
12 16 21 26 23 21 23 25 28 30 30 31 30 31 34 39 43 44 47 48 47 47 48 48 48 48 48 48 48 49 50 51 51 52 53 52 52 53 53 53 54 54 55
15 22 28 22 18 20 24 28 31 32 32 33 35 37 39 41 45 49 51 49 48 48 48 47 46 46 46 46 46 46 47 49 49 49 49 50 51 52 53 54 55 56 56
26 27 18 16 19 22 27 31 32 32 34 35 37 41 45 48 52 53 50 49 49 47 45 45 45 45 46 46 47 48 48 48 49 49 49 50 51 51 53 54 55 57 60
18 14 18 19 19 26 31 34 35 34 38 40 44 48 50 57 54 51 50 48 46 45 45 44 45 46 46 47 47 48 48 48 49 49 49 50 51 53 54 56 57 60 62
16 17 17 16 24 32 36 37 37 39 42 44 47 50 59 49 48 48 46 45 44 44 45 46 46 48 49 49 49 49 50 50 50 50 51 51 52 53 54 58 58 60 61
18 17 17 24 31 35 36 40 43 44 46 47 51 60 49 47 46 45 43 44 44 45 47 50 53 54 54 52 51 50 52 53 52 53 53 53 53 53 54 55 55 56 56
20 21 26 30 34 38 39 41 43 47 49 54 57 50 47 45 44 43 44 45 47 50 53 55 56 57 56 55 55 54 55 56 55 54 54 54 54 54 55 54 54 54 53
26 30 34 37 37 38 41 44 46 49 55 53 50 48 47 45 43 44 45 48 51 55 58 59 59 59 57 55 55 55 55 55 53 52 50 51 51 50 51 52 53 52 45
34 35 34 33 35 40 43 44 44 54 48 47 45 45 44 43 43 45 49 53 57 59 61 60 59 57 56 55 55 55 56 54 51 48 46 45 46 46 45 49 50 46 41
27 29 30 33 37 39 45 50 48 46 44 41 42 42 42 44 46 50 53 57 60 61 60 59 56 54 54 54 55 55 53 51 48 46 47 45 44 44 44 45 43 40 38
32 30 31 35 39 42 46 47 47 43 39 40 41 42 43 47 50 54 57 59 60 60 57 56 54 53 54 56 55 52 48 44 42 45 48 46 45 43 41 39 37 37 37
29 31 33 37 40 43 44 43 40 38 39 41 42 43 46 51 54 57 58 57 56 56 55 54 54 56 57 55 50 44 41 39 38 46 46 45 44 43 40 37 33 32 32
29 30 34 37 38 38 37 34 36 38 39 41 43 47 50 52 54 56 56 55 54 54 55 57 59 59 56 51 44 41 40 40 41 43 44 43 43 41 39 35 31 29 29
31 33 34 35 34 33 34 36 38 39 41 44 47 49 51 54 54 54 54 54 54 55 57 58 58 56 51 46 43 42 43 43 41 41 44 42 41 38 37 32 28 27 27
33 33 33 33 33 33 33 37 39 41 43 46 47 50 54 54 55 54 54 54 54 54 55 54 51 49 46 43 42 42 44 41 35 45 45 43 40 38 36 29 26 25 25
32 31 31 31 31 32 34 38 40 42 45 48 51 54 55 55 56 56 56 52 53 51 47 46 42 41 41 42 43 43 41 39 40 45 44 41 39 37 35 31 28 26 26

GFSMW_700_spd_006.txt.gz
Wind_Speed
17 16 11 10 8 8 9 10 11 11 11 10 8 9 10 12 15 17 18 19 21 23 25 27 29 32 34 35 37 39 40 40 43 48 47 48 48 48 47 47 47 47 47
16 10 10 8 6 8 9 9 9 9 8 9 10 12 15 16 17 19 21 23 25 26 28 30 32 33 35 36 37 39 42 42 41 46 50 54 53 50 49 47 45 44 42
11 10 7 6 6 7 7 7 8 10 11 13 15 18 20 20 20 21 23 25 27 29 30 32 33 35 37 39 40 42 43 46 44 44 48 53 56 56 54 51 49 48 47
11 8 6 5 5 6 8 11 13 14 17 19 22 22 20 19 19 20 22 24 26 28 31 33 35 37 39 40 42 43 45 48 50 49 48 51 53 49 59 57 52 52 49
9 8 6 5 5 9 11 13 16 19 22 24 24 22 20 20 20 22 23 25 28 30 32 34 37 39 41 42 45 45 46 48 51 52 54 53 53 53 55 64 61 58 56
10 8 5 4 6 10 13 17 20 23 25 24 22 20 20 20 21 22 23 25 28 31 34 37 39 42 44 45 47 47 48 49 51 52 54 56 58 59 59 61 64 65 63
12 8 4 6 8 12 16 21 23 23 23 21 21 21 22 22 23 25 28 30 33 36 38 41 43 45 46 47 48 49 50 51 53 55 56 57 57 57 59 62 65 66 65
10 6 7 6 10 15 20 21 21 22 22 22 23 24 26 27 29 31 33 36 40 43 45 45 46 46 47 49 50 51 53 54 55 56 56 57 56 55 55 56 59 63 63
8 8 8 8 14 19 20 20 21 21 23 24 26 27 29 30 30 33 38 41 44 47 49 48 48 48 49 50 50 51 51 52 53 53 53 54 54 54 53 53 53 55 60
9 8 8 12 17 21 18 20 21 23 26 28 30 31 32 32 34 38 41 45 50 51 50 50 51 50 49 48 47 47 47 49 49 50 50 51 51 51 52 52 52 52 53
8 9 12 20 23 19 18 21 24 27 30 32 34 34 34 35 39 43 50 56 53 50 50 49 48 47 47 47 48 48 49 51 51 52 52 52 52 51 51 51 51 53 53
11 12 19 23 22 17 21 25 28 31 34 36 38 38 38 40 43 49 59 50 47 47 47 46 46 47 48 49 50 51 52 54 55 55 56 55 55 54 54 54 55 56 56
16 20 20 17 17 20 24 27 30 33 36 38 39 40 45 47 50 54 53 48 47 46 45 47 48 49 50 52 54 56 57 57 57 57 55 54 55 55 56 56 56 58 60
21 22 14 16 19 21 25 29 34 36 37 38 40 44 47 51 57 56 48 47 46 47 47 48 49 51 54 56 59 60 60 58 57 56 54 54 54 55 56 57 57 59 62
24 18 17 19 21 23 29 33 36 37 40 43 46 50 51 57 53 47 46 47 47 47 49 51 53 56 58 61 62 62 60 59 59 57 56 55 54 54 54 56 57 57 58
20 21 21 21 24 28 30 35 38 39 41 46 49 50 56 52 46 45 45 46 47 49 51 54 58 61 62 61 60 58 58 57 57 57 55 55 54 52 52 52 51 52 52
19 19 21 23 27 30 33 37 39 42 45 46 49 56 51 46 44 45 46 47 48 51 55 59 62 63 62 61 59 55 55 55 56 57 56 55 52 51 52 51 49 48 45
21 25 26 27 29 31 35 37 39 43 46 51 52 47 44 43 44 45 46 48 51 56 60 63 64 63 60 57 55 54 57 58 58 56 52 50 51 49 48 48 47 46 44
29 28 27 27 31 32 33 37 40 46 49 45 42 41 42 43 44 46 48 52 57 60 63 63 61 59 56 55 56 58 59 58 55 50 47 45 45 45 45 43 47 47 44
27 26 26 27 29 32 36 38 41 45 41 39 38 40 42 44 45 48 52 55 60 61 60 60 57 56 56 56 56 56 54 51 48 45 45 44 45 45 43 46 47 46 43
27 27 28 29 30 33 36 39 41 38 36 37 38 40 42 45 48 51 54 57 59 59 59 59 57 56 56 56 53 49 45 43 44 45 45 45 45 44 45 46 45 43 42
28 29 29 29 32 34 37 39 38 36 36 37 39 42 44 46 49 52 54 56 58 58 58 57 56 55 55 52 47 42 40 39 41 43 43 42 44 48 48 45 42 39 37
29 28 29 31 34 35 36 36 36 36 36 38 40 43 46 47 51 53 55 57 56 56 57 56 57 55 51 47 42 40 41 42 43 42 40 41 48 48 45 40 37 37 34
29 30 32 34 36 36 36 36 36 36 38 40 43 45 47 50 52 53 55 55 55 57 57 55 54 51 47 44 43 45 45 46 44 42 43 48 46 42 40 36 33 30 29
31 32 33 34 33 32 34 35 36 38 40 43 45 47 50 51 52 53 54 54 54 54 53 50 49 46 44 43 43 45 47 46 43 44 47 46 43 39 35 31 30 27 26
33 33 32 32 31 30 32 35 37 40 43 45 48 50 51 51 53 54 54 54 52 50 47 43 42 42 41 43 45 46 45 45 45 46 46 43 38 36 33 31 29 27 27

GFSMW_700_spd_009.txt.gz
Wind_Speed
13 13 15 13 10 8 7 6 6 4 3 3 4 6 7 10 12 15 17 19 21 22 24 25 26 27 28 30 33 35 36 37 40 45 46 46 45 45 45 46 46 46 45
14 13 11 8 7 5 3 3 2 2 4 5 7 9 12 13 15 16 18 20 22 23 24 26 27 29 30 32 35 39 41 41 42 48 51 55 53 51 51 50 50 49 49
14 10 10 8 5 3 3 3 4 5 6 8 11 13 15 16 16 17 18 20 21 22 24 27 29 32 35 37 39 42 44 47 45 46 50 56 59 60 56 56 55 54 54
13 12 10 7 5 4 4 5 6 8 10 13 16 16 15 15 15 16 18 20 22 24 26 29 32 35 38 41 42 44 46 48 51 50 47 49 55 61 70 63 61 59 58
13 11 10 7 5 4 4 7 9 12 16 18 16 15 14 15 17 18 20 22 25 28 30 33 36 39 42 44 46 47 47 49 51 53 56 57 56 56 60 70 66 64 62
12 12 9 6 5 4 7 11 15 17 18 18 16 15 16 17 19 20 22 25 28 31 34 38 41 43 45 46 46 47 48 49 51 53 55 57 58 58 58 59 63 64 63
12 12 8 7 4 5 10 16 19 19 19 17 17 18 19 21 22 24 26 28 31 35 39 42 44 45 45 45 45 46 46 47 48 49 50 51 51 52 53 56 59 61 61
13 11 9 7 5 8 14 20 21 21 20 19 21 22 24 26 29 30 31 34 36 39 46 43 41 42 43 45 45 46 47 47 48 49 49 51 51 52 53 54 55 59 59
11 11 9 7 8 12 19 21 22 22 21 23 25 27 29 31 32 32 34 37 39 46 47 43 42 43 44 44 45 45 45 46 47 49 50 51 52 53 54 54 53 51 52
12 10 9 9 11 17 22 22 22 23 23 26 28 32 33 33 33 35 39 41 46 49 45 42 42 43 43 44 45 47 48 50 52 54 55 56 56 57 56 55 54 53 52
11 10 11 12 15 21 25 22 23 24 26 29 33 35 34 33 36 40 43 48 47 44 43 42 43 43 44 45 48 50 54 57 58 59 61 60 58 57 55 55 55 55 54
13 13 14 14 22 22 22 22 26 27 29 33 36 36 35 38 42 46 48 49 46 43 42 42 43 45 47 50 53 57 59 62 63 62 60 59 58 57 55 55 56 58 59
17 18 18 21 24 22 22 25 27 29 33 36 37 37 39 43 45 47 52 49 43 42 42 43 46 48 51 54 58 61 63 63 62 61 59 58 56 55 54 54 55 57 58
21 20 22 24 21 22 24 26 28 33 35 36 36 39 43 47 48 51 49 45 43 43 43 46 49 52 54 58 61 63 63 62 60 57 54 53 53 54 55 55 55 56 57
21 22 25 22 22 24 26 28 31 33 35 36 38 42 46 47 50 48 45 43 43 44 46 49 51 54 57 60 63 63 62 60 58 56 54 54 53 52 50 49 49 49 48
24 22 22 22 22 25 27 29 31 32 35 37 41 45 45 47 45 43 42 43 43 45 47 50 54 56 60 61 61 61 61 59 58 57 56 54 51 47 43 41 40 41 36
22 22 21 22 25 26 27 29 31 33 36 40 43 44 44 43 41 41 41 43 45 47 49 53 56 59 60 61 62 61 59 58 56 54 52 48 44 41 41 42 41 34 39
20 21 25 26 25 25 27 30 32 35 37 40 42 42 40 39 39 40 42 45 47 49 52 55 58 59 61 61 59 57 56 55 51 46 42 41 40 39 41 40 39 41 44
21 25 24 22 23 25 27 29 32 35 37 39 40 39 39 38 39 42 45 47 49 51 53 57 59 59 60 58 55 54 52 48 44 41 40 39 40 41 39 37 43 48 43
25 22 21 21 22 24 27 30 34 34 36 37 36 37 37 39 43 46 48 49 51 52 53 56 57 58 57 54 51 49 47 43 42 42 41 41 41 40 37 46 50 50 44
20 20 20 21 23 25 28 32 34 35 35 35 35 36 39 43 45 48 49 50 51 53 54 55 57 57 53 50 47 45 43 42 44 45 44 43 42 37 47 47 45 43 41
20 21 22 24 26 28 31 33 33 33 33 34 35 38 41 45 47 49 50 50 51 53 55 56 56 53 50 47 44 42 40 40 44 45 45 45 41 45 44 41 38 37 36
22 24 26 27 28 30 31 31 31 31 32 34 37 40 43 45 48 49 50 51 52 53 54 54 54 54 49 45 41 41 42 44 46 46 47 47 46 43 38 35 33 32 32
25 26 27 28 28 29 30 30 31 32 34 36 40 43 44 46 47 48 49 51 51 53 52 51 53 52 47 43 43 46 47 47 47 48 49 46 42 36 33 30 27 27 29
26 27 26 26 27 28 29 30 31 33 36 39 42 43 45 46 47 48 50 51 51 49 49 49 48 48 47 46 46 46 46 45 47 50 46 42 37 33 29 26 26 25 27
25 25 25 26 26 26 28 30 33 36 39 40 42 44 46 47 49 50 50 49 47 46 44 43 43 44 45 46 46 46 44 44 45 44 41 38 35 31 28 26 26 26 26

GFSMW_700_spd_012.txt.gz
Wind_Speed
12 12 11 12 12 12 9 7 6 5 6 7 8 9 10 13 15 17 20 22 23 24 24 25 25 26 28 30 32 34 36 38 42 46 48 48 49 48 50 50 50 50 50
17 17 14 12 9 8 7 6 5 6 7 7 9 11 13 16 18 20 20 21 21 22 23 24 26 28 30 33 36 40 42 44 45 50 53 55 54 52 53 54 54 53 53
15 15 13 11 10 10 8 7 7 7 7 9 10 12 15 16 17 17 18 20 21 23 25 27 30 32 35 38 41 44 47 49 47 47 50 56 59 62 59 58 59 58 58
18 15 13 12 12 11 9 8 8 8 10 12 14 16 16 16 16 17 18 20 22 25 27 30 33 37 40 42 44 45 47 48 50 50 48 49 54 60 67 61 60 58 58
19 16 13 14 13 11 10 8 8 9 12 15 16 15 14 15 16 19 21 24 26 29 31 34 36 39 41 42 42 42 42 44 46 47 49 49 49 50 54 66 62 60 58
18 16 16 16 14 11 9 8 9 12 15 17 16 15 15 17 19 21 24 27 29 31 33 36 37 41 38 38 38 40 41 42 43 45 47 49 51 53 56 61 63 65 63
17 17 18 16 14 11 9 9 13 17 18 18 16 17 19 21 23 26 27 28 29 32 35 37 39 38 37 38 39 40 41 43 44 45 47 48 51 54 57 61 66 69 68
18 19 19 17 14 12 10 12 17 21 21 20 19 21 23 26 29 30 28 29 32 34 37 37 37 38 39 39 40 41 43 44 45 47 49 52 54 57 59 62 64 69 71
18 20 19 17 15 13 12 16 20 23 22 22 23 26 28 31 32 31 32 35 37 39 40 38 37 38 39 40 40 42 43 46 49 51 54 57 59 59 59 60 59 59 64
21 21 19 16 15 15 15 20 23 24 23 24 26 29 32 35 34 34 36 38 40 42 39 38 38 39 40 41 43 45 48 51 54 57 59 60 59 59 58 56 56 55 57
21 20 18 16 16 16 17 22 25 24 25 28 30 33 36 37 37 39 41 43 43 41 39 38 39 40 41 43 46 49 52 55 58 59 61 61 58 57 55 54 53 54 55
20 19 18 17 17 17 21 23 25 26 28 30 33 36 38 38 39 42 44 44 41 39 39 40 41 42 44 46 49 52 56 59 61 63 62 60 58 56 55 55 55 56 55
21 20 20 20 20 21 24 25 26 28 30 31 35 38 40 40 43 46 44 41 38 39 41 42 43 45 46 49 51 55 58 61 63 63 62 59 57 56 55 55 55 53 48
22 23 23 22 22 24 26 26 29 31 31 34 36 38 41 43 44 42 40 39 39 40 41 43 45 46 48 51 54 58 60 62 63 61 58 56 54 54 53 51 48 42 37
24 24 22 22 25 26 26 29 31 31 33 36 37 40 42 43 43 41 38 39 40 42 44 46 47 48 50 53 56 59 61 63 62 59 57 54 52 49 45 44 43 38 38
24 24 24 26 25 26 28 29 32 33 35 37 39 41 42 43 42 39 40 40 42 44 46 46 48 50 51 54 57 60 62 62 60 58 55 51 48 45 43 42 40 40 36
25 26 26 24 25 26 29 31 32 33 36 39 40 41 42 41 39 40 41 43 44 46 46 47 49 50 52 55 58 60 60 60 57 55 52 48 45 44 44 44 43 36 34
25 24 24 25 27 30 30 30 31 34 37 39 39 40 40 39 39 40 41 43 46 47 48 49 50 52 54 57 58 58 58 56 53 50 47 44 43 43 44 45 42 43 45
23 23 24 26 28 27 27 29 31 34 37 36 38 39 38 38 39 41 43 46 48 48 49 50 52 53 54 56 56 57 56 53 49 46 43 43 44 44 42 38 44 50 53
21 22 25 25 23 24 26 28 30 34 34 36 37 37 37 38 40 43 46 47 48 49 50 51 52 53 54 54 55 54 52 49 47 45 46 46 46 44 41 40 45 52 48
22 24 22 22 23 24 25 27 30 32 33 35 35 35 37 39 42 45 45 48 49 49 50 52 52 53 53 53 51 49 47 46 47 48 49 48 45 45 46 44 42 45 44
22 20 21 22 22 24 25 27 30 31 33 33 33 34 37 40 43 45 47 48 49 51 51 51 52 52 52 51 49 47 45 45 48 49 48 47 48 47 44 41 38 37 36
18 20 21 22 23 24 26 28 29 30 30 31 32 35 38 41 44 46 47 48 49 50 51 51 52 52 52 51 49 47 47 47 48 47 47 47 46 43 39 36 32 30 31
19 20 22 23 24 25 27 28 29 29 29 30 34 37 40 42 43 45 47 48 50 50 50 50 51 51 51 50 48 48 49 49 48 45 48 45 41 39 36 32 27 28 30
20 22 23 24 25 26 27 27 26 27 29 32 36 39 42 43 44 45 47 48 48 49 49 48 48 50 50 48 47 48 48 48 45 47 44 41 40 37 32 27 26 26 28
22 23 24 25 26 26 25 25 26 28 31 34 38 40 42 43 45 47 48 49 48 47 46 44 45 46 46 46 45 46 47 44 43 43 40 39 37 33 29 27 27 27 30

GFSMW_700_spd_015.txt.gz
Wind_Speed
15 14 15 15 14 15 15 14 11 9 9 10 10 11 12 14 17 21 22 24 26 27 29 29 30 30 32 33 35 38 40 41 43 46 47 47 47 45 45 48 48 50 50
19 17 16 16 14 13 12 11 9 8 8 8 10 12 15 18 20 22 23 25 26 26 27 28 29 31 33 36 39 41 42 43 44 47 49 50 48 47 46 47 48 48 49
20 19 19 16 14 13 12 11 10 9 9 9 11 14 17 19 20 20 20 22 23 25 27 30 33 35 37 38 40 42 43 43 41 41 45 50 53 55 51 50 50 51 51
24 21 20 17 15 14 13 12 10 9 9 10 13 15 17 17 17 18 20 22 25 27 30 33 35 37 38 39 41 41 40 41 42 42 41 42 47 53 61 56 54 52 52
27 23 20 17 16 16 14 12 11 9 9 12 15 17 17 17 17 20 23 25 29 32 32 34 35 36 38 38 37 37 38 39 41 43 45 46 47 47 52 62 60 58 59
27 24 20 18 18 17 15 13 11 10 11 14 16 16 15 16 19 22 25 30 32 31 31 34 35 37 36 35 35 37 38 40 41 42 44 46 50 52 55 60 64 66 66
25 22 20 21 20 18 16 14 12 11 14 16 19 17 17 19 23 26 30 32 31 32 34 35 36 36 34 35 37 38 39 40 42 44 45 47 50 54 57 61 67 70 70
23 21 22 22 21 19 17 15 13 15 17 20 20 19 21 24 28 30 34 35 34 36 37 37 36 35 36 37 38 40 41 43 44 46 49 52 53 56 59 62 65 70 72
22 22 24 23 21 20 18 16 16 18 20 23 22 23 26 29 32 35 38 37 38 40 39 39 37 37 38 40 41 42 43 44 46 48 51 54 56 59 60 61 61 60 68
23 24 25 24 22 20 19 19 18 20 23 25 24 27 30 32 36 39 41 42 42 43 41 39 38 38 39 40 41 43 44 47 49 51 54 56 59 61 61 60 59 57 56
26 23 24 24 21 20 20 20 21 23 26 27 27 30 33 35 39 42 44 44 44 43 40 39 38 39 40 41 44 45 47 50 52 54 57 60 61 61 60 59 57 57 54
25 23 24 23 20 20 21 21 23 26 29 29 30 33 35 38 42 45 45 45 44 42 39 40 40 41 43 46 47 48 50 52 54 57 59 60 60 60 59 57 55 54 52
27 25 24 22 22 22 22 23 26 28 30 31 33 35 37 41 44 46 46 45 43 40 41 41 42 44 46 48 48 50 52 53 56 58 59 60 59 59 56 54 53 51 47
24 24 23 23 24 23 23 26 29 30 31 33 35 37 40 43 45 47 47 46 43 41 42 43 45 46 48 48 50 52 53 55 57 58 59 59 57 55 53 52 50 46 45
21 24 24 25 24 24 26 29 30 30 33 35 37 39 42 45 47 47 47 45 43 42 43 45 47 48 49 50 52 53 55 56 57 58 58 56 55 52 50 46 45 45 45
22 26 26 24 25 26 28 29 29 32 34 37 40 41 43 46 47 47 45 42 42 43 45 48 50 50 50 51 52 54 55 56 57 57 56 54 51 49 47 46 46 42 41
23 26 24 25 28 29 28 29 31 34 37 38 40 42 44 45 46 45 42 42 44 46 49 49 50 50 49 50 52 53 55 55 55 54 53 52 49 48 48 49 47 43 37
22 24 25 27 27 27 28 31 34 35 36 38 41 43 43 43 44 42 42 43 46 48 49 49 49 50 50 51 53 53 53 53 52 52 51 49 50 49 48 46 47 47 47
23 23 24 24 25 28 30 31 32 33 36 39 42 40 42 42 41 41 42 45 48 49 49 48 49 50 51 52 52 52 52 52 51 50 49 49 50 49 45 44 50 55 52
22 22 23 24 26 28 28 29 31 33 36 39 39 39 40 39 40 41 45 47 49 48 48 49 50 52 52 51 51 51 52 52 51 50 50 49 48 46 43 48 52 51 46
20 21 23 25 26 26 27 29 31 34 36 36 36 37 37 38 40 43 46 47 47 47 49 51 51 52 52 51 51 51 51 51 51 52 52 51 49 44 48 45 44 42 40
20 23 25 24 24 26 28 30 31 33 33 33 34 33 35 38 42 44 45 44 46 48 50 51 52 52 52 51 51 50 49 49 49 51 51 51 48 49 46 42 39 35 34
22 23 22 23 25 26 28 29 29 30 30 30 31 33 36 39 41 44 44 45 47 49 51 52 53 52 52 50 49 49 49 48 48 48 48 47 47 44 41 36 32 31 33
19 20 21 23 25 25 26 27 27 28 28 30 32 35 37 39 41 43 44 47 49 50 51 51 52 52 51 50 49 48 48 49 50 48 47 44 41 38 35 31 28 29 32
17 20 22 23 24 24 25 26 26 26 28 31 32 34 37 40 42 43 45 48 49 51 51 50 51 51 50 48 46 46 48 49 48 46 43 41 38 35 31 28 29 30 32
18 20 22 23 23 25 25 25 26 28 29 30 33 36 39 41 43 45 46 47 49 50 51 50 50 48 47 47 46 46 47 45 41 41 40 38 35 32 30 30 31 31 36

GFSMW_700_spd_018.txt.gz
Wind_Speed
19 15 15 16 16 16 16 17 18 16 14 14 13 13 13 14 16 18 20 23 25 27 28 29 29 30 33 35 37 39 40 40 41 42 40 38 37 38 38 38 40 40 40
19 17 18 16 16 16 16 15 15 12 11 10 10 10 12 15 17 20 22 23 24 25 25 27 29 31 34 37 39 40 39 39 41 42 43 45 41 41 39 40 40 42 43
21 20 20 19 18 17 15 14 13 11 10 9 10 11 14 15 18 19 19 20 21 23 26 29 32 35 36 36 37 37 38 37 35 37 43 47 50 52 48 46 45 46 47
24 23 21 20 20 18 17 16 13 12 11 10 10 12 14 15 17 18 18 19 22 26 29 33 34 33 35 36 36 36 36 37 38 37 36 39 45 50 60 55 50 49 50
28 24 24 22 21 19 17 16 14 12 10 10 10 11 14 15 16 17 20 23 26 28 33 32 33 34 35 36 35 34 36 37 39 40 41 41 41 43 50 62 58 56 55
30 27 26 24 23 21 20 18 15 13 11 10 10 13 16 17 18 20 23 27 29 32 33 34 36 36 36 35 35 35 36 37 38 40 41 44 46 47 50 56 59 62 61
29 27 26 26 24 23 21 18 16 14 12 11 13 17 19 18 20 24 27 30 33 36 37 37 39 38 37 36 36 37 38 39 40 41 43 44 45 48 51 56 61 65 65
24 24 27 27 25 24 22 19 17 14 13 14 17 21 21 21 24 28 31 34 37 39 40 41 40 39 38 37 38 38 39 41 42 43 43 46 47 49 52 55 60 66 67
21 25 27 26 26 25 23 20 18 16 16 17 20 24 23 25 28 31 34 37 40 42 43 43 41 39 38 39 40 41 42 44 44 45 46 48 49 52 53 56 57 60 68
22 26 26 26 27 26 22 20 19 19 19 21 23 26 26 28 31 34 36 40 43 45 44 43 41 39 40 41 42 44 45 47 46 47 49 50 52 54 55 56 56 56 57
24 25 24 26 28 25 23 20 20 21 22 24 27 29 29 31 34 36 39 43 45 46 45 44 41 41 41 42 45 47 48 48 48 49 51 53 54 55 55 56 56 56 55
25 25 24 25 25 24 23 21 21 22 24 27 29 31 32 34 37 40 43 45 47 47 47 44 43 42 43 46 48 49 48 49 50 51 53 54 55 55 54 55 55 55 54
24 26 26 24 24 24 23 22 22 23 26 29 32 33 35 37 40 42 44 46 48 47 46 44 43 44 46 48 48 49 49 50 51 53 54 54 54 54 54 54 54 53 52
20 24 24 22 23 24 24 23 24 25 29 32 33 35 37 39 41 43 45 47 47 46 44 43 44 46 48 49 49 50 51 51 52 53 53 53 53 53 52 52 52 50 50
11 20 23 23 24 24 24 25 26 27 31 32 34 37 39 41 42 44 46 47 47 45 43 44 46 47 48 49 50 51 53 54 53 52 52 52 52 51 48 46 47 49 50
12 13 19 24 25 25 25 26 26 29 31 33 36 38 40 42 43 44 46 46 44 42 43 45 47 48 48 49 50 53 54 53 53 52 52 51 51 50 49 48 48 43 41
13 15 19 25 26 25 25 26 28 30 32 35 37 38 40 41 43 44 45 43 41 42 45 46 48 48 48 50 51 52 53 52 51 51 52 52 51 50 49 49 48 45 44
17 18 20 23 24 24 26 28 28 31 34 36 36 37 40 40 42 43 41 41 42 44 46 47 47 49 50 51 52 52 52 52 51 51 51 51 51 50 48 47 47 48 52
18 18 20 20 22 24 26 27 30 32 32 33 35 38 39 40 40 39 39 40 43 45 46 46 48 50 51 52 52 52 53 54 54 53 52 51 51 50 46 42 46 53 49
18 18 19 20 22 24 26 29 29 30 30 32 35 37 38 38 38 37 38 40 43 45 46 46 48 50 52 52 52 53 53 54 54 53 53 51 50 49 41 43 49 48 45
17 17 18 20 21 24 27 26 27 28 30 32 34 35 36 36 35 35 38 42 44 45 45 47 49 51 52 52 52 51 50 51 52 53 53 50 49 43 43 42 42 41 39
16 17 18 20 23 24 23 25 26 28 30 31 33 34 32 32 35 38 41 42 43 44 46 49 50 51 52 52 50 49 48 47 48 50 50 49 43 43 41 39 36 34 34
15 17 19 20 20 21 23 25 26 28 29 30 30 29 29 32 36 39 41 42 43 47 49 50 51 52 52 51 49 47 46 46 47 46 46 42 41 40 37 33 31 31 32
17 17 17 18 20 22 23 24 25 27 28 27 27 28 32 35 36 37 39 42 45 49 50 52 54 54 53 50 48 46 46 47 46 45 43 40 38 35 32 28 27 29 33
15 16 17 18 20 22 23 24 25 25 24 25 27 31 34 35 37 38 40 44 46 49 51 52 52 52 51 48 46 45 46 45 42 42 40 38 35 31 27 26 28 32 31
15 17 18 19 21 22 22 22 22 22 24 27 30 33 34 36 38 40 42 43 46 47 48 48 47 46 44 45 44 44 43 40 38 39 38 35 31 29 29 31 34 27 24

GFSMW_700_spd_021.txt.gz
Wind_Speed
21 19 18 16 17 18 19 18 17 18 19 19 16 16 15 15 14 16 16 19 20 22 24 25 26 29 31 34 36 37 36 36 37 37 34 32 32 34 34 35 34 34 34
22 22 20 18 16 16 16 15 15 15 14 13 13 13 12 12 13 16 17 18 20 21 22 24 27 30 33 35 35 35 35 36 39 39 39 40 35 36 34 33 34 35 38
26 24 22 18 16 16 16 15 15 14 14 14 12 11 12 12 14 16 17 17 18 20 23 26 29 32 33 33 35 36 36 35 34 37 40 44 44 44 40 40 40 42 42
30 30 23 20 19 19 18 17 16 15 14 12 11 11 11 12 14 15 15 16 19 22 25 27 30 32 33 34 35 36 37 36 35 34 36 39 44 49 56 49 44 43 45
31 32 23 21 21 21 20 18 16 15 13 12 11 9 9 11 14 15 15 17 21 24 27 30 32 33 34 35 35 36 36 36 37 39 39 39 41 44 51 60 56 51 48
35 35 29 25 24 23 21 20 19 16 14 12 10 7 9 13 15 16 18 21 24 27 30 33 35 36 37 37 37 36 37 37 39 40 42 45 47 48 50 54 57 60 58
36 35 31 28 27 25 23 22 20 18 15 12 9 9 13 16 16 19 23 25 28 30 33 36 38 39 39 39 38 37 38 39 40 42 44 45 46 48 50 54 60 63 61
35 32 27 29 29 27 25 23 21 18 15 12 11 12 16 19 20 23 26 29 31 34 37 39 41 41 41 40 39 39 40 41 42 44 46 47 47 48 50 53 58 65 64
25 28 29 29 29 27 25 23 22 19 16 14 14 16 19 22 24 26 29 32 34 37 39 41 42 42 41 40 40 40 41 43 45 46 48 48 48 49 50 51 54 58 66
20 24 26 29 30 28 26 25 23 20 18 17 18 20 22 25 27 29 31 34 36 39 41 42 43 42 41 40 41 42 44 46 46 47 48 49 49 51 51 52 53 53 57
19 23 26 29 28 26 26 25 22 20 19 19 20 23 25 28 29 31 34 36 39 41 43 44 43 42 41 41 43 46 47 48 47 47 49 50 52 53 53 53 53 53 55
20 22 25 26 25 25 26 24 22 21 20 21 22 25 28 31 32 34 37 39 41 42 44 44 44 42 42 43 46 48 48 48 48 49 52 53 53 52 52 52 53 54 54
21 24 25 24 23 24 25 24 22 21 21 22 25 28 31 33 34 37 39 41 42 43 44 44 43 42 44 46 47 47 48 50 51 52 53 53 53 54 53 53 54 54 55
15 22 25 24 22 23 24 24 23 22 22 24 27 31 33 34 37 39 40 41 42 43 43 42 42 43 46 46 47 49 51 52 52 52 53 53 53 53 53 54 53 53 53
9 14 20 21 22 23 24 23 22 22 23 26 30 32 33 36 38 39 40 41 42 43 41 41 43 44 46 47 49 52 53 53 53 52 51 52 52 52 52 51 51 51 50
8 9 15 20 21 21 21 22 21 22 25 29 31 32 34 37 38 38 39 41 41 40 40 42 44 45 46 48 49 50 52 53 53 53 53 53 53 52 50 49 48 44 42
8 9 9 12 16 20 21 21 22 25 27 29 30 32 35 36 36 37 40 40 38 39 40 42 44 45 46 48 49 50 53 53 53 55 56 56 54 52 51 49 48 44 40
9 12 14 16 18 20 21 21 22 24 26 29 31 33 34 35 36 37 38 38 37 39 41 42 44 46 46 48 50 52 54 55 56 56 57 56 53 51 50 49 44 41 47
11 13 15 15 15 16 17 19 22 25 28 30 31 31 32 34 35 35 35 36 38 39 41 42 44 46 48 49 51 54 56 56 55 55 54 51 49 49 47 39 42 49 47
13 12 13 14 15 15 17 20 24 26 27 28 29 30 32 32 32 33 34 37 39 40 41 42 44 47 50 51 54 55 55 55 54 53 50 47 46 45 38 40 46 45 41
15 14 14 13 14 16 19 21 24 25 25 27 28 29 30 30 31 32 35 37 39 40 41 43 46 47 49 52 53 53 53 51 50 48 47 46 42 38 41 39 39 37 36
13 12 13 14 16 18 20 21 22 23 24 25 26 27 28 29 31 33 35 37 40 42 44 46 47 49 51 53 53 52 49 45 45 46 45 42 39 40 38 36 33 31 32
11 11 13 15 17 18 18 20 21 22 24 24 25 25 26 29 32 34 37 38 41 43 46 49 50 51 54 54 51 48 45 44 45 43 42 38 38 37 34 30 29 30 33
9 11 14 15 15 16 18 20 21 22 22 23 23 24 27 29 32 34 37 40 42 45 48 50 52 54 54 51 48 46 46 45 44 42 39 37 36 33 28 26 27 30 27
11 11 12 14 15 17 19 20 21 21 21 22 23 25 28 31 33 35 38 40 43 46 49 50 53 53 51 46 44 44 44 43 40 39 37 36 32 27 26 27 26 23 24
11 11 13 15 17 19 20 20 20 20 20 22 24 27 30 32 34 37 37 39 42 44 46 48 48 46 42 41 42 42 41 38 36 35 36 33 28 27 29 27 23 23 25

GFSMW_700_spd_024.txt.gz
Wind_Speed
23 26 26 23 21 21 24 28 28 27 23 19 19 21 19 17 16 15 15 16 17 19 20 21 22 25 28 30 32 33 33 35 35 35 33 31 32 32 33 33 33 33 35
30 25 25 23 20 19 21 21 21 20 19 19 19 18 17 14 13 13 15 17 18 20 20 21 23 26 29 31 32 32 33 35 37 37 38 38 35 36 36 34 35 36 38
33 29 25 22 20 19 19 17 17 17 17 17 17 15 13 12 13 13 15 17 18 19 20 23 25 28 31 32 32 33 34 35 37 39 40 43 44 44 40 39 39 41 43
38 33 29 24 20 21 20 17 17 17 16 16 15 13 12 12 12 12 15 16 17 19 22 25 27 29 31 32 33 34 35 35 37 37 39 41 45 49 54 45 43 45 47
43 39 32 27 24 22 22 19 17 16 15 16 15 13 11 9 9 11 14 16 19 22 25 26 28 31 32 34 35 36 37 38 38 39 39 40 42 46 54 60 56 50 49
42 40 35 32 30 24 24 20 18 19 19 16 14 12 9 8 9 11 14 17 21 24 26 29 31 33 35 36 37 38 38 38 39 40 41 44 46 49 52 58 60 63 62
43 39 37 34 31 26 25 22 21 20 19 17 14 12 10 9 11 13 16 20 23 26 30 32 34 36 37 39 40 39 39 38 39 40 43 46 48 51 54 57 62 64 64
48 40 38 34 32 27 27 24 23 22 19 17 15 13 11 13 15 17 20 23 27 30 33 36 38 39 40 41 41 40 39 39 41 44 46 48 49 52 53 57 61 68 68
45 40 37 36 32 27 28 26 25 23 20 18 16 14 14 16 18 21 24 26 29 32 35 38 39 40 42 43 42 41 41 41 44 46 48 50 51 52 53 54 57 62 71
42 39 37 35 30 27 29 28 26 23 20 18 17 17 17 18 21 24 27 29 32 35 37 39 40 42 43 43 42 42 43 45 46 47 49 50 52 53 54 56 57 58 61
30 34 34 31 28 29 31 28 26 24 21 19 19 19 19 21 24 27 30 31 34 37 39 40 42 43 43 42 43 44 46 47 48 49 50 52 54 55 55 56 56 57 58
22 24 26 26 27 30 30 28 27 24 22 21 20 20 22 24 27 30 32 33 36 39 40 41 43 43 43 42 44 46 47 49 50 51 52 53 54 54 55 56 57 58 58
23 22 23 24 27 28 29 28 26 25 23 22 21 22 24 27 30 32 33 35 38 40 41 42 43 42 42 43 45 48 49 50 51 52 53 54 55 56 57 58 58 58 57
21 20 23 24 25 26 26 26 26 25 23 23 23 25 27 29 32 33 35 38 40 40 41 42 41 42 43 45 47 49 50 51 51 52 53 54 56 58 59 59 57 56 54
19 19 22 24 25 26 26 25 25 25 24 24 25 27 29 31 32 34 37 39 39 41 41 40 40 42 44 47 49 50 52 52 52 52 54 56 58 57 57 55 54 52 50
11 13 19 23 24 23 22 23 24 25 24 24 26 27 29 30 33 36 37 37 39 39 39 40 42 43 45 47 48 51 53 53 53 56 58 59 59 58 56 53 50 47 41
8 9 11 16 19 20 20 22 23 24 24 25 26 27 29 32 34 36 36 37 38 38 38 40 43 44 46 48 51 52 52 53 55 58 60 59 57 54 52 51 49 43 41
4 9 12 13 16 19 20 21 22 23 23 24 25 28 31 32 33 34 36 37 36 37 39 41 44 46 47 50 51 52 53 55 57 58 58 55 52 49 49 47 43 42 45
8 9 12 13 14 15 17 18 19 20 22 24 26 28 29 31 32 34 35 35 35 37 40 42 45 47 48 50 51 53 56 58 58 57 53 49 48 46 42 38 46 45 40
8 9 10 12 13 13 15 16 18 20 22 24 26 27 29 31 32 32 33 34 37 39 42 43 45 47 48 50 52 55 58 59 57 54 49 47 44 41 38 42 42 41 38
10 10 11 11 12 13 13 14 17 20 23 24 26 27 28 29 30 30 32 35 38 40 42 43 44 47 49 51 53 56 56 54 52 49 47 44 39 39 39 38 36 35 37
11 12 12 11 11 12 14 17 19 21 22 24 25 26 27 28 28 30 33 37 40 41 43 44 45 47 48 51 54 53 51 47 47 47 45 40 38 38 36 33 32 34 36
11 11 10 11 12 14 16 18 19 20 21 23 24 25 25 27 29 32 35 37 40 42 44 46 48 49 51 53 53 50 48 46 46 43 39 36 37 36 31 30 32 33 29
10 10 10 12 14 16 16 16 18 19 21 22 22 23 25 27 31 34 38 39 41 42 45 47 49 52 53 53 50 48 47 46 43 41 36 36 35 31 28 28 27 25 26
9 10 12 13 13 13 14 16 18 19 19 20 21 23 26 29 32 35 38 39 40 44 47 49 52 53 53 49 46 45 45 42 40 37 35 34 30 26 26 23 22 23 25
9 9 9 9 10 12 15 16 17 18 19 21 23 26 29 32 35 36 35 37 40 42 45 47 50 50 46 42 42 42 39 37 36 34 35 31 27 27 26 24 22 23 25

GFSMW_700_spd_027.txt.gz
Wind_Speed
29 28 26 27 25 22 22 24 25 28 31 30 27 25 24 22 21 19 17 16 16 17 19 21 22 24 25 27 29 31 32 33 33 32 31 32 32 32 32 32 33 34 36
34 31 26 26 24 23 22 23 24 25 25 25 23 23 23 22 20 17 15 15 16 18 20 21 22 24 27 29 30 32 33 33 34 35 36 36 34 34 34 35 35 36 37
34 31 31 26 23 21 20 21 19 20 20 21 22 23 23 20 16 14 14 15 17 18 20 22 24 26 28 30 31 31 32 34 36 37 39 41 42 43 39 36 35 38 39
36 33 33 30 25 19 17 19 18 18 19 19 21 20 17 15 14 13 14 14 17 18 20 23 26 28 29 31 31 32 33 36 38 39 39 40 44 46 50 43 40 43 44
41 37 35 31 29 24 21 19 19 20 20 19 19 18 16 14 13 12 12 14 16 19 22 25 27 29 31 32 33 34 36 38 39 40 40 40 41 43 50 54 49 45 46
42 41 39 35 32 27 24 20 20 21 20 19 18 16 15 13 12 11 11 14 17 20 24 27 29 31 33 35 36 37 39 40 39 39 40 41 44 46 50 55 57 60 57
41 45 43 40 36 31 25 22 22 22 21 20 18 17 15 14 11 11 13 16 19 23 26 29 32 34 36 37 38 39 41 41 40 40 40 43 45 48 50 55 58 63 64
42 45 43 36 33 31 27 24 22 24 24 21 20 17 16 14 13 13 16 18 22 25 29 32 34 37 38 39 41 42 42 40 40 41 43 45 47 49 52 56 61 67 68
36 40 38 33 33 30 27 24 23 26 25 22 20 19 17 16 15 17 19 22 25 28 31 35 37 40 41 42 43 43 42 41 41 43 45 46 49 51 53 55 57 61 71
31 34 37 35 34 32 29 25 26 27 25 23 22 21 19 18 18 19 22 25 28 32 34 37 39 42 43 44 44 43 42 43 43 45 47 48 51 53 54 55 56 58 62
30 33 35 36 34 34 29 26 29 29 27 24 23 22 21 20 21 23 25 28 31 34 36 39 42 42 43 44 43 43 44 45 46 47 49 51 54 55 56 56 58 61 64
19 20 28 32 34 32 28 28 30 29 27 26 24 23 22 22 24 26 28 31 34 36 39 41 42 43 43 42 43 44 45 46 48 50 52 53 55 56 57 59 62 64 64
21 20 28 32 31 29 27 29 31 30 28 26 25 24 23 25 26 28 31 33 36 38 41 42 42 43 42 42 43 45 47 48 49 52 54 55 57 58 60 63 64 64 65
20 21 26 28 27 26 26 29 30 29 28 27 26 26 27 27 28 30 33 36 38 39 41 42 43 43 42 43 45 47 48 49 51 53 55 56 58 61 63 64 63 61 59
20 21 24 24 23 24 26 28 29 28 27 27 28 28 28 29 30 32 35 37 38 40 41 42 42 42 43 45 47 49 50 52 53 55 56 58 60 61 60 59 57 55 53
22 22 21 20 20 22 24 25 26 27 28 29 29 28 29 30 31 34 36 37 38 40 42 42 41 42 44 46 47 49 52 53 55 56 58 60 60 59 56 53 51 47 44
16 16 15 17 19 20 21 22 24 26 27 27 28 28 28 30 32 34 35 37 38 40 40 40 41 43 46 47 49 51 54 55 55 57 59 59 56 53 52 50 47 44 42
14 13 13 16 19 20 21 22 23 24 24 25 26 26 29 30 33 33 35 37 38 38 38 40 43 44 46 49 50 52 54 54 55 57 57 55 52 50 48 46 44 43 41
14 12 12 13 15 17 18 18 19 20 21 22 24 26 28 30 31 33 35 36 36 37 38 41 44 46 47 49 51 53 54 56 58 56 53 50 50 47 44 43 44 42 36
15 13 13 14 14 14 15 16 17 18 20 22 23 26 28 29 31 33 35 35 35 37 40 41 44 46 48 50 51 53 56 58 58 53 49 48 46 42 40 41 41 38 36
13 12 12 11 11 12 13 14 15 17 19 22 24 25 27 29 31 33 33 33 35 38 41 42 44 46 48 49 51 53 55 56 53 49 47 45 42 38 38 37 35 35 37
11 11 11 12 12 12 12 13 15 18 19 21 23 25 27 29 30 30 32 35 37 40 42 44 44 45 47 49 52 53 52 49 48 46 44 42 39 38 36 33 32 34 31
11 12 12 12 11 12 13 14 16 17 19 21 24 26 28 28 28 30 32 35 39 42 44 45 46 47 48 51 52 51 48 46 46 43 40 38 37 36 31 30 32 31 30
11 10 10 10 11 11 13 14 15 17 20 23 24 25 25 26 28 31 35 38 40 42 44 46 47 49 50 52 52 50 47 46 44 42 38 37 36 32 30 28 26 27 28
9 9 9 9 10 11 12 14 16 19 21 22 22 23 24 26 30 33 36 39 41 44 46 47 49 52 52 52 49 46 45 44 41 40 37 35 31 28 26 23 23 24 26
8 8 9 9 9 10 13 15 17 18 19 19 20 22 25 29 32 34 36 39 41 42 44 46 49 50 49 46 43 42 42 39 38 36 35 33 29 28 24 23 21 23 27

GFSMW_700_spd_030.txt.gz
Wind_Speed
49 47 41 36 32 29 27 26 24 21 25 29 31 30 29 27 24 21 21 18 19 17 16 16 18 19 22 25 27 29 29 29 29 28 27 29 30 30 30 31 31 33 33
44 45 40 35 29 25 27 26 23 20 21 24 24 25 25 26 24 21 20 19 18 17 16 17 18 21 24 27 28 29 31 30 30 30 31 32 32 32 31 31 34 33 34
43 38 36 32 28 26 26 24 21 19 20 21 23 25 26 25 24 21 19 17 15 15 16 17 20 23 26 28 29 30 31 31 32 33 35 38 39 41 37 33 31 34 34
41 40 38 35 31 27 23 20 19 18 18 20 20 21 21 22 20 20 16 14 14 14 16 18 21 24 27 29 31 32 32 33 34 36 37 39 42 44 47 41 37 39 40
36 39 39 36 32 29 24 19 17 17 18 18 19 20 21 21 19 17 16 13 13 14 16 19 22 26 29 31 33 34 35 36 37 39 39 38 39 41 46 49 44 40 41
31 37 40 38 33 33 29 23 19 17 18 19 20 20 20 19 17 15 13 13 13 15 17 21 25 28 31 33 35 37 37 38 39 40 41 42 43 43 46 51 51 54 51
30 39 43 41 37 34 30 23 20 17 19 20 19 19 19 19 18 17 15 13 14 16 20 23 27 31 33 36 38 39 39 40 41 41 40 42 43 45 47 51 54 58 60
31 33 40 43 40 36 30 24 21 20 20 20 20 20 21 21 19 17 15 15 16 19 23 26 30 33 36 38 41 40 41 41 42 42 42 43 45 46 49 52 57 63 64
20 28 36 38 40 36 31 26 23 22 21 22 22 21 21 21 19 17 17 18 20 23 26 29 33 36 38 40 42 42 42 42 43 43 43 45 46 48 50 52 54 59 69
25 25 33 34 37 34 29 27 25 24 24 25 24 23 23 22 20 19 19 21 23 26 29 32 36 38 40 43 43 43 44 43 43 44 45 46 49 50 51 54 55 57 61
26 21 21 28 35 30 30 27 25 25 26 26 25 24 24 23 22 22 22 25 26 29 32 35 38 40 43 44 44 44 43 43 44 45 47 48 51 52 53 55 57 59 62
25 22 25 27 35 32 30 27 26 26 27 27 26 25 25 25 24 24 26 27 29 31 35 38 39 42 44 45 45 43 43 44 45 47 49 51 53 54 55 58 60 63 64
18 21 25 33 35 34 32 27 26 27 28 29 27 27 27 26 25 26 27 29 31 34 37 39 42 44 44 44 44 44 44 46 47 49 51 53 54 56 58 61 63 63 62
20 20 25 30 30 30 29 25 25 27 29 28 28 28 27 26 27 28 29 31 34 36 39 42 43 43 43 43 43 45 46 47 48 50 51 53 55 58 61 63 62 59 57
20 21 19 23 26 26 24 24 25 27 28 28 27 27 27 28 28 29 31 33 35 38 41 42 43 43 43 43 44 46 48 49 50 50 52 55 58 60 60 58 56 54 51
18 19 19 19 20 20 20 22 25 26 26 26 26 27 27 28 29 30 32 34 36 40 41 42 42 42 42 44 45 47 49 49 51 52 55 57 59 58 55 51 49 46 43
13 16 16 15 15 15 18 21 23 24 24 25 26 27 27 28 30 31 33 34 37 39 40 41 41 41 43 45 46 48 49 51 52 55 57 58 55 52 50 47 45 41 38
17 16 15 14 15 17 19 21 21 22 22 24 25 26 27 28 28 30 32 35 37 38 39 40 40 42 44 46 47 48 50 52 54 56 56 53 51 47 46 45 43 41 38
17 15 13 14 16 18 19 19 19 20 21 22 23 24 24 25 27 30 32 35 36 37 38 39 41 43 44 46 47 50 52 54 55 55 51 48 47 45 43 42 42 41 34
19 16 16 16 17 18 17 17 17 17 18 19 19 20 22 24 27 30 32 34 35 36 37 39 42 44 46 47 49 51 54 56 56 53 47 44 43 42 39 40 41 38 34
17 17 15 13 12 13 13 14 14 15 14 15 17 20 22 25 28 30 32 33 33 36 38 40 42 44 46 48 50 52 54 55 54 48 44 42 41 39 38 37 35 34 33
10 10 10 11 12 12 12 11 11 11 13 15 18 21 24 26 28 30 30 32 35 37 40 41 42 43 45 48 50 52 52 51 47 44 43 40 39 37 37 32 31 30 29
9 10 10 10 10 10 9 9 10 12 14 17 20 22 24 26 27 28 30 33 36 39 41 43 44 45 46 49 51 51 49 45 43 43 39 38 37 36 31 29 29 28 29
11 9 9 9 9 8 8 9 11 14 16 19 21 22 24 25 26 28 31 34 37 39 42 44 46 48 50 51 52 50 46 44 44 42 38 36 35 32 29 27 24 26 27
10 10 9 8 7 7 8 10 12 15 17 19 21 22 23 24 27 30 32 35 38 41 44 46 49 52 53 52 50 47 45 44 42 39 37 34 32 28 25 22 22 24 26
9 7 6 6 6 7 9 11 14 16 18 19 20 21 23 25 28 30 32 36 38 40 43 47 50 51 50 48 45 43 42 40 38 36 35 33 30 27 24 23 22 24 27

GFSMW_700_spd_033.txt.gz
Wind_Speed
42 49 49 48 45 41 36 34 29 28 29 31 34 33 31 29 28 25 24 21 20 16 21 14 14 15 16 18 20 23 25 25 26 25 26 26 27 27 27 28 30 31 32
39 44 48 50 47 43 37 35 27 27 28 28 27 27 27 28 27 26 22 18 25 18 22 16 15 15 16 19 22 25 26 27 28 28 28 28 29 29 29 30 31 32 33
42 42 43 47 46 43 35 31 28 27 28 26 26 25 26 28 27 25 22 17 24 19 18 15 15 15 18 21 24 26 28 30 30 30 31 33 34 35 32 31 32 32 33
37 38 42 44 43 41 34 32 30 27 27 24 24 23 22 23 25 22 21 19 19 18 15 14 15 17 19 23 26 28 30 32 33 33 33 34 37 39 41 38 38 39 38
29 31 35 42 38 37 33 33 29 26 24 22 22 21 21 23 23 23 22 24 18 15 13 14 16 18 22 25 28 31 33 34 35 35 36 37 38 40 43 45 40 39 39
24 26 28 37 40 39 36 35 29 23 21 20 21 20 20 23 22 25 20 21 17 14 14 15 17 21 24 27 30 33 36 37 38 38 38 39 40 42 45 48 47 47 43
22 24 28 35 40 42 38 36 31 23 20 19 21 22 22 22 21 24 18 18 15 14 15 17 20 23 26 30 33 36 38 39 39 39 40 41 41 42 43 46 49 53 54
17 20 28 31 38 41 38 37 32 24 21 19 21 23 24 22 24 23 22 18 16 16 17 19 22 25 29 32 36 38 40 41 41 41 41 41 42 43 45 47 51 55 57
20 21 27 29 38 41 37 33 32 27 23 20 22 23 23 26 27 24 21 19 18 18 20 22 25 28 32 35 38 40 41 42 42 42 41 41 43 44 46 49 52 56 64
22 22 23 24 33 43 39 35 32 28 25 22 22 23 24 28 24 23 22 20 19 21 23 25 28 31 35 38 40 42 43 42 42 42 42 43 45 46 48 50 53 55 58
21 25 28 24 30 37 40 37 34 31 27 24 22 25 25 25 24 23 22 21 22 23 25 28 31 34 37 40 42 44 44 43 42 43 44 45 47 48 49 51 53 56 59
20 29 26 24 29 34 36 37 32 30 27 24 24 26 26 25 24 24 23 23 24 26 28 30 34 37 40 42 44 44 43 43 43 43 45 46 48 49 50 53 55 58 59
17 26 28 27 28 35 37 34 32 28 27 25 25 27 27 26 25 24 24 25 26 28 30 33 36 39 41 44 45 44 43 43 44 45 47 48 50 51 53 55 58 59 58
16 27 30 29 29 37 36 32 31 26 26 24 26 27 26 25 24 24 26 27 28 30 32 35 37 40 43 44 44 43 43 44 45 46 48 50 51 53 55 57 59 58 56
16 23 25 31 34 37 34 31 26 24 25 25 27 26 25 25 25 26 26 27 30 32 34 36 39 42 43 43 42 43 44 45 46 47 48 49 51 53 56 56 55 52 49
18 21 24 29 32 31 28 26 23 24 25 24 25 24 24 25 26 26 27 29 31 33 34 37 40 41 41 41 42 44 46 47 48 49 49 51 53 55 54 52 48 46 44
22 26 27 28 27 24 21 21 21 22 22 23 22 22 24 24 25 27 28 30 31 33 36 38 39 39 40 41 43 45 47 48 49 50 51 53 55 54 51 47 45 42 36
26 27 26 25 22 20 20 20 21 21 20 20 20 21 23 24 25 27 28 29 31 35 36 37 37 38 41 42 44 46 47 48 49 51 52 54 52 49 47 45 43 38 35
24 23 22 20 18 18 19 19 19 19 18 18 20 22 23 23 24 24 27 29 32 34 35 36 37 39 41 44 45 47 48 50 52 52 51 50 48 45 43 41 40 37 32
22 20 19 18 17 17 17 17 16 15 16 18 19 19 19 20 22 24 27 29 31 32 33 35 38 41 43 45 45 48 51 53 54 52 49 45 43 41 38 38 38 36 31
20 19 16 14 15 16 15 15 15 15 14 14 15 16 17 20 22 25 27 28 30 32 33 36 39 42 45 46 47 49 52 54 54 50 44 41 40 37 36 35 34 32 31
15 16 15 15 15 14 13 12 11 11 12 12 13 15 18 20 22 24 27 28 30 32 35 38 39 41 43 46 48 51 52 51 49 44 41 40 38 36 33 33 30 29 27
11 12 13 11 12 12 11 9 9 9 10 12 14 17 18 20 23 24 26 28 31 34 37 39 41 41 43 47 50 51 49 45 43 43 40 36 35 33 31 29 28 26 27
10 9 9 9 8 8 9 8 8 9 11 13 15 17 19 21 21 23 26 30 33 36 38 40 42 45 48 50 50 49 46 45 44 42 38 36 34 32 29 26 25 26 27
9 9 9 9 8 7 7 7 9 10 11 13 15 17 18 20 22 25 28 31 35 37 40 42 46 50 51 50 49 48 47 45 43 41 37 34 30 27 24 21 22 23 26
9 9 9 8 7 7 8 8 8 10 12 13 15 16 18 21 24 26 30 33 35 38 41 44 48 48 47 47 47 46 43 41 40 37 34 29 28 25 22 22 21 24 26

GFSMW_700_spd_036.txt.gz
Wind_Speed
41 44 54 55 55 52 48 44 40 36 32 32 33 35 34 33 33 33 31 27 25 21 18 21 18 14 13 15 16 18 19 21 24 25 27 26 26 26 27 27 29 30 31
41 41 43 53 55 55 53 49 43 40 34 32 33 34 36 35 34 34 32 29 22 21 23 20 19 15 15 16 17 19 20 23 25 27 28 28 28 28 29 30 31 33 34
41 40 40 47 53 56 54 50 45 40 35 33 33 32 32 32 33 34 32 28 22 21 26 25 20 15 15 16 18 20 23 25 26 28 30 32 33 32 31 32 33 34 35
29 33 37 43 49 53 52 49 46 42 35 33 33 31 30 30 32 33 29 26 24 16 19 22 19 16 16 17 19 21 24 26 28 30 31 32 34 36 37 36 38 38 37
23 27 31 37 44 46 47 47 45 40 34 34 33 31 30 31 29 29 29 28 26 23 21 19 17 16 17 19 20 23 26 28 31 33 34 35 36 37 40 40 38 41 41
23 22 27 35 40 46 45 43 41 37 35 35 33 32 29 26 27 30 27 23 24 25 21 18 17 18 19 21 23 26 29 31 34 36 37 38 38 40 42 45 45 44 40
21 19 26 31 37 44 46 42 39 37 36 34 32 29 27 25 26 29 24 29 21 24 20 20 18 19 21 23 26 29 32 34 37 39 40 40 40 41 43 45 47 47 46
24 20 23 27 34 39 44 43 39 37 35 32 30 27 27 27 29 24 26 27 24 20 21 19 20 22 24 26 29 32 35 37 40 41 41 42 42 42 43 45 47 50 51
21 26 24 25 32 36 42 43 39 37 36 32 27 26 25 25 25 22 26 27 24 22 20 21 22 24 26 29 32 35 37 40 42 43 43 43 44 43 44 45 48 52 57
15 22 27 26 31 33 39 43 40 37 36 32 28 24 24 26 23 28 27 24 23 22 22 23 24 26 29 32 35 37 40 43 44 44 44 44 44 44 45 48 50 52 56
17 18 26 28 30 31 39 42 40 38 35 32 27 24 24 24 28 28 30 26 24 24 24 25 26 29 31 34 37 40 43 44 45 45 44 44 45 46 48 50 52 54 56
18 19 28 29 30 32 39 44 40 37 34 31 27 25 23 25 25 31 27 25 25 25 26 27 28 31 34 37 39 42 44 44 45 45 45 45 46 47 49 51 53 55 57
18 17 30 31 33 32 39 45 42 37 34 30 27 25 22 27 28 27 25 25 25 26 27 29 31 34 37 39 41 43 45 44 44 45 45 46 48 49 51 53 55 56 57
19 17 29 34 33 33 38 43 41 38 33 29 26 23 23 27 26 26 25 25 26 27 29 31 34 36 38 40 43 44 44 44 44 44 46 47 49 51 53 54 55 56 56
19 19 28 33 32 34 38 39 39 35 29 26 23 22 24 24 25 25 25 25 26 28 31 33 35 37 38 41 43 44 44 44 44 45 47 49 50 51 53 54 54 54 52
14 21 31 35 31 31 36 37 34 29 25 22 24 22 22 23 24 24 24 25 27 30 32 34 36 37 40 41 42 42 43 44 46 47 48 50 52 52 52 52 50 48 46
18 26 32 35 33 30 33 31 28 24 22 26 22 22 23 25 23 23 24 26 28 31 33 34 36 38 39 39 41 42 44 46 47 48 49 51 52 53 52 49 46 45 42
22 24 27 30 30 30 28 25 24 22 22 22 23 23 22 21 22 23 24 26 29 30 32 34 35 37 37 38 41 43 45 46 47 49 50 52 51 49 47 46 46 44 41
28 31 33 32 30 27 25 22 21 23 21 21 19 19 20 21 22 23 24 26 27 30 32 33 34 35 37 40 42 44 46 48 50 51 50 49 48 46 45 45 43 42 38
30 30 31 29 26 25 22 20 19 19 18 18 18 19 20 20 20 21 23 25 27 29 31 32 33 36 38 41 43 44 47 50 52 50 48 46 46 44 41 40 40 40 35
25 25 23 21 20 18 19 18 17 17 17 17 17 17 17 17 18 20 22 25 27 28 29 32 35 38 40 42 44 46 49 50 51 49 48 45 42 40 38 38 36 36 34
19 19 17 17 17 16 16 17 16 15 14 14 14 14 13 15 18 20 23 24 26 28 30 33 35 38 40 43 46 48 47 48 49 47 44 41 39 37 36 35 33 31 29
17 18 16 15 16 16 15 12 11 11 11 10 11 12 13 16 18 21 23 24 26 29 32 34 36 37 41 44 46 46 46 46 46 43 41 38 36 34 31 30 28 27 27
14 15 16 14 13 14 14 14 11 10 9 8 10 12 15 17 19 21 23 25 28 31 34 36 38 41 43 45 46 47 47 46 44 42 39 36 33 29 27 25 24 26 27
14 14 13 12 10 9 9 8 7 6 7 9 11 14 16 17 19 21 24 27 30 33 35 38 41 44 46 47 48 48 45 44 42 40 36 31 26 24 23 22 24 26 28
12 12 12 10 8 7 5 4 5 6 9 11 13 14 15 17 20 23 26 29 32 35 39 41 43 44 44 46 46 45 41 40 38 34 30 25 24 22 22 23 23 25 24

GFSMW_700_spd_039.txt.gz
Wind_Speed
34 37 41 52 59 58 54 51 49 45 40 37 35 34 34 36 36 36 33 33 32 30 25 22 22 21 16 17 16 16 17 18 19 21 24 24 25 26 26 27 28 30 31
38 37 39 44 49 58 60 58 54 51 47 43 38 35 39 37 36 36 32 35 32 30 27 24 21 22 19 19 17 16 17 18 20 22 24 26 29 26 28 29 30 31 33
38 38 39 42 44 49 58 61 59 56 52 48 43 42 39 36 35 34 35 35 33 30 28 27 23 23 23 20 17 17 18 19 20 23 26 30 31 32 32 32 32 33 34
30 32 42 41 42 43 48 58 61 62 56 52 48 45 38 34 33 32 32 33 30 32 27 23 22 27 21 19 18 18 19 21 23 25 28 31 33 36 36 36 37 38 39
23 25 32 34 40 43 47 54 58 60 57 54 51 43 39 37 34 32 31 32 33 31 28 23 23 22 21 20 20 20 21 23 26 29 31 34 36 38 39 37 37 40 41
16 19 29 32 37 44 47 52 53 52 55 55 48 41 41 37 33 32 31 31 33 31 27 26 28 23 21 21 21 22 23 26 29 32 34 37 39 41 43 44 42 44 41
24 21 22 30 34 38 46 53 49 49 51 48 44 39 41 34 32 32 28 30 32 29 25 23 25 25 22 22 22 24 26 29 32 35 37 40 41 42 43 45 46 47 43
27 37 28 29 33 36 40 47 47 47 45 44 41 43 38 33 32 31 31 30 28 28 29 27 26 24 23 23 25 27 30 32 35 38 40 43 44 43 44 45 48 49 47
19 24 31 30 30 32 37 40 43 46 42 40 42 40 33 32 30 31 32 30 27 27 26 23 24 24 24 25 27 30 33 36 38 41 43 45 45 44 45 45 46 49 53
15 21 21 26 31 28 31 35 40 45 42 41 40 35 31 29 29 30 30 24 25 25 26 26 24 24 26 28 30 33 36 39 41 43 46 46 45 46 46 46 47 49 53
19 21 23 28 29 29 30 35 40 45 45 41 36 32 29 27 26 27 25 23 28 27 29 24 25 26 28 30 33 36 39 41 43 45 47 45 46 46 46 47 49 51 52
20 28 21 24 27 29 31 35 41 45 44 38 34 31 28 26 25 29 24 30 25 28 29 26 26 28 30 32 35 39 41 42 44 47 46 46 47 47 48 49 51 52 55
23 24 22 20 25 29 32 35 40 44 40 34 33 30 26 24 26 23 26 27 31 25 27 26 28 30 32 35 38 40 42 44 46 45 46 46 47 48 49 50 53 55 56
28 27 22 18 26 30 33 33 39 40 36 33 31 28 24 24 23 26 27 24 26 27 26 27 30 32 34 37 39 41 43 45 44 45 45 46 47 48 50 52 54 55 56
26 24 21 16 27 32 31 31 36 38 34 32 29 26 24 22 18 28 26 26 25 25 25 30 31 34 36 38 40 42 43 44 44 44 46 47 48 50 52 53 53 53 53
25 20 17 18 29 31 28 29 34 35 33 31 27 24 22 21 26 24 24 22 23 28 29 31 32 35 37 38 40 41 42 43 44 45 46 47 49 52 53 52 52 50 50
19 15 17 20 26 29 28 30 33 34 30 25 22 23 25 23 22 20 21 24 27 27 29 30 34 35 36 37 39 40 41 43 45 45 47 49 50 50 51 51 50 48 45
16 17 19 23 26 27 28 28 27 27 25 25 21 27 24 22 17 20 20 22 25 27 30 32 32 33 35 36 38 40 42 43 45 47 48 49 50 48 49 49 47 45 43
14 16 19 23 26 27 28 29 26 26 26 26 26 25 14 14 15 19 21 23 26 28 29 29 30 32 35 36 39 41 42 44 47 49 49 48 49 48 47 46 44 42 39
18 23 27 29 30 29 27 25 26 25 23 22 11 11 13 15 17 19 21 24 25 26 27 28 30 32 34 37 38 41 44 46 48 47 47 47 47 46 44 42 41 39 37
28 29 29 29 25 23 21 19 17 14 11 11 11 12 14 16 18 19 20 22 23 25 27 28 31 33 36 38 40 43 46 47 48 48 47 45 43 42 40 38 36 34 34
20 19 19 18 17 15 13 12 12 12 12 12 13 13 14 15 16 17 19 21 24 25 26 28 31 35 38 41 43 43 45 46 48 47 46 42 40 38 34 32 30 30 29
19 19 17 17 16 16 14 11 11 11 10 10 10 11 11 14 16 18 20 21 23 25 28 30 33 35 38 41 44 44 44 45 46 44 41 39 36 32 27 27 28 27 27
11 12 12 10 12 13 12 11 8 7 8 9 9 10 13 14 17 18 19 21 24 27 30 32 34 37 40 43 44 45 45 45 44 41 37 33 28 25 26 24 24 25 27
9 10 11 10 8 9 10 9 10 8 6 7 9 11 13 15 16 18 21 24 26 29 31 34 37 41 42 43 45 46 45 43 41 38 31 26 23 22 22 23 25 26 27
9 9 11 9 8 7 7 5 5 5 6 8 10 12 13 15 17 20 22 25 28 32 35 38 40 41 44 45 45 43 40 38 35 30 25 23 23 23 23 23 23 25 26

GFSMW_700_spd_042.txt.gz
Wind_Speed
31 33 35 38 46 51 47 44 51 53 48 42 40 39 35 35 35 33 32 31 26 29 28 29 27 25 23 21 20 19 19 18 17 17 19 18 19 20 23 25 27 28 28
32 31 34 36 38 45 55 52 48 52 55 50 45 40 39 38 35 34 33 31 28 29 27 30 27 26 25 21 21 20 19 18 18 18 19 21 22 23 25 27 30 31 32
30 33 37 38 40 40 45 59 59 57 54 54 50 46 45 42 38 36 32 31 28 29 29 29 28 26 24 24 23 23 20 18 19 19 21 24 25 27 29 31 32 33 34
28 31 33 37 42 41 42 43 57 63 56 56 56 52 50 47 41 37 33 30 28 29 30 29 29 26 24 25 25 22 22 20 20 20 23 25 28 31 32 34 36 36 37
25 26 23 28 34 42 40 41 42 49 54 56 61 57 53 50 44 40 36 33 29 29 31 30 29 28 26 25 25 23 23 22 21 23 25 28 31 34 37 38 37 38 38
25 25 33 35 32 36 44 46 44 42 48 52 59 60 55 51 47 42 37 33 30 30 33 32 31 31 27 28 24 24 22 23 24 26 29 32 35 39 42 45 44 43 39
20 22 28 29 25 30 36 40 48 45 46 53 55 55 56 54 48 42 37 33 32 31 31 32 32 29 26 26 25 25 24 25 26 29 32 35 38 41 44 47 47 47 43
34 35 34 35 32 33 33 36 47 48 48 52 48 44 51 50 48 42 37 34 32 30 30 32 29 27 27 28 27 26 25 26 29 31 35 38 41 43 46 48 49 49 48
25 25 28 34 32 30 34 32 36 49 52 49 40 45 47 41 39 37 36 32 29 29 31 29 26 29 29 29 26 26 26 29 31 35 38 41 43 45 47 47 48 50 52
23 27 33 35 22 22 24 31 31 32 43 42 43 46 41 37 37 35 33 30 29 31 30 28 27 28 27 26 27 27 28 32 35 38 41 43 45 47 47 47 46 47 50
22 27 32 29 26 25 20 27 27 29 36 39 45 40 36 35 33 32 30 28 29 27 28 26 31 25 27 27 27 28 31 35 39 42 43 45 47 47 47 46 46 47 49
21 19 29 26 25 22 20 24 26 27 35 40 41 34 32 31 31 29 29 28 27 27 29 31 26 28 26 26 28 30 34 38 41 43 45 46 47 47 47 47 47 48 50
27 23 28 24 21 21 19 22 24 31 34 34 33 33 31 31 30 29 25 29 25 26 28 25 26 26 26 26 29 34 37 41 43 45 46 46 46 46 46 47 49 50 52
41 33 27 22 22 21 19 25 27 34 26 29 31 31 29 29 28 25 22 25 24 33 34 25 25 23 23 28 35 37 39 44 44 45 45 45 45 46 48 49 51 52 53
12 22 26 24 20 20 26 25 24 24 22 28 30 28 28 27 24 22 25 26 27 28 24 23 23 23 32 33 36 39 43 43 43 43 43 43 45 47 50 52 53 54 54
18 24 25 18 19 24 24 17 20 21 26 28 27 28 28 24 24 24 26 26 34 24 21 24 27 31 31 36 39 40 40 41 42 41 42 44 45 47 49 50 52 52 51
21 22 21 19 21 19 18 19 18 22 26 27 26 24 25 25 23 23 30 24 13 18 22 25 27 29 33 37 37 38 39 39 40 42 43 44 46 47 49 50 51 47 44
21 15 15 16 16 19 20 21 21 24 25 26 24 25 23 24 32 34 23 13 16 20 23 25 28 32 32 33 35 36 37 39 41 43 44 46 48 50 51 51 50 46 41
10 12 12 13 18 20 22 23 22 28 24 23 22 28 33 32 30 16 8 12 15 18 24 27 27 29 31 32 34 36 39 40 42 43 45 47 49 49 49 48 46 43 37
6 7 12 17 19 21 25 30 27 24 31 23 26 27 24 11 5 6 8 13 19 22 22 25 26 29 31 33 35 37 39 42 44 44 45 45 46 46 44 43 42 38 32
11 12 18 20 20 25 28 29 24 27 25 16 10 8 4 2 3 9 12 14 17 21 22 25 27 29 32 34 36 38 41 44 46 46 46 45 44 42 39 35 32 30 29
15 19 16 18 17 15 18 14 14 12 8 6 5 3 1 4 6 9 13 17 19 21 23 25 28 31 33 36 39 41 43 46 48 47 45 43 40 36 30 27 26 26 26
18 18 16 15 19 18 16 10 9 8 7 6 3 3 6 7 10 13 16 18 20 22 24 26 28 31 34 38 40 42 44 45 44 43 41 38 33 27 23 24 25 26 27
14 14 12 11 10 10 10 10 9 8 6 4 4 5 8 10 13 16 17 18 21 23 25 28 31 33 36 40 42 43 42 41 40 38 34 29 24 23 23 24 25 26 27
9 9 10 9 7 8 6 4 2 1 1 3 6 8 11 13 14 15 17 19 22 25 27 30 33 37 40 41 42 42 41 40 39 35 27 21 20 20 21 22 24 26 27
5 6 7 7 6 5 4 2 2 1 4 6 8 10 11 12 14 16 19 22 25 28 30 34 37 40 43 43 41 39 38 37 33 26 20 19 19 21 22 22 22 25 27

GFSMW_700_spd_045.txt.gz
Wind_Speed
25 27 30 34 39 43 46 45 42 42 42 46 45 40 38 37 34 34 31 26 25 21 27 27 25 23 23 22 23 23 22 22 21 20 18 17 17 17 18 19 21 22 24
28 30 32 34 35 37 41 48 46 43 45 45 48 46 41 40 36 35 33 28 25 23 25 25 26 24 24 23 22 23 22 22 22 21 20 18 17 19 20 22 24 26 27
24 27 30 34 36 39 40 43 49 46 44 47 47 51 48 42 40 39 36 30 27 24 25 26 27 25 25 23 23 23 23 24 23 22 22 21 21 22 23 25 27 29 31
22 24 27 30 36 43 42 42 50 54 49 44 47 52 54 49 46 43 39 34 29 27 26 27 28 28 26 25 24 24 24 26 24 24 22 22 23 25 27 28 30 33 35
11 16 17 21 25 31 40 45 44 53 58 55 50 48 54 51 47 44 41 39 34 32 29 29 30 30 27 27 27 25 25 25 27 25 24 24 26 28 30 30 33 35 38
18 23 24 26 28 28 26 35 43 45 50 63 61 56 53 57 52 48 44 42 37 36 33 31 32 33 30 29 27 30 30 27 26 26 26 27 29 31 34 36 37 39 39
24 27 28 28 29 31 31 31 34 46 44 43 58 61 56 60 56 47 44 42 37 37 35 33 31 33 33 32 31 28 28 27 27 27 28 29 32 34 38 41 43 45 44
22 26 30 35 38 40 35 32 30 34 46 48 47 50 56 54 51 45 44 43 39 38 37 33 32 31 33 31 29 28 30 29 29 29 30 32 35 38 41 44 47 50 49
26 23 32 36 42 44 42 37 36 32 33 47 49 46 47 48 46 41 41 39 39 40 38 35 33 32 33 31 32 30 31 29 29 29 31 35 38 41 43 46 49 52 54
24 30 36 41 36 41 40 30 24 31 31 39 46 48 47 44 41 37 33 36 37 37 36 34 33 28 32 30 28 31 31 30 30 31 34 37 40 43 47 49 50 50 52
29 26 33 38 39 39 30 27 23 23 27 34 40 44 44 39 34 33 32 34 33 34 34 33 29 30 31 31 28 30 29 30 31 33 36 40 43 45 49 49 48 48 50
24 32 35 36 37 38 33 26 21 24 27 30 34 41 42 38 31 31 31 31 32 32 32 29 36 36 32 35 30 27 29 30 33 36 40 42 47 48 49 49 48 48 49
26 33 32 33 28 32 25 23 22 25 24 25 32 33 31 30 28 27 28 29 31 29 29 27 31 32 35 27 23 25 26 32 38 39 43 46 48 47 48 48 48 49 50
18 31 36 34 30 28 19 21 21 23 21 22 18 25 24 26 25 25 26 28 30 27 30 29 33 35 31 19 21 26 32 37 38 43 44 46 46 46 47 48 49 51 52
14 19 31 35 37 27 19 20 17 17 21 22 22 22 24 25 25 25 25 28 27 31 28 34 34 29 18 18 25 32 35 37 41 42 42 43 44 46 47 49 51 53 54
17 14 16 13 17 19 17 16 19 22 18 21 20 23 25 25 25 28 27 28 34 28 31 38 27 20 22 26 31 33 36 39 39 39 41 42 44 45 47 49 51 54 53
16 14 15 16 19 19 14 19 19 23 22 20 24 26 28 27 28 28 29 31 25 32 29 21 14 23 24 28 32 34 36 36 37 39 40 41 44 46 48 51 52 51 48
8 14 15 16 14 14 15 19 21 21 20 22 25 26 24 26 25 26 27 28 26 23 17 14 16 20 25 29 31 33 34 35 37 38 41 44 46 48 50 51 51 49 46
4 6 10 11 11 11 13 15 17 15 17 21 25 30 26 25 29 29 23 14 10 10 9 16 20 23 26 27 30 31 33 35 37 39 42 45 48 48 48 49 47 44 36
6 6 7 10 12 14 17 17 16 18 16 18 25 28 26 21 14 8 6 8 6 10 13 17 21 22 25 28 29 31 33 36 38 41 42 44 46 46 44 44 40 34 28
11 8 7 4 3 8 14 17 19 18 16 12 13 15 11 8 7 4 5 7 7 12 16 18 21 23 25 28 30 33 36 39 41 43 43 43 43 41 38 33 28 28 29
12 10 7 6 3 7 12 11 17 9 14 16 11 9 7 3 2 4 4 7 11 14 17 19 22 25 28 31 33 36 39 43 45 44 43 43 40 34 29 25 25 26 27
21 20 18 21 23 24 23 19 20 17 14 14 11 7 5 2 1 3 6 9 11 14 17 21 24 27 30 33 36 38 41 42 43 42 41 38 33 26 21 23 25 26 27
17 18 16 16 19 21 21 20 17 14 11 10 8 4 1 4 6 7 9 12 16 18 21 24 27 29 33 36 39 40 40 40 39 38 34 30 23 20 20 21 23 26 28
12 16 17 17 16 18 17 15 11 11 10 7 6 6 6 7 9 12 14 17 19 21 24 27 31 34 37 39 41 41 41 41 38 33 28 21 17 17 18 20 22 25 27
9 10 12 12 10 12 10 9 9 9 8 7 7 8 10 11 13 15 17 19 22 25 28 32 35 38 40 40 40 39 38 37 33 27 20 15 15 16 17 18 20 24 26

GFSMW_700_spd_048.txt.gz
Wind_Speed
21 31 39 48 53 53 54 52 45 44 46 44 40 41 38 37 36 34 31 29 25 23 21 22 23 24 22 21 20 19 19 20 21 22 23 22 20 20 19 19 18 19 21
28 29 32 35 41 45 50 51 50 51 46 46 45 40 42 41 39 36 35 32 29 26 21 22 22 23 24 22 21 21 20 20 20 22 24 24 22 21 21 22 21 22 24
27 29 32 34 35 37 38 40 45 52 51 48 44 44 45 44 43 40 37 37 33 27 25 23 22 23 24 25 23 23 22 21 22 23 25 26 25 24 23 24 24 26 28
18 20 24 29 36 39 40 42 42 43 56 54 51 48 48 49 46 42 39 38 37 32 28 24 23 23 25 28 28 25 24 23 24 25 24 26 28 26 26 26 28 30 31
13 12 12 16 21 28 33 40 45 45 47 53 56 53 49 48 45 45 43 40 41 36 33 29 27 24 26 30 32 28 27 26 24 27 29 30 30 28 28 29 30 32 34
17 20 20 20 21 23 26 30 34 47 48 53 54 54 52 49 43 43 44 42 39 38 37 33 29 28 29 32 33 32 31 28 30 29 31 31 31 31 31 32 32 34 35
13 19 23 23 27 29 29 27 25 27 39 51 55 61 58 51 48 43 41 43 42 41 40 36 32 29 30 34 33 36 34 31 33 29 31 32 34 34 34 36 38 40 40
18 20 25 25 27 31 32 34 34 30 28 33 44 53 60 56 49 50 45 42 42 44 43 37 33 31 33 35 36 38 36 40 31 29 34 34 35 36 37 39 41 45 46
23 24 25 27 30 31 32 34 35 36 33 37 39 45 51 49 48 49 48 46 43 40 40 37 35 33 37 38 38 36 38 28 37 30 37 32 35 37 39 41 44 48 54
23 25 30 30 34 38 41 41 38 36 34 36 35 40 44 45 41 41 43 45 42 41 38 38 36 38 40 38 36 38 43 31 33 33 36 35 36 38 40 43 47 51 55
42 41 46 45 47 46 40 35 34 37 32 27 29 33 36 40 40 40 38 38 40 40 37 36 38 40 38 31 38 42 40 33 31 33 36 34 36 41 44 47 52 54 54
32 31 29 25 34 37 37 37 35 34 29 25 26 28 30 34 36 37 36 36 34 32 32 35 36 37 32 36 38 41 40 28 34 40 36 36 38 44 48 50 53 52 51
31 31 26 32 30 29 36 38 33 26 22 23 24 25 25 30 33 35 35 33 31 31 33 34 32 32 35 36 40 35 35 36 33 33 34 37 44 45 47 48 49 50 50
27 19 21 25 35 33 29 29 27 22 19 22 19 22 24 29 34 37 35 31 31 31 32 28 32 32 37 41 37 35 36 34 32 32 37 40 42 43 44 46 48 49 51
20 13 16 18 21 29 34 34 35 21 18 19 17 20 18 23 23 28 28 29 29 29 28 30 33 34 40 28 32 33 31 27 29 34 38 40 40 42 44 46 48 50 52
18 9 12 11 11 13 13 16 22 17 14 13 15 16 24 23 22 24 22 27 27 29 34 31 38 31 30 28 26 26 25 27 31 36 37 38 40 43 45 47 49 52 54
13 7 7 10 12 13 10 7 7 6 10 12 14 20 19 20 20 19 25 30 30 31 29 32 25 25 21 22 23 24 26 32 33 34 36 38 41 44 46 48 51 52 51
8 6 7 7 7 6 5 5 9 9 14 18 16 18 18 19 24 27 28 35 31 29 26 21 17 16 18 20 23 25 29 32 33 35 38 40 42 44 47 50 52 51 46
6 5 6 9 11 8 5 4 7 10 16 12 12 15 20 19 24 30 26 17 17 12 10 10 13 17 18 21 24 26 28 32 33 36 39 42 44 46 49 49 49 46 40
2 1 4 5 7 7 6 6 7 10 10 8 11 15 16 16 15 10 9 7 5 6 10 13 15 18 20 22 24 26 30 32 34 36 40 42 45 46 46 46 45 39 31
11 10 8 7 5 2 5 7 4 3 6 2 3 9 6 9 10 9 8 7 7 7 9 13 16 18 20 23 27 29 32 34 36 39 41 42 43 44 43 40 35 29 27
10 6 5 3 2 5 6 9 5 9 12 13 15 15 15 12 7 5 2 3 6 9 13 16 18 21 24 27 29 32 36 39 41 42 43 44 44 41 36 30 25 24 24
19 19 19 22 23 21 19 20 20 20 18 18 15 12 9 6 3 1 3 7 9 11 14 17 20 23 26 29 32 36 39 41 43 44 43 43 39 33 26 22 22 22 23
17 18 18 18 20 23 22 20 19 16 15 12 11 8 5 3 4 5 5 7 10 13 16 19 22 26 30 35 38 40 41 42 41 41 38 36 31 24 18 18 20 22 24
15 16 14 13 14 15 15 14 12 12 11 9 7 5 4 4 4 5 7 10 13 16 20 24 29 33 37 40 42 42 41 41 40 36 32 28 22 17 16 17 18 21 23
8 12 11 12 10 12 10 11 11 10 8 7 6 5 4 5 7 11 13 16 18 21 25 30 35 39 41 42 41 41 40 38 35 30 25 18 13 12 12 14 16 20 22

GFSMW_700_spd_051.txt.gz
Wind_Speed
30 36 39 43 53 57 58 53 47 45 45 45 43 41 39 35 33 32 31 28 28 28 26 24 23 22 22 23 25 22 20 19 19 19 20 21 21 22 21 20 20 21 21
28 30 32 36 42 45 50 56 55 49 48 49 46 46 44 42 38 35 34 32 33 32 30 27 24 24 24 25 24 23 22 21 21 20 20 22 23 23 24 24 23 23 23
28 27 32 35 37 40 41 46 53 56 57 54 49 49 48 51 46 43 38 36 35 34 30 30 26 26 26 25 24 25 25 22 23 22 22 23 24 26 26 26 27 26 26
16 17 20 25 35 39 40 40 41 44 47 51 59 59 56 52 49 44 40 35 34 34 33 31 28 29 27 25 25 27 29 27 26 26 24 23 26 27 30 30 31 30 30
10 12 15 19 23 28 36 42 44 44 44 44 47 51 57 56 51 44 42 40 38 37 36 33 34 32 28 25 25 26 32 30 31 29 27 28 28 29 34 33 33 33 33
12 15 18 18 18 19 20 23 32 38 43 48 48 49 49 53 54 52 47 43 41 39 36 33 32 35 34 29 27 26 30 34 36 34 31 35 34 30 32 34 35 35 35
19 18 19 19 18 17 19 22 24 24 25 31 39 53 52 52 49 49 51 47 43 42 39 38 35 34 35 33 31 29 32 35 39 39 37 35 34 36 32 36 39 39 37
19 20 22 23 25 25 24 27 29 29 27 27 26 29 44 54 52 51 46 50 45 42 41 35 39 38 36 37 35 33 36 36 39 40 44 43 43 34 36 44 38 41 41
21 23 27 30 30 31 29 30 31 29 27 28 29 31 35 38 41 47 51 47 47 44 44 41 40 37 39 38 38 38 39 39 40 43 42 39 37 38 37 36 39 42 44
28 30 30 33 35 36 35 36 38 38 35 34 35 37 38 35 39 39 43 44 42 45 47 45 43 38 37 40 41 43 40 42 39 48 46 39 45 38 39 38 40 42 45
39 39 40 37 36 36 42 43 41 40 35 36 33 29 30 31 36 38 34 39 37 39 42 41 39 38 38 40 43 43 42 45 45 48 41 45 44 39 38 42 42 45 50
25 23 26 29 29 28 31 31 30 33 31 32 30 27 27 29 32 33 32 35 38 37 37 36 37 39 41 41 41 40 46 42 45 45 50 42 39 39 38 38 42 46 49
31 31 29 27 22 22 29 33 31 32 28 31 27 26 27 27 27 27 30 34 35 34 33 34 36 37 35 38 37 42 41 47 43 47 36 39 37 34 35 41 43 47 46
31 26 24 16 16 20 19 27 30 32 31 25 23 24 23 23 22 25 27 28 31 33 33 33 34 35 36 37 38 37 40 45 39 34 31 31 34 37 39 43 42 43 45
22 24 13 10 11 12 12 13 20 25 25 26 21 18 18 18 21 23 27 27 31 32 33 34 32 34 34 35 40 40 43 35 29 28 29 32 35 38 39 41 41 44 46
19 14 8 8 11 13 12 13 13 12 13 18 18 17 16 14 14 19 24 26 36 32 31 27 30 33 35 38 37 26 24 24 25 28 32 34 36 36 37 40 43 46 49
15 7 3 5 7 9 12 12 10 7 8 10 14 14 14 19 19 19 16 17 23 29 34 24 31 35 33 20 18 20 21 24 26 30 30 32 35 37 39 42 45 48 49
11 5 3 6 6 10 10 7 4 8 4 5 7 9 17 10 11 16 17 22 26 26 28 24 22 18 16 14 16 21 26 27 28 31 33 34 36 38 41 45 47 48 45
11 8 5 5 4 2 4 3 4 5 6 8 10 7 1 5 13 10 17 12 11 16 11 15 9 9 11 15 19 23 25 26 29 32 35 37 39 42 45 47 47 45 43
7 7 7 6 4 3 2 3 8 9 7 6 6 4 3 2 9 8 4 5 6 6 5 5 8 10 13 16 20 23 25 29 31 34 37 40 43 44 44 45 45 42 36
9 8 7 6 6 3 3 3 3 4 4 11 8 8 8 2 13 10 9 8 5 4 2 6 9 12 15 19 22 25 28 31 34 37 40 42 44 44 43 42 40 35 28
16 14 4 1 4 8 9 7 5 8 15 18 18 18 16 13 11 9 6 2 2 4 6 9 12 15 19 23 27 31 36 40 42 42 43 44 43 41 39 36 31 25 22
15 17 20 17 13 13 16 15 16 18 17 16 15 13 11 9 7 5 4 4 5 7 9 13 17 20 24 28 32 37 41 44 46 46 45 44 41 36 32 26 20 18 18
14 15 15 15 17 19 18 16 14 14 13 12 11 9 8 7 5 4 4 6 9 12 15 17 20 24 30 35 40 43 45 45 45 42 40 36 32 27 20 15 15 16 18
8 10 8 9 10 13 14 12 11 10 10 9 7 7 7 7 7 7 9 10 11 13 17 23 27 32 36 39 42 42 41 38 35 31 29 25 21 16 13 14 15 17 19
6 6 7 7 8 9 9 9 9 7 6 6 6 6 7 7 8 9 10 13 16 20 24 27 32 35 38 39 40 38 35 31 26 24 20 16 10 10 11 13 15 17 18

GFSMW_700_spd_054.txt.gz
Wind_Speed
26 32 38 46 51 53 54 49 47 48 44 42 41 41 37 35 34 31 31 30 29 27 26 25 23 23 25 25 24 25 23 23 23 22 20 19 20 19 20 21 22 22 22
30 32 36 39 43 44 44 52 56 50 48 47 44 47 44 43 39 36 33 33 32 31 30 29 27 27 26 28 27 25 24 25 25 23 21 23 21 20 20 22 23 24 25
28 32 35 34 36 40 41 43 45 49 57 57 53 52 50 50 49 46 40 37 37 34 33 32 32 31 30 29 27 26 25 25 26 25 25 26 24 22 22 23 24 24 26
15 16 19 20 27 35 40 40 40 41 41 43 54 58 56 55 51 49 44 42 41 40 38 35 33 31 32 32 30 28 26 26 29 29 29 29 28 26 27 25 26 28 30
14 15 16 17 19 21 22 30 36 40 40 39 42 49 57 62 63 59 55 51 45 42 37 34 34 32 32 34 33 31 28 26 28 33 27 34 32 29 30 33 30 32 31
10 11 14 16 18 18 19 20 19 18 29 38 42 44 46 45 46 48 50 51 49 45 43 40 38 35 32 35 36 34 34 31 29 30 33 35 36 37 31 39 32 36 34
17 19 19 18 19 19 20 20 20 19 18 20 22 28 32 37 46 46 43 45 43 44 45 39 44 39 30 29 32 35 36 34 32 34 36 36 41 38 38 40 35 39 37
18 19 22 23 24 24 25 26 26 25 25 26 27 28 27 24 26 35 44 43 43 43 44 43 42 37 37 36 35 36 36 38 37 39 40 37 39 42 41 49 39 43 42
22 25 27 29 31 32 33 34 33 34 33 33 31 29 28 27 27 29 32 35 42 44 42 42 41 42 37 41 36 37 38 39 41 42 39 40 38 42 42 43 47 41 46
29 33 36 38 39 40 39 37 39 40 40 39 38 36 35 32 31 30 31 33 35 38 40 44 45 43 44 42 41 39 39 39 42 44 46 42 44 46 46 53 45 48 47
28 34 29 30 32 34 40 41 41 41 42 45 47 43 37 36 34 35 33 33 35 35 37 40 41 45 45 45 42 39 40 41 44 45 46 42 45 47 50 58 51 47 41
29 31 32 30 27 29 29 28 27 28 32 31 27 30 34 36 34 33 33 32 33 34 35 38 41 41 41 42 40 40 41 41 44 41 43 44 44 48 47 51 37 36 38
30 27 28 22 19 18 19 22 24 25 28 28 29 28 27 30 30 33 31 29 29 31 32 36 37 35 34 35 36 40 44 42 36 39 44 45 46 45 38 36 35 37 40
25 24 24 15 11 13 14 14 16 19 23 32 34 32 27 22 23 27 26 22 24 27 31 33 32 32 33 35 38 34 35 35 41 38 43 41 40 35 32 33 38 40 38
22 20 13 7 10 12 13 16 16 16 17 19 21 20 23 20 21 22 20 21 23 24 27 28 29 31 32 29 29 34 34 36 35 41 33 31 30 30 32 35 37 38 39
19 17 10 8 11 10 8 11 14 15 14 12 11 13 16 17 17 15 13 13 20 16 24 24 26 28 27 27 28 33 34 37 28 25 25 28 30 32 35 35 37 39 40
14 13 10 9 9 8 10 9 9 9 13 10 11 10 10 11 12 9 13 11 16 14 26 21 20 27 23 27 27 29 24 20 22 25 27 28 31 34 35 36 38 40 41
13 11 9 7 9 10 11 8 10 9 6 9 11 4 9 13 11 17 11 13 14 14 19 18 24 19 21 15 11 15 16 19 22 25 25 28 32 35 38 39 42 43 41
11 11 11 9 10 9 8 6 5 9 7 9 9 11 4 6 8 5 2 5 5 12 7 14 10 10 8 8 12 15 18 20 23 25 29 33 36 39 43 46 46 43 40
11 9 6 6 9 9 6 6 6 6 5 1 3 5 4 5 7 6 9 8 4 5 7 4 1 3 6 8 14 16 20 23 26 29 34 39 42 44 44 45 43 39 36
13 8 6 4 8 3 2 4 8 7 4 6 8 12 13 15 16 16 14 13 10 8 5 5 4 5 7 10 13 17 22 26 30 35 39 42 44 43 41 39 37 33 27
13 14 2 3 4 8 8 12 12 11 16 18 18 18 18 16 14 13 11 9 7 7 5 5 6 9 12 17 22 27 32 36 38 40 41 42 41 39 36 32 29 24 18
11 14 16 11 8 10 14 14 13 16 17 16 16 15 13 11 10 10 9 8 7 5 6 8 12 17 21 24 28 32 36 38 40 39 38 34 30 27 24 22 18 14 13
8 10 13 13 12 12 15 13 12 13 13 12 11 10 10 9 8 7 5 5 6 7 10 14 18 21 26 30 33 36 36 34 32 28 25 21 18 16 14 11 10 10 12
5 5 6 7 7 8 9 8 8 9 9 8 7 7 6 6 5 6 6 7 9 12 15 19 24 28 32 34 35 32 28 24 21 18 16 14 11 9 9 9 11 12 14
3 3 3 7 6 5 6 6 6 5 5 5 5 5 4 4 5 6 8 10 12 16 20 24 27 30 33 34 30 26 22 17 14 12 9 7 7 8 8 10 13 15 17

GFSMW_700_spd_057.txt.gz
Wind_Speed
26 31 39 45 48 50 50 48 46 44 42 42 41 40 36 32 31 30 31 31 30 30 31 28 27 27 25 24 25 26 26 25 25 25 24 22 22 21 20 20 21 22 22
26 29 33 38 42 45 48 51 52 51 51 49 45 44 42 41 36 35 33 34 32 32 32 32 30 30 29 28 28 28 27 28 27 26 26 25 23 22 21 22 22 22 23
24 28 32 35 38 39 42 44 45 46 46 49 53 53 50 49 45 42 40 36 34 33 32 31 33 34 35 33 32 30 30 30 28 27 27 26 27 24 24 24 25 24 24
18 19 17 19 20 26 34 37 37 38 40 40 43 46 50 53 54 52 45 43 41 40 38 37 37 37 37 38 35 33 33 31 31 29 31 33 36 37 29 28 29 28 28
15 16 14 15 15 17 20 24 29 35 39 41 38 37 39 41 42 48 53 51 49 47 45 42 41 39 40 39 38 36 35 35 34 33 28 28 33 36 36 32 35 30 34
8 10 11 12 14 16 18 19 21 23 24 32 39 40 38 37 38 38 41 42 45 48 52 53 48 45 41 38 39 38 37 37 36 34 33 33 32 33 35 39 33 35 40
13 16 18 19 19 19 19 19 19 21 23 24 27 32 34 35 37 41 44 46 45 40 37 41 43 45 45 40 42 39 38 39 39 36 36 34 36 36 35 39 39 43 39
14 17 19 20 22 23 25 25 24 25 25 26 28 29 30 31 32 31 30 35 40 43 41 36 39 41 45 45 46 46 38 34 38 37 37 38 41 41 37 44 41 42 51
19 21 23 26 28 30 32 33 34 33 32 32 33 34 35 36 36 34 31 30 30 33 40 43 40 39 40 43 43 41 33 39 39 37 37 38 42 44 42 44 40 46 47
26 28 30 31 32 35 35 37 40 40 38 37 37 37 38 39 39 36 33 32 29 30 33 35 40 43 40 39 41 41 40 36 38 39 40 41 43 45 45 47 47 51 49
26 26 28 30 30 31 29 26 28 28 28 32 37 41 44 45 44 43 40 37 34 32 33 36 38 42 43 42 40 40 41 41 41 38 41 43 43 46 48 53 46 50 48
27 28 28 26 23 21 19 19 18 19 22 26 30 33 34 33 32 33 34 35 37 35 35 37 39 39 40 41 41 40 40 41 42 47 37 41 41 44 44 54 53 41 47
21 17 19 19 18 14 13 16 18 18 19 24 27 27 29 30 29 30 30 33 36 36 36 38 37 36 38 40 37 35 36 37 42 44 42 44 47 53 44 42 38 38 41
21 20 21 19 13 10 13 15 15 14 16 18 19 20 24 29 30 29 29 26 27 31 32 32 32 32 34 36 35 33 32 35 33 37 42 42 42 36 35 34 33 33 34
19 17 17 14 12 11 13 14 15 15 16 15 14 14 15 15 15 20 20 21 22 21 19 22 21 24 28 30 29 29 33 34 34 36 33 32 27 25 27 29 34 36 38
16 13 12 12 9 10 13 15 14 14 11 12 14 10 10 12 13 22 15 14 13 11 11 13 20 19 21 23 27 26 25 26 30 33 28 25 24 26 28 34 38 37 38
14 10 12 10 10 10 9 10 11 13 11 12 11 11 11 11 13 15 9 11 12 12 14 16 23 22 21 19 15 18 22 22 23 20 20 23 27 31 31 35 37 39 39
12 12 11 9 9 10 7 9 7 10 12 13 14 12 12 12 13 6 10 14 11 10 9 10 8 9 15 14 12 10 10 10 14 19 21 25 28 31 34 38 39 39 39
12 11 11 10 11 10 9 9 7 6 8 11 10 5 4 2 4 6 7 8 8 7 8 8 9 7 3 1 2 4 7 14 16 20 25 28 31 36 40 43 42 39 37
13 13 10 5 6 9 7 4 5 3 6 5 5 4 4 1 0 2 5 11 13 14 12 11 9 6 4 2 6 9 13 17 20 25 30 34 36 39 40 41 38 33 28
15 15 5 3 8 4 2 4 5 4 5 4 5 6 10 14 16 15 15 15 13 10 8 7 4 3 3 6 9 13 18 23 27 30 33 34 34 32 28 25 21 17 15
13 15 5 2 3 7 11 9 11 12 14 15 15 15 15 14 13 13 12 10 9 7 6 4 4 5 9 13 17 20 24 27 29 29 28 26 25 21 15 13 11 9 6
10 11 12 8 10 13 12 13 11 13 13 12 11 12 12 11 10 10 9 8 7 6 6 7 9 13 17 21 24 27 29 29 27 26 22 18 12 9 8 6 5 5 6
7 6 8 9 10 10 10 10 8 9 9 9 9 9 9 8 8 8 7 7 7 8 10 13 16 19 21 23 26 28 27 25 22 18 14 10 7 5 5 4 4 5 7
12 3 3 3 4 5 7 7 6 5 6 7 6 6 5 5 5 5 5 6 8 11 14 17 19 22 24 26 28 28 25 22 17 13 9 3 1 1 2 4 6 8 10
11 7 1 2 1 1 3 4 3 3 4 4 4 3 3 2 3 4 6 9 11 13 15 18 20 23 25 28 29 27 25 21 14 9 3 1 2 3 6 8 10 12 14

GFSMW_700_spd_060.txt.gz
Wind_Speed
31 33 36 39 42 44 46 46 46 45 43 44 42 41 40 35 35 32 33 35 35 36 35 36 37 36 33 31 31 30 30 30 30 29 28 27 27 26 25 24 24 23 23
29 31 33 37 41 44 47 47 48 48 49 48 47 44 43 41 39 36 35 34 34 35 34 35 35 37 37 34 33 34 32 33 32 31 31 31 31 28 26 25 25 25 24
26 29 30 32 35 37 39 40 42 44 45 45 48 50 52 51 48 45 41 37 37 36 34 37 36 37 38 38 36 36 35 35 32 33 33 35 33 30 29 27 28 27 27
22 25 26 26 24 25 28 32 36 38 38 37 39 41 43 44 42 44 44 44 45 44 43 40 40 39 38 37 37 38 38 39 38 36 35 35 36 34 34 34 35 35 33
15 16 17 18 18 18 18 19 21 26 32 36 39 39 39 39 39 40 40 41 46 50 48 45 45 45 42 41 42 40 40 42 42 40 39 38 37 36 36 35 33 33 35
12 13 14 16 17 17 17 18 20 21 24 25 26 30 38 40 41 39 38 36 37 38 42 49 50 52 50 46 45 44 42 43 44 42 42 40 39 37 34 35 36 35 37
11 13 15 17 19 20 22 22 23 24 24 26 27 26 27 34 41 43 44 44 45 44 41 41 43 48 49 49 51 50 45 44 43 45 44 43 40 40 39 42 37 38 38
12 14 17 19 21 24 25 26 27 28 28 28 28 28 28 30 33 34 36 38 40 40 42 46 47 46 45 47 48 49 48 47 45 45 48 44 41 40 43 43 40 42 43
15 18 21 23 26 28 30 32 32 34 35 35 34 34 33 33 34 36 37 38 38 37 37 40 42 45 47 45 45 46 47 48 47 49 50 52 47 44 41 43 45 46 48
20 23 25 27 29 30 32 32 33 33 34 36 39 38 36 36 38 39 41 43 42 40 38 38 39 41 46 47 45 43 43 45 47 45 42 46 42 46 40 46 46 46 48
24 25 26 25 26 27 28 27 26 24 24 25 26 28 32 37 42 45 47 46 44 42 39 38 36 37 41 44 47 46 43 41 42 42 41 43 43 43 49 44 41 48 48
24 24 22 19 18 18 17 15 13 13 15 17 19 23 27 32 36 39 41 42 42 42 41 41 40 38 36 41 43 44 44 42 41 41 41 39 40 39 44 43 44 43 49
21 20 18 15 16 11 9 10 11 12 14 16 18 21 25 25 26 29 31 33 34 34 38 40 39 39 38 39 43 42 41 39 39 39 39 38 41 39 41 46 42 46 45
17 15 14 12 11 9 10 11 13 14 16 19 20 20 21 24 24 22 26 30 33 34 32 31 34 36 36 38 40 39 36 35 33 32 36 35 38 39 39 45 46 39 40
16 12 10 10 10 11 13 13 14 14 17 19 19 20 19 17 16 16 17 22 26 25 25 27 28 33 33 33 31 33 27 26 26 32 36 33 38 41 39 35 30 29 31
15 8 9 8 9 12 14 12 11 12 13 12 11 12 13 12 14 15 17 26 19 23 20 29 23 17 16 21 23 23 26 29 29 35 31 28 28 28 28 27 30 33 38
11 7 9 10 10 12 13 8 8 9 8 12 13 14 12 12 8 12 16 14 11 12 13 11 11 16 21 22 21 23 26 26 24 21 19 17 20 25 27 32 33 35 38
10 10 9 12 12 11 11 9 10 9 9 12 14 12 5 10 9 12 16 12 14 9 7 4 5 9 13 5 8 11 11 9 8 8 15 21 24 28 31 33 35 38 41
10 12 12 11 9 13 14 12 10 8 7 7 8 10 5 6 7 8 11 6 4 4 3 6 5 3 3 1 1 0 3 6 10 16 21 24 27 32 36 38 39 40 39
13 14 13 7 5 7 6 5 6 7 3 3 7 9 7 5 7 8 8 10 12 12 11 10 8 6 4 3 2 8 11 14 17 21 26 30 34 37 38 36 32 26 21
13 14 9 2 4 3 3 1 2 3 4 6 9 10 12 13 13 12 11 10 9 8 7 6 4 3 4 6 9 13 17 22 25 28 31 32 31 30 27 23 17 12 9
11 12 8 2 4 3 7 8 8 9 10 12 11 10 9 9 8 8 8 7 7 6 5 5 5 6 9 11 14 16 19 22 23 24 24 23 22 19 17 14 10 7 4
9 7 6 7 8 8 8 10 9 8 9 8 7 7 7 7 6 6 5 4 3 3 5 7 9 12 14 16 18 21 23 24 24 23 23 21 19 15 12 10 8 6 6
11 5 2 3 6 6 6 7 6 4 5 6 6 5 5 4 4 3 3 3 4 6 9 11 13 15 18 19 22 23 24 24 24 24 22 20 16 12 10 9 9 7 8
10 9 2 2 3 4 4 4 4 3 3 4 4 3 2 1 1 1 2 4 6 9 12 14 16 18 20 21 23 25 25 26 25 24 20 16 13 11 10 9 9 9 10
12 9 5 4 5 5 5 4 4 4 3 3 3 2 2 2 3 4 5 7 10 12 15 17 18 20 21 23 25 26 26 25 24 20 16 13 12 12 12 12 11 11 12

GFSMW_700_spd_063.txt.gz
Wind_Speed
28 35 39 39 39 39 40 41 43 43 42 43 43 45 41 41 41 39 36 34 33 35 39 39 40 40 39 38 37 35 36 35 36 36 34 33 32 31 30 30 28 26 25
32 32 34 36 37 38 39 40 42 43 44 44 45 49 43 42 42 41 40 39 37 35 36 37 38 40 39 38 39 37 37 37 37 37 36 37 37 35 33 32 31 29 28
29 32 32 34 36 37 38 38 39 41 42 43 45 47 49 44 45 43 43 42 42 41 40 38 39 39 40 40 38 39 39 38 37 36 38 38 40 38 36 34 33 33 31
27 28 30 30 31 32 32 33 34 35 36 37 38 38 40 41 39 40 40 40 41 42 43 43 43 42 42 41 41 42 40 41 41 38 40 40 42 40 39 36 36 37 36
20 21 22 22 22 23 24 24 25 26 27 29 33 35 38 39 39 38 37 38 40 43 45 47 49 48 48 48 45 46 45 43 41 40 40 42 43 43 43 41 39 39 39
17 16 16 17 18 19 19 19 20 21 22 22 24 25 27 28 32 34 37 38 39 39 41 41 47 52 54 53 50 48 49 48 44 46 44 44 45 46 45 42 43 40 39
14 14 15 16 17 18 19 21 22 24 24 24 25 26 27 27 28 31 34 38 40 42 43 41 41 42 47 53 55 54 55 52 50 48 49 46 45 47 47 46 45 46 43
13 14 15 17 19 21 23 25 26 28 28 29 29 30 30 30 29 28 29 32 35 37 40 40 41 42 45 49 49 50 54 54 52 52 53 51 47 46 48 53 51 46 48
14 15 16 19 21 24 26 29 31 32 33 35 35 36 36 35 34 33 33 34 36 38 39 41 41 40 41 42 49 51 50 50 50 50 52 53 50 47 46 44 46 44 52
16 18 21 23 25 26 28 29 31 33 33 33 34 34 36 38 39 39 39 39 40 42 43 44 44 42 41 43 43 47 50 48 47 48 48 48 49 49 50 51 49 52 52
19 21 23 25 26 25 24 24 25 25 25 25 25 26 28 29 31 34 38 42 45 46 48 48 47 46 43 42 42 44 45 48 49 46 44 44 45 45 41 41 46 44 35
20 22 24 24 23 20 19 18 16 15 14 16 18 20 20 22 24 28 32 36 37 40 43 44 46 46 47 46 44 43 40 41 42 43 45 42 41 39 41 36 40 35 44
23 24 23 21 18 16 14 12 11 12 13 15 16 17 19 21 22 24 25 27 30 33 35 38 39 38 40 39 40 43 43 40 37 38 38 39 38 39 33 38 37 40 43
24 20 19 17 14 12 11 12 13 13 15 16 17 19 21 22 23 23 24 26 26 26 29 30 32 36 35 36 39 39 38 40 35 32 34 32 33 34 32 41 38 42 42
20 19 15 13 10 8 9 11 12 15 17 16 15 17 18 21 22 20 21 20 22 24 29 25 26 28 29 32 33 34 37 33 30 28 26 25 29 33 31 33 34 33 31
18 17 11 12 11 10 9 9 10 12 15 16 16 15 19 22 17 18 16 15 17 16 21 16 17 28 35 32 18 25 23 20 22 29 28 24 30 34 32 31 30 27 28
14 12 10 12 13 12 12 11 10 11 14 13 15 15 16 13 10 10 10 17 13 15 15 12 16 11 9 15 19 22 24 18 22 26 28 30 30 22 24 25 27 30 32
10 9 8 11 13 15 14 12 11 13 15 14 12 10 8 8 10 8 10 14 10 12 8 7 10 12 7 2 7 10 8 12 12 13 12 12 18 23 26 28 31 34 37
9 10 11 12 13 15 16 16 13 14 11 8 6 6 7 5 10 6 8 9 9 9 5 4 5 6 6 6 5 4 3 3 7 13 18 20 24 27 30 33 36 39 38
10 12 12 11 9 7 7 8 8 10 5 5 4 5 7 9 11 12 10 10 12 12 10 10 9 7 6 4 7 10 12 14 17 20 23 27 30 32 34 35 34 31 29
9 11 12 4 3 4 4 3 4 3 3 4 7 7 8 8 7 7 7 7 8 8 8 8 7 8 10 12 14 16 18 20 22 24 25 26 27 28 28 29 27 25 22
8 9 9 4 2 2 2 5 5 5 7 8 5 5 4 4 4 4 5 5 5 6 6 7 9 11 13 14 16 17 19 21 22 22 23 23 24 25 25 24 21 18 15
8 5 6 3 2 4 6 7 6 4 3 3 2 2 1 1 2 1 2 3 4 6 8 10 12 14 15 16 17 19 21 23 24 24 26 27 26 25 23 21 18 15 13
7 6 3 2 2 3 3 3 5 3 3 2 3 3 2 1 1 1 2 4 6 8 10 12 14 16 18 20 21 23 24 26 26 27 27 27 25 23 20 17 14 13 14
8 5 5 5 6 6 5 5 5 5 4 5 5 4 4 3 4 4 5 7 8 11 13 16 18 19 20 21 22 24 25 27 28 28 27 25 24 21 18 15 14 14 15
8 9 8 6 8 9 8 8 8 7 6 6 6 6 6 6 6 7 8 9 11 13 15 17 19 20 22 23 24 25 27 28 29 28 26 23 21 18 16 16 16 16 16

GFSMW_700_spd_069.txt.gz
Wind_Speed
27 31 31 30 30 32 33 33 33 33 34 33 33 32 32 30 31 31 32 33 34 36 37 36 34 33 33 33 32 33 33 34 34 36 38 37 36 35 33 34 36 34 31
29 31 33 35 34 33 34 35 34 35 36 38 39 40 39 38 36 37 38 39 41 41 41 41 39 36 36 36 36 35 34 34 35 37 37 40 38 37 33 33 34 35 36
33 34 34 32 30 30 32 34 34 34 35 37 38 38 38 39 39 40 38 36 38 39 42 44 42 41 40 37 39 41 40 37 38 39 39 41 41 38 35 36 35 36 38
35 36 34 31 29 31 32 31 32 32 33 34 34 34 35 35 34 36 37 35 34 35 37 38 40 42 41 40 40 42 42 44 43 41 42 43 42 43 43 38 38 38 39
35 35 34 31 30 30 29 30 29 28 28 28 29 29 29 31 32 32 34 34 32 33 34 36 35 35 36 38 40 41 44 45 46 47 46 46 46 47 47 46 42 41 42
35 31 31 28 26 26 25 25 25 24 24 24 25 26 27 27 27 27 27 27 28 29 29 30 33 33 36 37 37 38 39 40 42 43 45 45 48 50 48 49 46 45 43
30 23 22 22 20 19 19 21 22 23 22 23 25 26 26 26 27 27 27 28 29 30 30 31 30 30 34 36 36 38 40 40 42 43 45 45 45 44 48 46 50 48 49
22 21 20 19 18 18 19 21 22 23 23 24 27 28 28 29 30 30 30 31 32 32 32 32 33 31 32 35 34 36 38 39 40 40 41 42 42 43 44 46 46 48 45
18 18 17 17 18 18 19 20 22 23 24 26 29 30 30 31 31 32 33 34 34 35 36 36 35 34 34 36 37 37 39 41 42 43 43 43 42 41 40 37 41 40 43
17 16 17 19 19 20 21 22 23 26 28 29 30 31 32 32 33 34 34 34 33 33 33 34 34 34 35 37 40 42 43 45 45 45 45 45 43 38 36 36 36 41 42
17 18 19 20 21 23 25 26 26 28 29 28 28 28 27 27 26 25 26 27 27 26 26 27 29 30 32 34 36 38 40 40 39 38 39 40 40 37 32 35 35 35 40
15 16 19 21 23 25 26 27 27 26 25 23 23 22 21 20 20 20 20 20 21 21 23 24 25 27 28 29 33 37 39 37 35 33 31 33 32 32 36 38 34 34 36
13 16 19 21 24 26 25 24 23 21 20 18 17 17 18 19 18 18 19 19 21 22 21 21 21 23 26 28 27 31 31 29 29 29 28 29 29 32 36 37 29 30 31
15 16 19 20 19 20 19 19 18 17 15 15 15 16 17 17 16 16 17 17 20 19 18 19 20 22 24 19 22 23 22 23 21 23 23 22 25 23 19 25 27 26 25
16 19 20 19 18 18 16 15 14 13 13 12 12 13 13 14 15 16 17 17 16 16 16 17 16 16 15 15 20 19 13 14 17 17 16 18 16 21 19 25 25 25 26
19 20 19 19 18 14 14 14 15 13 12 10 10 11 12 14 15 14 12 11 11 11 15 14 15 12 12 13 14 10 9 13 14 11 12 13 18 21 19 26 20 20 26
17 16 15 15 13 13 14 16 17 15 13 12 11 13 12 12 9 7 9 6 6 9 9 9 7 6 7 8 11 14 15 15 15 10 10 10 12 14 14 13 13 15 21
14 13 12 12 13 13 14 17 18 17 14 14 12 9 9 8 6 5 4 3 1 3 5 6 6 8 9 12 13 13 12 13 12 13 14 15 18 20 22 24 25 26 27
11 12 13 14 15 15 16 17 19 17 16 13 10 9 9 7 4 3 6 7 7 8 9 8 7 7 8 10 11 13 14 15 15 16 16 17 18 18 19 20 21 22 23
9 11 12 13 13 12 11 9 10 11 11 11 9 7 5 8 7 7 5 6 6 6 5 4 4 6 8 10 11 12 13 14 15 17 18 20 20 21 22 23 24 25 24
9 10 10 10 8 7 6 9 8 9 9 8 9 10 9 7 6 5 4 3 3 3 1 2 5 7 8 10 12 13 14 16 17 19 20 21 23 24 24 24 24 24 24
10 9 9 8 6 5 4 5 6 7 8 11 12 10 7 5 5 4 2 1 1 1 2 4 5 7 9 11 12 14 16 17 19 20 21 23 24 25 25 25 25 25 23
11 8 8 6 5 4 2 3 6 8 10 10 8 7 6 5 4 4 3 3 4 3 5 6 7 9 10 12 14 16 17 19 21 22 23 23 24 25 25 25 24 22 19
10 9 7 6 5 5 3 4 5 6 7 7 6 5 5 5 5 5 5 5 5 6 7 8 9 10 12 14 16 18 20 21 22 23 24 25 26 26 26 24 22 20 17
13 10 7 7 7 7 7 7 6 6 6 6 6 6 6 6 7 8 8 8 7 7 8 9 10 11 13 15 18 20 21 23 24 25 25 26 26 26 24 22 20 18 17
16 16 15 11 9 8 10 9 8 9 9 9 8 8 8 9 10 10 10 10 9 9 10 11 12 13 15 17 18 20 22 23 23 24 26 26 27 26 24 22 20 18 17

GFSMW_700_spd_072.txt.gz
Wind_Speed
29 31 33 32 30 29 30 31 31 31 30 29 30 30 30 29 29 29 29 30 31 31 32 33 33 33 35 34 32 33 33 34 33 35 36 35 35 35 34 35 33 30 30
33 33 33 32 30 31 32 32 33 34 35 34 33 34 33 33 33 33 34 35 36 37 39 39 38 38 37 36 34 34 36 35 34 36 38 41 40 37 33 33 34 32 31
29 30 32 33 33 32 33 34 35 36 37 38 37 36 37 37 37 36 35 36 39 41 41 43 44 44 44 43 40 38 37 38 38 38 39 43 47 42 38 35 35 35 35
32 33 33 34 34 32 31 31 32 34 35 36 37 37 37 36 35 36 36 36 37 37 38 39 40 40 40 39 38 38 37 39 41 42 41 40 43 45 48 44 39 40 39
38 37 38 38 37 35 34 32 32 32 33 33 33 34 35 34 33 33 33 34 35 36 36 36 35 35 36 38 37 37 35 34 36 40 40 42 44 45 46 48 47 44 47
37 37 36 36 36 34 33 32 31 29 29 29 29 29 30 30 30 30 30 29 29 29 28 26 27 28 31 33 34 36 38 37 37 38 39 41 42 42 42 43 45 47 47
39 38 37 35 33 30 29 28 27 25 24 24 25 26 27 28 29 29 29 29 30 29 29 28 28 28 29 30 32 33 34 35 37 37 39 40 40 39 41 43 46 45 44
35 34 31 28 26 25 25 24 24 23 23 24 25 27 28 29 30 31 32 31 31 31 32 31 31 32 32 33 35 35 36 37 38 39 39 39 40 40 38 39 40 42 40
27 24 23 22 23 23 22 22 23 23 24 26 26 27 29 30 31 33 33 34 35 35 34 35 35 35 34 33 34 34 35 36 38 39 41 43 45 46 46 44 38 37 38
22 21 19 19 19 20 20 21 22 24 24 25 27 29 30 31 33 34 35 35 35 35 34 33 32 31 31 31 31 32 33 33 35 37 38 38 39 42 44 44 43 37 34
16 16 18 19 19 21 22 23 25 26 27 28 29 30 30 31 30 30 29 28 26 26 25 26 26 25 26 27 27 28 30 34 36 36 37 36 35 34 33 33 34 34 34
17 19 19 19 20 22 24 26 28 28 28 29 29 28 27 25 24 23 22 22 21 20 20 21 22 23 23 24 25 26 31 32 33 36 34 32 28 27 27 29 32 33 34
17 16 16 18 20 23 26 28 29 29 28 27 26 24 22 21 20 20 20 21 21 21 20 20 21 21 21 22 23 25 26 28 31 27 24 25 23 24 25 27 29 28 22
13 14 16 19 22 24 25 26 26 26 25 23 21 20 19 19 19 19 19 19 19 19 20 19 18 18 18 19 18 19 22 24 19 17 19 19 18 17 19 19 19 20 24
15 16 18 20 22 22 22 23 22 22 20 18 17 16 15 15 16 17 18 18 18 18 16 15 15 14 15 16 16 18 15 13 12 13 12 8 10 11 11 15 18 22 26
17 17 19 19 18 20 22 20 19 19 17 15 14 13 14 14 14 15 16 15 13 14 12 11 10 12 12 11 12 8 6 8 12 14 12 10 11 11 12 12 13 14 14
18 19 19 17 17 17 16 17 18 18 17 16 15 14 14 13 12 11 9 10 10 9 9 9 7 5 3 3 5 5 8 11 12 12 12 12 14 16 17 17 19 22 23
19 19 18 17 16 16 16 16 17 20 19 18 16 15 13 11 10 9 8 8 7 6 6 5 6 7 4 2 4 6 7 8 9 11 13 14 15 15 16 17 19 20 21
18 17 16 16 16 17 17 18 18 19 20 19 17 14 12 11 11 9 7 8 7 7 8 8 6 4 1 1 3 5 7 9 11 13 14 15 17 18 19 20 21 21 22
14 14 13 14 14 14 14 15 15 15 17 17 16 14 13 10 10 11 10 9 8 7 6 5 3 2 2 4 6 8 10 12 14 15 17 18 20 20 21 22 23 24 24
13 13 11 10 10 10 10 10 11 10 11 13 13 12 11 13 13 11 10 8 7 6 5 5 4 4 5 6 8 10 12 13 15 17 19 21 22 22 23 23 24 24 25
10 12 11 9 8 7 8 7 7 9 11 11 11 13 14 13 12 10 9 8 8 7 6 5 6 7 8 9 11 13 14 15 17 18 20 21 22 23 23 24 24 25 25
11 12 9 9 8 6 5 4 4 6 8 10 13 14 13 11 10 9 9 9 8 8 7 7 8 8 10 11 12 13 15 16 18 19 21 22 22 23 24 24 25 24 23
12 12 8 8 7 7 6 5 4 6 8 11 11 11 11 11 11 10 10 9 9 9 9 10 10 11 12 12 13 14 16 17 19 20 21 22 22 23 24 24 24 23 22
13 12 11 8 8 7 7 7 7 8 9 11 12 12 13 13 12 11 11 11 11 11 12 12 12 13 13 13 14 16 17 19 21 22 22 22 23 23 24 24 24 24 23
17 18 15 15 15 10 9 10 9 11 12 14 14 14 15 14 13 13 12 12 13 13 14 14 14 14 14 15 16 17 18 20 21 22 22 23 24 24 25 25 25 24 23

GFSMW_700_spd_075.txt.gz
Wind_Speed
31 31 29 28 28 28 28 28 28 28 28 29 28 28 27 27 28 28 28 28 28 28 29 30 30 32 34 33 32 33 33 32 32 34 34 34 34 35 32 32 30 30 30
33 33 33 32 32 30 30 30 31 30 29 29 30 31 30 30 30 30 31 31 32 33 34 35 36 37 38 38 38 39 39 39 36 37 38 40 39 37 36 36 34 32 31
39 37 34 33 32 31 32 32 32 31 32 33 33 34 33 33 33 33 33 35 37 38 39 38 39 41 43 43 41 40 40 39 37 36 38 41 43 42 41 38 37 36 35
28 28 29 31 32 33 32 31 31 32 33 34 36 36 36 36 35 36 36 35 36 37 39 39 40 40 41 41 39 38 37 37 37 35 36 39 41 43 45 42 42 39 38
39 34 31 31 31 32 33 33 33 34 34 35 36 36 36 35 34 35 34 35 36 36 36 37 37 36 37 36 36 36 37 38 39 38 36 35 37 39 41 45 44 42 41
43 41 38 36 35 36 36 36 36 35 35 35 34 34 34 34 34 34 34 35 35 34 32 31 30 29 29 30 32 32 32 32 32 34 35 36 37 39 41 42 43 44 41
44 41 36 35 35 36 35 35 34 34 33 32 31 31 31 31 31 32 32 32 32 32 31 31 30 30 29 29 30 31 31 31 31 31 33 34 35 36 38 40 42 44 46
38 39 37 35 35 36 35 33 31 28 27 27 28 28 28 29 30 31 31 32 33 33 34 33 33 33 32 33 33 34 35 35 35 35 36 38 38 39 39 40 42 46 47
25 28 30 31 31 30 28 27 26 26 26 25 26 28 29 30 30 31 32 33 34 35 36 36 36 35 34 35 35 35 35 36 35 35 36 37 38 39 40 40 40 40 43
22 24 25 26 25 25 25 25 25 26 26 26 27 27 28 29 30 31 33 34 35 35 35 35 35 34 33 32 32 32 31 31 31 31 32 34 34 36 36 34 34 34 34
17 18 21 22 22 22 22 23 24 25 25 26 27 28 29 30 31 32 33 32 31 29 28 27 26 26 25 24 24 26 26 27 29 31 31 31 33 34 30 27 29 31 30
16 17 18 18 19 20 22 23 25 26 27 28 29 30 30 30 30 30 29 27 25 24 24 23 22 21 21 22 22 23 23 25 27 29 30 31 30 25 23 24 27 29 27
17 16 17 17 19 20 22 24 26 28 29 29 29 29 28 27 26 25 24 23 23 22 22 22 22 21 21 20 20 21 20 21 23 24 26 22 20 21 21 22 26 27 25
16 16 15 15 18 21 23 26 27 28 28 28 28 27 24 23 22 21 21 22 21 21 20 20 20 21 19 18 18 17 17 20 20 19 18 18 16 15 17 18 19 17 17
17 14 13 16 18 21 25 26 25 25 26 26 25 22 21 20 19 18 18 19 19 19 20 19 18 17 16 16 15 14 15 14 11 9 8 7 8 8 8 11 12 13 15
14 15 17 18 19 21 23 24 24 24 23 21 20 19 18 17 17 17 18 18 18 17 16 15 15 14 13 11 10 8 2 1 5 6 7 7 9 12 13 15 16 18 20
15 16 17 19 19 19 20 20 19 18 19 19 19 18 17 16 16 17 16 13 13 13 12 12 11 10 8 6 5 4 3 3 6 8 9 11 12 13 15 16 18 20 21
16 17 18 20 19 19 19 19 18 18 18 20 20 19 18 18 17 15 13 12 11 11 11 9 8 8 8 7 5 4 4 5 8 9 11 12 13 15 17 19 21 22 23
18 18 19 18 18 19 19 19 20 20 19 19 22 20 19 19 17 15 13 13 11 9 8 9 11 10 8 6 5 5 7 9 11 13 14 16 17 18 19 21 23 24 24
19 18 17 17 18 18 18 18 17 17 18 20 21 20 20 17 15 15 12 11 11 9 11 12 11 9 8 7 7 8 10 12 14 16 17 19 20 21 21 22 23 24 24
18 17 17 17 16 15 14 13 13 13 13 12 14 17 17 15 13 13 13 12 12 12 12 12 10 9 8 8 9 11 13 15 17 18 19 20 21 22 22 22 23 24 25
13 13 15 15 14 12 11 11 11 11 11 11 11 12 13 13 14 13 13 14 13 13 12 11 10 9 10 11 12 13 15 17 18 19 19 20 21 22 22 23 23 24 25
15 13 16 11 11 10 9 8 8 8 9 11 12 12 14 15 14 15 16 15 14 13 12 11 11 11 13 13 14 15 17 17 18 19 20 21 22 22 23 23 24 24 25
16 15 15 12 9 9 8 7 6 5 5 7 10 12 14 14 15 16 16 15 15 14 13 12 13 14 14 15 15 16 16 17 19 20 21 22 22 23 24 24 25 25 25
18 15 15 13 10 10 9 9 8 7 7 8 10 12 14 15 16 17 16 16 15 15 15 14 15 15 16 16 17 17 18 19 20 21 22 23 24 24 25 25 26 26 26
21 17 18 17 15 15 13 10 11 11 12 13 13 14 15 16 17 18 17 17 17 17 17 17 17 17 18 18 19 19 20 20 21 22 23 23 24 25 25 26 27 28 28

GFSMW_700_spd_078.txt.gz
Wind_Speed
22 24 23 23 24 23 22 23 24 25 27 26 26 25 25 26 26 25 25 26 26 27 28 28 28 29 31 31 32 33 32 33 33 37 36 35 35 34 32 30 28 28 28
26 26 26 27 28 27 27 27 27 27 27 28 27 27 27 28 27 27 27 27 29 30 31 32 33 34 36 36 36 36 39 40 37 38 39 40 38 33 33 33 31 32 32
32 34 32 29 28 29 29 28 28 29 29 29 29 30 31 31 30 30 31 32 33 34 35 35 37 38 38 38 38 39 40 38 35 34 35 36 38 37 34 33 33 33 31
36 38 40 36 35 33 31 31 30 29 30 30 31 32 32 33 33 33 34 35 36 36 37 37 37 38 39 38 37 39 39 37 34 33 32 34 36 37 40 37 36 35 33
36 34 32 30 30 30 29 29 30 29 30 31 32 33 34 35 35 34 35 36 36 36 37 37 37 37 37 36 35 35 34 33 32 33 33 32 33 34 38 42 40 38 37
39 34 33 32 30 29 29 30 31 32 33 34 35 35 35 36 35 34 33 34 35 35 36 35 33 32 31 31 30 30 30 30 31 32 33 32 34 34 36 39 39 40 40
46 48 45 41 38 35 33 34 35 35 34 34 35 35 35 33 32 32 31 32 32 33 32 32 31 31 31 31 30 31 31 32 33 33 33 34 34 35 36 37 39 40 39
38 42 41 40 37 37 36 36 35 35 36 34 33 32 31 31 30 30 31 32 32 32 33 33 33 34 34 33 34 34 34 35 34 34 33 33 33 33 34 35 36 38 39
31 30 35 37 38 39 37 36 37 34 32 30 29 29 29 30 30 31 31 32 32 33 34 34 35 36 36 36 37 36 36 35 34 32 32 31 32 32 33 34 35 36 37
23 25 27 31 32 32 31 31 31 29 27 27 27 28 30 31 31 31 30 31 32 33 34 35 36 36 36 36 36 34 32 30 29 28 28 29 30 32 33 33 33 33 30
19 20 23 24 26 26 26 25 25 26 27 27 28 29 29 30 30 30 31 32 33 33 32 32 30 30 28 27 26 25 24 24 25 25 25 27 29 31 30 31 28 25 26
14 15 18 21 22 22 21 22 23 24 26 27 28 29 30 31 31 31 32 31 30 29 27 26 25 24 23 21 21 20 21 21 22 22 23 24 25 25 23 21 21 22 24
14 15 16 16 16 18 19 21 23 25 27 28 29 30 30 30 31 31 30 29 27 26 25 24 23 22 21 20 20 19 19 19 19 19 21 21 20 18 17 17 18 17 20
13 14 15 16 17 18 19 20 23 25 27 28 28 28 28 27 27 27 26 25 24 24 23 22 20 20 19 19 18 17 16 16 16 18 16 16 13 11 12 13 13 14 13
18 17 15 14 15 16 18 21 24 26 27 27 26 26 25 24 23 22 21 19 19 20 20 20 19 19 17 15 14 13 14 13 10 5 4 5 6 7 9 11 13 14 15
16 15 15 15 16 18 20 21 24 23 24 25 25 23 21 20 19 18 17 18 19 19 19 18 16 15 13 11 10 10 8 4 4 4 4 6 8 10 12 13 15 17 18
15 15 16 17 19 20 21 21 21 21 21 21 21 20 19 18 17 17 17 17 17 16 14 14 13 10 9 8 7 6 7 6 6 6 8 10 12 13 15 17 18 19 20
17 16 17 18 19 20 21 20 20 21 21 20 20 20 20 18 17 18 17 16 15 14 12 12 12 10 8 6 7 8 8 7 7 9 11 12 15 17 18 20 21 22 23
19 18 18 18 19 20 20 20 21 22 22 22 21 21 21 20 18 17 17 15 14 13 12 11 10 9 9 9 9 9 9 9 10 12 13 15 17 19 21 22 23 23 23
23 19 19 19 19 18 19 19 21 21 21 21 21 22 21 21 20 18 17 15 14 12 10 10 10 10 10 10 10 10 11 12 13 14 15 17 18 19 20 22 22 22 22
20 20 21 18 18 18 18 17 18 18 18 17 17 17 19 20 18 17 16 13 12 12 12 12 12 11 11 11 11 12 13 15 16 16 17 17 19 20 21 22 22 22 22
17 14 15 16 16 17 16 15 15 15 15 15 16 14 14 15 16 15 14 14 13 14 13 13 13 13 12 13 13 14 15 16 16 17 17 18 20 21 22 22 22 22 23
19 12 16 13 12 12 13 13 12 12 11 12 13 12 12 13 14 15 14 14 15 15 15 15 15 14 14 14 15 15 16 16 17 18 18 19 20 20 21 22 23 23 23
14 15 14 15 14 11 10 11 11 10 9 8 9 11 12 13 14 14 15 14 15 16 16 16 16 16 16 15 16 16 16 16 17 19 19 20 20 21 22 23 23 24 24
19 20 17 16 14 10 10 10 10 10 10 8 6 7 9 11 13 14 15 16 16 17 17 17 17 18 17 17 18 18 18 18 19 20 20 20 21 22 23 24 25 26 27
22 23 20 18 17 16 14 13 12 11 11 11 10 10 11 14 15 15 16 16 17 19 19 19 19 20 20 19 19 20 20 20 21 22 22 22 22 24 25 26 27 29 29

GFSMW_700_spd_081.txt.gz
Wind_Speed
27 26 24 25 23 22 22 21 22 23 24 24 24 24 24 24 24 25 26 27 26 25 25 25 25 26 27 28 31 32 33 34 35 38 36 36 34 32 31 32 29 28 28
31 26 25 24 22 20 19 20 22 23 24 24 25 26 26 26 26 27 28 27 27 27 28 28 28 30 32 33 35 36 38 37 36 39 39 38 33 30 29 26 27 27 28
33 27 25 25 24 22 22 23 25 26 27 27 28 27 27 27 29 29 29 29 30 31 32 33 33 35 36 37 38 37 37 38 36 35 36 36 36 32 30 29 28 26 27
35 26 22 26 26 25 25 24 24 26 26 27 27 28 29 30 30 30 31 32 32 33 34 35 35 36 38 38 37 37 36 36 34 33 31 30 32 33 34 32 27 27 28
36 29 24 26 30 32 32 31 30 30 29 28 29 29 29 30 31 31 32 34 34 35 35 36 36 36 37 36 35 34 32 32 30 30 29 29 29 29 32 34 32 31 30
34 35 34 32 33 34 33 31 31 30 29 29 30 31 32 33 34 34 34 35 35 34 35 36 36 35 33 31 31 31 31 30 30 30 30 30 31 31 32 34 34 34 33
33 38 41 37 33 30 28 27 28 29 30 32 33 34 34 34 34 34 34 33 33 32 32 32 31 31 30 30 30 31 31 31 31 31 31 32 33 34 35 35 34 34 33
29 35 40 40 36 33 33 33 34 34 35 36 36 35 35 34 33 32 31 31 31 31 31 30 31 31 31 32 32 32 33 33 33 33 33 33 34 34 34 33 32 33 33
23 24 29 37 40 42 41 39 37 36 36 37 37 36 35 34 33 31 30 31 31 32 31 32 32 33 33 33 34 35 35 35 35 34 34 33 31 29 29 28 30 32 33
22 24 24 30 32 37 39 38 38 37 37 36 35 32 32 32 31 31 31 31 32 31 31 32 32 34 34 35 35 35 34 34 32 30 27 26 25 25 26 28 30 29 29
27 20 21 26 31 32 33 32 32 33 32 30 29 29 30 30 30 31 31 30 31 31 32 33 33 34 33 32 30 29 28 26 24 23 22 22 22 23 24 26 26 24 21
16 17 19 22 23 24 26 28 28 27 27 27 26 27 28 29 30 31 31 32 32 32 32 32 31 30 29 27 26 24 22 21 21 20 20 20 19 22 22 20 19 18 18
10 15 16 17 19 20 22 23 23 22 24 25 26 28 29 31 31 31 31 32 32 31 30 29 27 26 25 24 23 21 20 20 19 18 17 18 19 19 17 15 13 13 13
9 12 15 15 16 18 19 20 21 22 24 24 26 28 28 29 30 30 30 29 28 27 26 25 24 23 22 20 19 19 19 16 15 14 14 12 9 7 5 6 7 9 11
13 13 16 16 18 18 17 19 20 21 23 25 26 27 27 27 28 28 27 26 25 23 21 20 20 20 19 19 18 16 14 12 11 8 4 4 5 6 6 8 9 11 12
23 20 18 18 16 15 16 18 20 22 23 24 24 25 26 26 24 25 23 22 20 19 19 19 18 17 16 14 13 12 10 8 7 5 4 6 7 8 9 10 12 14 16
19 21 18 16 16 16 18 19 22 23 23 23 22 23 23 23 22 21 19 18 18 17 17 15 14 14 12 11 10 9 9 8 6 5 6 8 9 10 12 13 15 17 18
18 20 17 17 18 18 19 21 22 22 23 23 23 23 22 21 21 20 18 18 17 16 14 14 13 11 11 10 10 11 8 7 6 7 8 10 12 14 15 16 17 17 18
17 19 18 19 19 18 19 20 20 21 23 23 23 24 24 22 21 20 18 17 16 15 14 14 13 12 12 12 11 9 8 7 8 9 11 12 14 16 16 17 17 18 18
23 25 23 18 18 18 19 19 20 21 21 22 22 22 22 22 21 21 20 18 16 16 15 13 12 13 12 11 9 9 8 9 10 11 13 14 14 16 16 17 18 18 18
27 24 23 20 19 20 20 20 20 20 19 19 19 19 19 19 21 21 20 18 16 15 14 13 13 12 11 10 10 10 10 11 12 13 13 14 15 15 17 17 18 18 19
21 22 21 19 17 18 19 19 18 16 16 16 16 16 17 17 16 17 16 15 14 14 14 14 13 12 12 11 11 11 12 12 13 13 14 15 16 16 16 17 17 18 19
16 18 18 17 15 16 13 14 14 12 13 13 13 13 12 12 12 13 14 14 15 15 14 14 13 13 12 12 13 14 14 14 13 14 15 16 16 16 17 17 18 19 19
16 17 20 16 15 16 16 11 10 10 10 11 10 10 10 11 11 11 13 14 14 15 15 14 13 13 14 15 15 15 15 15 15 16 17 17 17 17 18 19 19 19 20
17 21 18 21 18 15 13 12 10 9 9 10 9 7 6 8 10 12 13 14 14 15 16 15 15 16 16 17 17 17 17 17 18 18 18 19 18 19 20 20 21 21 22
11 16 20 19 20 19 16 14 14 11 10 11 10 10 9 9 11 13 14 15 16 17 17 18 18 18 19 19 19 19 20 20 19 20 20 20 20 21 22 22 23 24 24

GFSMW_700_spd_084.txt.gz
Wind_Speed
35 35 34 31 31 31 31 30 26 25 23 22 22 22 22 22 23 24 26 27 27 27 28 28 27 28 27 27 28 30 31 33 34 37 38 37 36 37 34 32 31 31 31
37 37 37 34 31 27 29 28 30 24 25 25 25 26 26 26 26 27 28 29 29 29 29 28 29 29 30 31 32 33 35 36 37 38 39 38 35 35 29 27 26 26 27
39 37 36 34 31 26 25 24 27 28 29 27 26 25 26 26 27 28 30 31 31 31 31 31 32 34 35 35 36 37 38 39 36 35 37 38 36 31 29 24 25 26 26
42 39 36 34 32 28 26 24 23 23 25 25 26 27 28 28 29 30 32 32 33 32 33 33 34 35 37 37 37 38 38 37 36 35 34 33 32 30 31 27 23 25 26
47 41 34 33 35 30 29 27 25 25 24 24 25 27 28 29 30 31 32 32 33 33 34 35 36 37 37 37 36 36 36 35 34 32 32 31 30 30 31 33 30 27 27
51 38 34 34 35 31 30 29 28 29 30 30 30 30 30 30 30 31 33 34 35 36 36 36 36 36 36 35 34 33 32 32 31 32 31 32 31 31 31 33 33 33 31
42 40 39 37 37 32 29 29 32 32 33 32 30 31 30 31 32 33 34 35 36 36 35 34 34 34 33 32 32 32 32 33 33 33 33 32 33 33 34 34 33 33 32
30 26 50 37 37 36 33 30 31 32 31 30 29 30 32 34 35 35 35 36 36 35 34 33 33 32 32 32 32 32 33 34 34 34 34 35 35 34 33 33 32 32 32
23 29 29 34 41 43 39 33 32 30 31 33 35 36 36 37 37 37 36 36 35 35 34 34 33 32 32 32 32 33 34 35 35 35 35 35 33 31 30 29 29 29 31
23 25 28 35 39 40 39 40 40 39 40 39 38 38 39 39 38 37 36 35 35 35 34 33 32 32 32 32 33 34 34 35 34 34 32 30 27 26 26 25 26 26 27
18 25 30 32 32 34 39 41 41 41 40 39 39 38 37 37 36 35 34 33 34 34 33 33 33 33 33 33 33 33 31 30 28 27 24 22 23 23 22 22 23 22 20
9 14 29 24 25 29 36 37 37 37 37 36 36 35 34 32 31 31 32 32 33 33 33 33 33 33 33 32 31 29 28 26 24 22 21 21 20 20 20 20 18 16 14
8 8 17 21 25 26 29 30 30 31 32 32 31 30 29 29 30 31 32 33 33 33 33 33 32 31 31 30 28 27 25 24 23 22 21 19 18 18 16 13 10 9 7
14 9 9 14 18 20 22 24 26 27 26 26 26 28 29 30 31 31 32 33 33 32 32 30 30 29 28 27 25 24 22 22 21 20 18 17 15 10 5 5 7 8 9
19 12 10 13 17 19 20 22 22 23 23 23 25 26 29 30 31 31 31 31 31 30 29 28 26 24 24 23 22 21 20 19 18 16 15 11 7 6 6 7 9 10 12
24 19 19 17 20 20 20 21 21 21 21 22 25 27 28 29 29 29 30 29 29 27 26 24 23 22 22 21 20 18 17 15 15 13 12 10 7 7 8 9 11 13 14
26 27 24 24 23 21 20 19 20 21 21 23 25 26 27 26 26 26 26 26 25 24 22 22 22 21 19 19 16 15 14 13 13 12 10 9 8 8 9 11 13 15 16
22 23 27 28 26 24 23 21 20 21 22 24 25 26 25 26 26 26 24 24 22 21 20 20 18 18 17 16 14 14 14 14 13 11 10 9 9 10 12 13 15 15 16
18 16 22 25 26 24 23 20 20 21 22 23 24 25 26 26 27 25 24 23 22 21 20 19 17 16 16 16 15 16 15 13 12 11 10 10 11 12 13 14 15 16 17
23 20 24 27 25 20 19 20 20 21 21 24 24 24 25 26 25 24 24 23 22 20 19 19 17 17 16 17 18 16 13 13 12 11 11 11 12 13 14 15 16 17 17
24 25 25 26 22 20 20 20 21 21 24 23 22 23 23 23 23 22 23 23 23 21 19 18 17 16 17 17 16 15 14 12 12 13 12 12 13 14 14 15 16 17 17
24 27 26 26 24 22 21 22 23 24 22 21 21 21 21 21 21 20 19 21 20 20 18 18 18 18 17 16 15 14 13 13 14 13 13 13 14 14 15 16 17 17 17
17 21 24 23 22 21 20 19 19 18 18 18 18 17 17 17 16 16 16 17 18 18 17 18 17 16 16 15 14 14 14 14 14 14 14 15 15 16 16 17 18 18 18
12 15 19 20 21 22 19 19 19 15 14 15 15 14 13 14 14 14 13 15 16 16 17 17 17 16 16 16 16 16 15 16 16 16 16 17 18 18 18 19 19 19 20
13 16 20 22 23 24 22 17 17 17 13 13 14 13 11 10 11 12 13 14 15 16 17 17 16 17 17 18 17 17 17 18 17 18 19 20 20 20 21 21 21 21 22
13 17 21 26 25 22 20 18 19 18 17 15 14 13 11 9 9 10 12 13 14 15 17 17 18 18 19 19 20 20 20 20 20 21 22 22 22 22 23 24 24 24 24

GFSMW_700_spd_087.txt.gz
Wind_Speed
32 36 36 37 37 35 34 32 28 25 24 23 23 24 23 23 22 21 22 22 23 24 25 26 27 29 29 28 29 29 29 30 31 33 33 35 35 36 35 31 32 32 30
31 43 40 39 38 37 37 34 30 27 26 24 24 25 24 24 23 23 24 26 27 28 28 29 30 30 30 30 31 33 34 35 34 36 35 37 34 32 34 30 28 26 27
34 36 45 41 40 38 38 36 35 30 31 29 27 26 24 23 24 26 27 29 29 30 31 31 31 32 33 33 34 36 37 37 36 35 34 36 36 34 32 29 25 25 28
37 33 47 50 44 40 37 34 35 35 34 30 30 28 23 23 26 26 27 29 31 33 32 33 33 34 34 35 35 37 37 37 37 35 33 32 35 33 32 29 27 26 28
45 34 48 52 49 42 35 35 31 28 29 31 33 38 30 29 33 32 31 32 32 33 34 34 34 35 36 37 37 36 36 36 37 35 33 31 30 32 32 32 28 29 29
36 31 40 46 45 41 37 36 32 29 27 25 25 25 26 28 30 31 32 32 33 33 34 35 36 37 36 36 35 35 34 34 32 31 31 31 32 32 32 33 32 32 31
28 35 37 44 44 42 37 37 33 31 29 27 28 28 29 30 31 31 31 31 32 33 34 35 35 35 35 35 34 33 31 31 31 31 32 32 33 33 33 34 34 34 33
34 33 44 46 41 39 33 33 36 37 34 29 29 32 31 30 30 31 32 33 35 35 35 35 35 34 34 34 33 32 32 33 33 34 34 34 34 33 36 34 33 33 31
22 28 37 54 49 40 35 35 37 37 38 32 35 38 40 35 33 34 36 36 37 37 37 36 36 35 34 33 33 33 33 33 34 35 35 35 35 34 32 32 30 29 28
19 22 30 32 44 46 37 35 37 33 33 35 35 34 34 36 37 38 39 40 40 40 39 37 36 35 34 33 33 33 33 34 34 34 34 33 31 29 28 26 24 24 25
14 21 23 27 33 31 41 44 34 37 41 38 37 38 39 40 40 41 41 40 39 39 38 37 36 35 34 33 34 34 34 34 32 31 30 27 26 24 22 23 22 21 22
9 11 19 27 30 33 38 43 41 40 41 41 42 41 40 41 42 41 39 37 35 35 35 35 36 35 35 35 35 35 33 32 29 28 26 23 22 21 20 20 19 19 17
3 5 10 13 28 29 31 31 33 37 37 37 37 37 39 38 38 37 36 35 35 35 35 35 36 36 36 35 34 33 30 29 27 25 23 22 21 20 18 18 15 11 7
15 18 13 11 18 23 27 27 28 31 33 34 34 33 33 32 32 32 32 33 35 36 36 35 34 34 33 32 31 29 27 25 24 23 22 20 19 17 16 10 7 8 8
33 30 21 14 12 15 19 21 23 25 27 28 28 28 28 28 30 30 32 33 34 35 34 34 33 32 30 29 27 26 24 22 22 20 20 18 16 13 11 9 9 9 10
26 31 26 21 17 15 17 19 21 22 23 24 24 25 26 27 28 30 31 31 32 32 32 31 30 28 27 24 24 23 22 21 20 18 17 15 13 12 10 10 10 11 12
25 27 28 24 23 20 20 20 22 22 22 21 22 24 26 28 28 29 29 28 29 29 29 27 26 25 24 23 23 21 20 17 17 17 15 14 13 12 11 11 12 13 14
26 24 28 29 23 26 24 23 22 20 20 21 22 24 26 27 28 28 29 29 28 27 26 25 23 21 21 20 20 19 18 16 16 16 15 15 14 12 12 12 13 14 14
24 23 23 26 29 31 28 25 23 20 20 21 22 25 26 27 27 28 29 30 28 27 25 23 21 21 19 19 18 18 16 17 17 16 16 14 13 13 14 14 14 14 14
25 24 22 22 24 26 28 25 21 21 21 22 25 26 26 27 28 28 28 28 27 26 25 22 21 20 19 19 18 18 18 18 17 16 15 14 14 14 14 14 14 14 15
22 26 26 22 21 26 24 21 22 21 23 25 26 27 27 27 27 27 26 27 26 25 24 22 21 21 20 19 19 19 19 17 16 15 15 15 16 15 15 15 15 15 15
18 27 26 23 24 24 23 21 20 22 24 26 27 26 25 25 25 25 25 24 24 23 23 22 21 20 19 18 19 19 18 17 16 16 16 17 16 16 15 16 16 16 16
12 19 22 22 23 24 24 22 22 22 23 22 22 22 22 21 23 23 23 22 22 20 20 20 20 18 18 19 19 18 18 17 17 17 18 18 17 17 17 17 17 18 18
7 12 17 20 22 23 23 23 22 21 22 22 19 19 19 20 20 20 20 19 17 17 18 18 17 17 18 18 18 19 19 20 20 20 19 19 20 19 19 18 19 19 20
8 9 12 17 20 23 24 25 25 23 22 22 19 18 19 18 18 16 16 16 16 15 15 16 17 17 18 19 19 20 20 21 21 21 21 21 22 21 20 20 21 22 22
10 12 15 18 21 25 27 27 29 28 23 20 19 20 20 19 17 14 13 12 12 12 14 16 17 19 20 20 20 21 22 22 22 22 23 23 23 23 23 22 23 24 24

GFSMW_700_spd_090.txt.gz
Wind_Speed
26 34 26 30 34 35 35 33 34 32 30 30 31 30 30 30 27 27 24 21 20 19 19 20 22 23 25 26 26 26 27 27 29 32 32 32 32 32 31 32 31 27 26
27 35 35 30 34 34 35 36 35 33 30 30 28 25 25 25 22 21 21 21 19 20 22 25 25 26 27 27 27 29 30 31 32 34 35 36 31 30 31 28 28 28 27
27 34 35 36 34 35 37 37 36 34 33 29 30 27 24 23 22 22 21 20 22 24 25 26 27 28 29 29 30 31 33 34 34 34 36 36 35 33 31 29 28 26 27
29 32 34 37 39 37 39 39 38 38 36 35 32 28 26 25 29 31 29 23 22 24 25 27 29 30 31 31 32 33 35 36 37 35 34 33 32 33 31 28 29 27 28
30 36 40 39 40 43 40 41 42 41 41 38 35 32 29 31 27 30 32 28 25 29 33 31 31 31 32 34 35 35 36 36 36 34 33 32 31 30 32 32 26 29 29
27 30 37 42 41 43 43 45 46 43 40 37 38 38 34 35 34 36 38 33 31 31 37 31 31 32 33 34 34 34 34 34 33 31 30 30 30 30 31 33 30 28 31
25 25 42 52 48 47 41 40 46 44 40 32 32 44 28 26 26 26 29 29 30 31 29 30 31 31 32 33 33 33 33 32 31 30 30 30 30 32 32 34 31 28 34
25 27 27 37 49 47 39 36 38 38 36 33 32 30 29 28 29 29 28 29 30 29 30 31 32 33 33 34 34 34 33 32 32 32 32 32 32 33 31 32 34 32 35
27 27 28 29 32 35 37 36 34 34 34 34 31 32 29 27 28 29 32 33 35 36 36 36 37 36 35 35 36 35 34 32 33 33 33 33 33 33 33 33 33 33 32
18 26 27 26 28 31 39 41 35 35 33 34 35 39 40 43 38 37 37 39 37 38 39 40 39 39 38 37 36 36 35 33 33 33 33 32 32 32 31 29 28 26 25
14 17 19 20 28 25 30 46 48 39 30 33 31 33 31 32 32 36 37 39 39 40 41 41 40 39 38 37 36 35 34 34 33 33 33 31 31 29 27 25 23 22 22
10 10 10 17 22 27 29 33 40 47 29 39 46 35 24 34 39 40 39 40 41 42 40 39 39 38 36 36 36 35 34 34 33 32 32 30 28 25 23 22 21 20 20
11 10 9 9 14 23 29 29 28 24 28 30 37 34 32 39 40 40 41 43 41 39 37 37 36 35 36 36 36 36 34 33 32 30 29 26 26 23 22 20 20 19 17
18 15 11 12 13 13 19 24 27 31 33 34 33 33 34 35 36 36 35 35 34 34 33 34 34 34 35 35 35 34 33 31 30 28 26 25 23 22 20 18 17 13 10
31 25 24 23 21 16 16 19 23 25 27 25 25 27 30 31 30 30 30 30 31 32 32 33 32 32 33 33 32 31 29 28 26 24 23 22 20 18 16 15 13 12 11
31 25 29 31 27 22 17 16 17 19 20 21 23 24 25 25 27 27 28 29 30 31 31 31 31 30 31 31 29 28 26 25 23 23 21 20 18 17 15 15 14 12 11
29 29 35 31 28 24 20 17 16 17 19 20 21 22 23 23 25 26 28 29 30 30 29 29 29 29 28 27 27 26 24 23 22 20 19 17 16 15 15 14 12 12 12
27 28 29 26 22 26 24 22 20 19 20 19 19 19 21 23 24 26 28 28 29 29 29 29 29 26 25 24 24 23 22 20 19 18 17 17 17 16 14 14 12 13 14
22 24 23 22 18 26 26 23 25 24 22 20 19 20 22 22 23 26 27 28 29 29 29 28 28 25 22 22 21 21 19 17 16 16 16 17 16 15 14 14 13 14 14
19 20 23 19 20 22 27 30 27 25 20 20 21 22 22 24 25 27 28 28 29 30 28 27 26 24 21 21 20 19 17 16 16 17 17 17 16 15 15 14 14 14 14
18 20 20 21 22 21 19 22 24 21 19 21 22 23 25 27 27 27 27 27 27 27 26 25 24 22 21 19 19 17 17 17 18 18 18 17 16 16 15 15 14 14 14
15 17 18 24 21 17 17 19 19 19 20 20 22 25 26 26 26 25 25 25 25 24 24 23 23 21 20 19 18 17 18 18 18 17 17 17 17 16 16 16 15 15 16
7 10 13 19 17 16 18 20 19 19 20 21 23 24 23 23 23 22 23 24 24 23 22 21 19 19 19 18 17 17 18 18 18 18 18 18 18 18 17 17 17 17 17
3 4 9 13 16 18 20 20 21 22 22 23 23 24 25 22 21 21 22 23 22 21 19 17 17 18 18 17 17 18 19 19 19 20 19 19 19 18 19 19 19 19 19
4 3 4 9 14 17 19 21 23 23 24 25 25 24 21 20 20 20 21 20 20 18 16 16 16 16 16 18 17 18 19 19 20 20 20 20 20 20 20 21 21 22 21
5 6 8 10 12 15 18 22 25 27 29 27 28 29 21 21 20 20 20 18 17 14 11 10 11 13 16 17 18 19 20 21 21 21 21 22 22 22 22 23 22 23 24

GFSMW_700_spd_096.txt.gz
Wind_Speed
22 22 21 22 25 27 27 26 25 24 24 26 27 30 30 28 30 30 30 30 31 30 29 29 27 25 21 19 18 18 20 21 22 23 24 23 25 23 26 27 27 28 27
26 25 25 24 23 26 27 28 26 25 25 26 26 26 27 28 29 30 29 30 30 26 25 27 23 19 18 19 19 20 22 24 25 27 28 28 27 29 27 27 27 27 27
30 31 28 27 25 24 23 23 24 25 27 25 27 28 28 29 29 29 29 27 24 24 22 25 27 30 30 30 28 20 22 25 26 28 31 33 32 31 32 30 28 28 28
33 33 35 34 31 29 26 25 24 24 25 26 27 27 27 30 27 27 26 27 28 28 27 29 28 30 35 36 36 23 26 28 29 31 31 34 34 32 32 30 29 31 29
33 31 33 36 35 34 32 31 30 29 27 27 28 29 29 29 28 29 29 29 29 29 31 29 29 28 27 33 26 28 28 30 31 32 32 33 33 32 30 32 31 31 32
33 31 31 33 35 36 37 35 32 32 32 32 32 31 32 30 32 33 33 31 31 31 32 29 24 26 24 29 29 28 29 29 32 32 33 33 32 31 31 31 31 32 33
26 26 27 36 39 38 36 36 35 33 32 32 35 37 34 33 33 33 33 33 32 29 29 27 24 25 26 26 26 28 28 32 36 36 34 34 33 32 31 32 32 34 35
21 23 24 27 39 40 39 39 36 34 35 33 32 32 33 35 36 35 36 36 31 34 33 25 24 27 28 31 27 27 30 36 40 38 36 35 34 34 33 33 33 34 36
21 22 24 22 18 20 28 34 38 38 37 36 35 33 33 34 35 37 38 37 39 48 36 33 33 31 31 33 32 32 31 41 40 38 38 38 36 34 34 34 34 34 36
19 20 21 22 22 23 22 21 25 30 33 34 30 27 29 34 35 35 37 29 27 25 24 27 33 31 32 35 36 33 39 38 38 36 36 36 35 34 34 34 34 34 34
26 27 27 20 25 27 25 24 23 25 25 25 24 26 30 34 36 31 27 26 27 28 32 35 37 39 34 29 32 38 38 38 37 36 35 35 34 34 33 33 33 33 32
13 17 20 20 20 24 25 25 25 25 24 27 31 28 28 31 32 37 44 40 32 36 39 40 43 41 38 34 37 41 40 38 37 36 35 35 34 34 34 33 33 31 30
8 9 13 17 18 20 22 24 23 21 24 26 32 33 34 38 37 46 50 40 27 18 25 24 25 31 35 39 39 42 40 38 38 37 35 34 33 32 31 31 30 29 28
14 12 12 12 12 10 9 12 16 20 25 27 29 30 33 30 33 23 33 29 22 23 28 31 33 35 36 35 35 36 36 37 36 35 34 33 31 30 30 29 28 27 25
18 20 20 21 21 19 17 11 12 16 20 27 28 28 28 27 30 28 26 25 22 24 30 33 33 32 32 34 33 33 34 34 34 33 32 31 29 28 28 27 25 24 23
22 24 26 26 23 25 27 25 22 17 18 20 22 25 27 29 28 26 22 21 24 28 29 28 29 31 32 32 33 32 31 31 32 31 30 29 28 26 25 24 23 22 20
27 31 28 28 27 24 24 25 25 25 21 21 21 22 22 22 22 21 22 23 24 25 26 28 29 30 31 31 31 31 30 30 30 29 28 27 26 25 24 23 22 20 18
24 26 27 27 26 26 25 23 23 23 22 23 20 18 18 18 19 20 20 20 22 24 25 27 28 29 29 30 30 30 30 29 28 26 25 24 24 23 21 21 19 18 18
25 24 25 26 26 24 23 22 21 21 23 23 20 17 17 18 18 18 18 20 23 25 27 29 30 30 29 30 29 28 28 27 25 24 22 21 20 19 19 18 18 17 16
22 21 23 25 25 22 22 21 20 22 22 21 20 19 19 19 18 18 20 22 25 28 30 31 31 30 29 29 28 28 27 25 23 21 19 18 17 16 16 17 18 16 16
19 19 20 21 21 20 20 19 18 20 21 24 22 21 19 19 19 20 21 24 27 28 28 28 28 28 28 27 26 25 24 23 21 19 17 16 14 14 15 17 18 16 16
19 19 19 18 18 17 17 17 15 18 24 25 24 22 20 20 20 20 22 24 26 25 25 25 26 27 27 26 24 23 22 21 20 17 16 16 15 15 16 17 17 14 19
14 15 15 15 15 16 17 17 17 19 21 24 26 23 21 20 20 21 22 24 25 24 23 23 24 25 24 23 23 20 20 20 19 18 18 15 14 17 18 14 16 22 20
8 8 8 8 10 14 16 17 17 16 17 18 20 20 20 21 22 23 23 26 23 23 24 23 23 23 21 20 19 18 17 19 20 22 22 16 15 17 18 21 22 21 20
6 5 3 4 6 10 13 15 15 17 18 19 19 20 22 24 26 25 27 27 25 23 23 22 21 21 19 20 17 16 15 18 20 18 8 15 18 18 22 22 22 21 21
2 3 3 3 3 6 9 12 15 17 19 20 22 24 26 27 29 27 28 23 22 22 22 19 19 18 17 16 14 14 15 15 17 16 12 15 19 23 23 23 23 23 23

GFSMW_700_spd_099.txt.gz
Wind_Speed
16 20 28 28 33 34 35 35 32 27 25 26 27 27 26 30 33 30 32 32 30 30 30 30 31 31 29 27 24 21 20 20 21 22 22 22 23 25 24 25 26 27 26
21 20 18 23 30 30 27 26 25 24 23 24 23 24 24 24 25 26 26 26 27 28 29 30 29 25 19 29 23 19 21 28 26 22 25 27 25 28 29 28 29 27 24
24 22 22 21 20 22 27 27 23 24 23 24 25 24 24 26 26 27 26 25 26 26 27 24 22 25 25 22 22 21 27 35 32 23 27 31 31 32 31 31 31 29 27
30 27 26 26 24 22 22 23 28 27 27 27 26 25 25 26 24 25 26 25 25 26 27 26 26 26 24 22 25 31 26 30 20 24 28 31 33 33 35 33 32 33 29
35 34 33 32 31 28 26 25 26 25 26 25 26 25 25 24 24 25 26 27 28 28 28 30 30 29 26 22 21 21 28 29 25 27 28 29 32 33 34 35 34 34 33
31 33 32 31 30 32 32 31 30 30 29 26 26 26 25 26 26 26 28 29 31 31 31 30 32 31 28 28 24 23 24 23 24 28 26 32 35 33 35 35 35 34 35
31 34 31 31 31 32 33 33 34 34 32 32 32 32 30 30 30 29 29 31 30 31 30 30 29 27 24 22 19 22 25 24 27 29 32 34 36 37 36 36 36 37 36
29 33 32 32 30 28 31 33 34 31 32 33 33 32 34 33 33 31 32 33 32 32 35 35 34 24 32 33 32 29 29 30 30 33 33 36 39 38 37 37 36 37 38
19 23 26 29 28 26 30 35 36 35 33 32 31 32 33 32 30 29 30 33 33 34 35 34 43 36 35 41 43 30 32 35 34 35 38 39 40 38 38 37 36 36 38
21 22 20 22 22 22 23 25 29 35 37 34 36 34 33 33 34 32 31 30 32 33 32 36 36 31 28 30 28 32 35 33 33 32 33 38 38 38 38 36 36 36 36
18 20 19 18 18 24 26 25 25 26 28 31 32 31 28 26 26 25 25 28 32 35 31 28 27 27 29 31 36 37 37 38 39 36 38 40 39 39 38 37 36 36 36
16 20 23 25 24 22 26 30 26 25 24 24 25 24 23 20 20 23 25 26 29 34 32 34 39 40 35 38 41 39 40 37 36 39 43 41 39 38 38 36 36 37 35
13 12 14 17 21 19 19 22 22 22 22 23 27 26 25 24 24 23 24 22 27 36 46 48 43 38 27 25 26 31 35 36 38 38 37 38 36 36 35 35 35 34 33
8 6 7 10 12 12 11 12 14 18 21 23 25 27 27 29 29 29 32 35 34 31 39 44 31 25 25 27 29 34 36 36 35 36 36 35 35 34 33 33 33 33 30
13 13 13 13 13 13 14 13 11 12 14 17 21 26 29 30 30 30 30 28 29 26 23 23 23 24 27 28 31 34 33 34 34 34 33 33 32 31 31 31 31 29 28
23 22 19 17 16 19 20 24 25 22 18 15 17 20 24 28 29 29 28 29 25 24 25 24 23 25 27 30 32 32 33 33 32 32 32 31 30 30 30 29 27 26 24
28 28 29 28 27 26 25 25 27 31 29 25 20 21 22 25 28 29 27 25 24 24 22 22 24 26 28 29 30 30 31 31 31 31 31 31 30 29 27 26 25 23 23
24 24 25 29 29 27 27 25 24 26 28 30 28 25 25 26 26 25 24 23 22 21 21 23 24 26 28 29 29 30 31 30 30 31 31 30 28 27 25 23 23 21 20
24 24 29 28 26 26 26 26 26 25 27 28 27 26 26 24 23 22 22 21 20 21 22 24 26 28 30 30 30 30 30 31 31 30 29 28 25 23 22 20 19 18 18
23 23 25 24 24 23 25 23 22 23 23 24 23 24 23 22 22 22 20 19 20 21 23 26 28 29 31 30 30 29 30 30 29 27 25 23 22 20 19 18 17 17 17
16 17 18 19 20 22 22 21 22 21 20 23 24 24 22 21 21 20 19 20 20 22 25 27 28 28 28 27 28 28 29 29 26 25 23 21 19 18 16 15 15 15 16
17 18 19 20 20 19 20 19 18 18 21 24 26 25 23 22 20 21 21 21 22 23 25 27 27 26 27 27 27 27 27 26 24 23 21 19 17 16 15 13 14 15 17
14 14 15 15 16 17 18 19 20 22 23 24 24 25 26 24 24 24 22 22 23 25 25 25 25 26 26 27 26 26 24 24 21 20 20 18 19 20 15 16 17 17 17
11 11 10 10 11 13 17 19 23 24 22 22 23 26 26 27 27 22 23 24 25 27 27 27 25 24 26 25 25 24 23 21 20 20 19 20 21 16 14 18 21 19 14
9 8 8 6 5 6 11 15 19 19 20 18 18 20 24 23 21 24 25 27 29 28 27 25 23 24 24 23 21 20 19 18 18 18 19 19 18 17 19 23 21 16 18
4 4 5 6 4 5 8 10 12 12 14 18 20 20 20 23 25 27 28 29 30 29 28 25 25 24 23 21 18 18 17 16 17 15 14 16 9 16 18 20 21 23 25

GFSMW_700_spd_102.txt.gz
Wind_Speed
33 33 30 30 31 36 32 31 29 37 39 45 39 35 32 35 34 33 30 26 25 24 28 29 30 30 30 28 23 20 21 21 19 19 21 24 23 21 21 23 24 24 24
36 34 32 31 32 34 32 33 29 25 28 23 23 33 28 28 30 27 26 23 20 19 22 24 25 25 26 23 18 20 27 21 25 30 36 35 24 21 22 23 23 24 23
33 30 29 34 32 32 34 32 27 19 29 30 28 23 30 31 28 22 21 20 19 19 20 22 24 25 20 21 25 19 21 20 23 26 32 30 23 23 24 25 26 26 26
31 30 27 25 25 23 24 27 28 31 31 25 23 23 21 21 20 23 21 22 22 22 24 24 24 27 23 25 28 24 18 27 25 26 25 22 22 29 28 28 30 30 29
31 29 28 26 22 22 21 20 22 29 32 31 30 29 28 29 25 24 24 24 23 23 25 26 28 29 28 30 29 22 15 20 22 25 26 23 24 25 33 36 34 34 33
34 35 33 30 30 31 29 26 25 24 25 26 26 27 27 28 29 24 25 24 25 25 25 25 27 29 31 33 20 22 26 19 22 21 20 28 25 25 30 38 37 36 35
42 41 34 30 29 30 30 32 32 31 30 29 28 27 26 26 25 25 26 25 26 26 26 26 27 29 30 33 31 25 28 20 18 29 32 32 29 29 33 36 38 39 37
28 31 35 32 29 27 26 27 31 34 34 32 32 31 31 30 29 30 29 30 30 29 28 28 28 31 32 31 33 29 24 25 34 32 31 31 31 34 34 36 39 40 39
17 20 26 32 31 30 28 27 29 32 33 32 30 30 31 30 30 30 31 29 28 29 28 28 28 29 28 29 31 32 39 36 35 32 33 34 36 35 32 32 36 40 40
17 16 14 21 29 31 30 27 26 28 32 33 32 30 29 29 30 30 30 30 29 28 27 28 29 27 27 31 32 32 32 30 30 31 34 36 37 42 39 35 37 41 39
16 17 18 17 18 19 24 26 25 23 22 25 28 31 32 31 32 33 33 33 32 28 25 25 26 30 35 35 31 32 32 35 35 36 39 43 47 43 39 38 40 40 37
18 19 19 18 17 18 19 24 23 22 21 20 22 26 28 30 29 28 26 25 22 22 21 21 25 28 33 36 34 36 38 37 41 41 34 34 36 35 36 36 37 37 37
13 15 18 22 24 25 23 22 25 25 24 24 25 23 23 25 24 22 19 19 19 20 21 22 25 29 37 41 45 43 41 34 32 33 33 33 34 35 35 34 34 33 33
9 8 9 11 14 16 19 21 21 23 24 24 24 23 23 25 24 23 23 23 21 23 26 29 29 30 31 41 27 24 26 30 31 31 32 34 34 33 34 33 32 32 31
10 8 7 7 8 9 10 12 13 15 16 18 20 22 23 24 25 26 27 27 28 28 28 27 27 25 22 21 23 27 28 28 29 31 32 34 33 32 32 31 30 29 29
13 11 11 10 12 13 15 17 18 19 17 15 15 18 19 22 26 28 27 27 26 27 28 28 25 23 24 25 25 25 27 27 28 28 30 31 31 31 30 30 28 28 27
23 20 18 18 18 19 20 21 23 23 24 26 26 21 20 21 21 24 28 28 26 26 29 26 24 24 25 25 25 25 26 28 29 29 30 29 29 29 29 28 27 26 25
30 27 25 23 24 25 25 26 26 27 26 27 30 31 30 26 24 23 24 26 27 26 25 24 24 24 25 25 26 27 29 29 29 29 29 29 30 29 27 26 25 23 22
35 36 33 29 26 25 26 26 27 27 27 26 27 29 32 32 28 26 25 24 24 23 23 23 23 24 26 27 28 29 29 29 28 28 28 27 27 27 26 24 22 21 19
22 23 24 24 24 25 26 27 26 27 25 24 25 27 28 28 26 26 25 22 22 22 22 22 23 25 27 28 28 27 27 27 27 27 28 26 25 24 22 21 19 18 17
14 16 18 20 22 23 25 25 24 23 21 24 25 24 23 23 24 24 23 22 21 20 21 22 23 25 28 29 28 26 26 26 27 27 27 24 23 21 19 18 16 15 14
13 16 18 18 20 21 23 23 22 23 24 25 24 23 23 23 24 23 23 22 22 21 22 22 24 25 28 27 27 26 25 26 26 26 26 24 20 19 18 17 15 13 13
12 12 14 15 16 17 19 21 21 22 24 25 24 23 24 26 25 25 24 23 23 23 23 24 25 27 27 26 26 26 26 24 24 24 24 22 19 18 19 20 19 15 17
10 10 10 10 11 12 15 17 19 21 23 24 23 24 25 27 27 26 26 27 26 24 25 27 27 27 26 24 25 24 23 23 22 22 20 19 16 17 18 22 18 17 18
10 10 8 7 8 8 8 12 16 19 21 23 22 22 23 26 27 29 29 26 23 26 28 30 29 25 23 23 23 23 21 21 20 19 16 14 14 17 19 19 17 18 20
9 6 5 5 5 5 6 7 10 14 16 16 17 16 18 20 23 26 23 23 26 28 30 30 30 27 24 25 24 22 20 18 17 12 12 13 13 13 14 17 17 20 19

GFSMW_700_spd_105.txt.gz
Wind_Speed
28 29 29 25 25 36 29 24 53 51 49 40 31 30 29 31 31 31 30 25 26 27 24 24 25 25 25 26 27 24 19 17 17 18 20 19 18 27 26 22 19 18 19
29 27 26 29 33 31 28 23 21 33 46 48 34 29 34 30 31 31 33 30 30 27 24 25 22 22 24 23 23 22 21 19 20 22 29 25 26 29 28 19 16 16 18
33 32 31 31 34 32 29 31 29 29 34 47 39 38 45 42 38 37 29 27 27 25 23 21 19 19 19 20 19 20 22 19 18 19 19 18 23 31 23 17 15 20 23
34 34 33 33 31 27 30 31 32 33 32 17 25 26 28 31 42 35 37 27 22 21 23 20 21 19 22 24 25 26 28 25 25 12 27 23 30 30 24 25 27 28 29
33 33 31 30 29 29 28 28 31 34 26 22 25 28 22 17 20 19 16 21 21 20 25 23 23 23 25 26 25 29 33 11 11 20 21 26 23 23 27 25 29 26 30
34 32 30 28 27 26 24 23 22 24 27 29 27 27 24 26 28 27 22 21 25 25 26 23 23 23 25 26 28 30 25 39 24 16 19 18 24 29 27 32 32 31 29
35 35 32 31 31 30 29 28 27 24 23 25 26 27 28 28 26 25 23 25 26 24 25 24 25 25 25 24 26 26 26 28 18 20 23 24 30 32 32 32 33 35 36
29 36 37 37 36 33 33 32 30 29 30 28 28 28 28 27 26 26 26 26 26 27 27 27 27 28 27 25 24 23 23 21 17 22 27 34 39 36 33 33 35 38 39
22 27 43 38 39 36 34 30 33 34 35 34 33 32 31 29 29 29 30 30 30 30 30 29 29 29 28 29 26 25 23 24 29 32 35 34 34 33 35 37 37 40 45
15 17 20 23 34 39 35 32 31 31 33 32 33 34 33 33 33 33 32 31 31 31 29 28 28 28 27 26 26 27 28 30 26 28 30 32 32 33 36 39 41 45 46
14 13 15 13 20 33 33 32 31 30 30 29 31 33 34 33 32 32 31 31 31 31 31 32 31 29 26 22 24 26 28 31 33 31 34 34 35 38 41 38 37 38 37
15 13 12 12 12 17 22 26 28 29 28 24 24 25 27 30 32 32 31 31 31 32 31 29 26 25 22 21 23 26 32 32 35 37 41 40 42 37 35 34 33 33 33
14 14 15 15 15 16 18 21 23 23 22 22 21 21 22 24 27 28 27 26 25 25 24 22 21 21 22 23 28 31 32 32 35 35 36 30 32 33 32 31 30 31 32
10 10 10 13 17 21 23 23 24 27 29 27 25 24 24 25 24 24 25 24 23 20 20 21 21 21 24 28 28 26 24 23 22 26 28 30 31 30 30 30 30 29 30
13 12 10 9 10 12 14 17 21 22 23 24 25 27 27 26 24 22 23 23 24 23 22 22 23 26 26 25 25 23 22 23 25 26 27 27 27 27 28 28 29 29 29
16 14 13 11 9 9 10 10 11 12 13 13 15 18 20 22 22 22 22 24 25 25 26 26 26 25 25 24 24 22 23 25 26 25 25 26 27 27 27 26 27 28 28
20 19 17 15 15 13 13 14 15 16 18 19 20 20 18 18 19 21 22 25 26 27 26 26 26 25 26 24 22 23 25 26 26 26 27 28 29 28 29 29 28 28 27
26 25 22 19 18 17 17 22 24 25 23 23 24 25 26 28 27 24 23 23 24 26 26 26 25 25 24 23 23 24 26 27 28 29 29 29 28 28 28 27 26 25 25
28 27 27 27 27 28 30 28 29 28 28 28 27 27 28 30 32 32 29 27 25 26 27 26 24 23 22 22 23 26 27 28 30 29 28 28 27 26 26 25 24 22 21
32 30 28 27 27 28 28 28 28 28 26 25 27 29 30 29 28 29 29 28 28 27 25 23 22 21 22 24 25 27 29 29 28 27 26 26 25 24 23 22 20 19 17
14 16 19 22 23 25 26 26 27 25 23 25 27 28 27 26 27 26 25 25 24 24 22 21 21 22 23 24 25 26 26 26 26 26 26 25 24 23 21 20 18 16 16
10 13 15 18 20 21 23 23 23 22 22 24 26 27 25 25 24 23 23 22 22 21 22 22 22 23 24 25 26 27 25 24 25 25 25 25 23 21 19 17 16 15 15
10 11 14 16 16 18 20 21 21 20 20 22 24 25 24 23 22 22 22 22 22 22 22 23 24 26 25 25 26 27 26 24 24 23 22 24 22 19 17 15 15 15 16
10 10 10 10 12 12 14 16 17 16 16 19 21 22 21 21 22 23 23 24 23 25 26 27 27 27 26 26 25 26 25 23 21 21 20 20 19 17 16 15 14 17 19
11 11 11 10 10 9 9 10 12 13 14 17 19 22 21 22 22 24 26 27 29 30 30 25 26 27 29 28 25 23 24 22 19 18 18 17 15 13 14 16 18 18 18
13 12 9 9 8 7 7 6 5 8 12 15 18 18 18 19 21 24 24 27 27 27 27 26 28 28 30 30 26 24 21 20 17 14 15 14 14 14 15 16 16 16 16

GFSMW_700_spd_108.txt.gz
Wind_Speed
27 23 25 25 29 46 34 34 31 29 33 35 37 38 37 35 35 34 32 31 29 27 25 23 23 23 25 25 25 23 24 23 22 21 18 19 21 22 22 27 24 22 16
21 21 26 30 31 35 47 35 30 28 30 37 38 37 36 34 33 33 33 33 32 27 22 23 25 26 27 26 24 22 21 22 22 20 17 16 19 23 27 25 22 17 15
22 22 25 22 28 29 43 38 26 28 35 39 46 39 39 39 32 31 32 32 28 27 25 28 26 25 25 23 21 16 15 19 21 17 17 16 19 22 22 26 23 24 24
30 30 27 28 23 17 47 32 28 33 45 46 48 48 42 52 40 33 29 29 27 30 33 34 35 24 25 21 19 17 18 25 29 24 19 14 19 25 27 20 20 23 26
34 34 31 30 24 25 25 26 25 27 33 49 60 53 66 40 35 52 42 29 36 35 33 42 17 25 26 22 20 23 27 22 16 24 20 23 23 22 25 24 27 25 29
27 27 28 28 26 26 25 26 30 28 20 25 23 20 16 23 28 19 42 32 31 35 37 20 26 27 26 25 25 24 24 27 22 23 27 24 23 20 24 29 32 34 34
30 31 30 29 31 29 30 31 31 29 27 29 27 26 24 25 19 19 21 15 20 21 22 24 24 22 22 25 25 24 23 23 22 21 17 20 21 22 27 35 39 39 37
40 37 33 31 28 26 26 28 28 27 25 23 23 25 25 24 22 22 24 22 23 24 23 24 25 25 25 26 27 26 24 24 21 20 18 22 26 28 33 37 37 36 37
41 40 37 32 31 31 30 29 29 28 25 23 22 22 21 22 21 19 20 22 24 25 25 26 27 28 29 29 29 28 28 23 21 21 24 25 25 28 31 35 34 35 38
33 31 35 30 38 35 32 34 32 31 29 27 28 28 27 27 27 26 26 27 28 28 29 30 31 30 30 29 28 27 25 22 24 26 26 28 28 30 33 33 35 37 40
19 24 24 26 32 36 34 36 35 33 31 30 29 29 31 32 33 33 32 32 32 32 32 31 31 31 32 33 30 25 22 22 23 25 29 30 31 34 37 36 39 37 36
16 14 16 19 22 29 38 41 38 34 32 30 28 28 29 30 31 32 31 31 31 31 31 31 32 33 32 30 26 25 24 26 27 29 29 31 34 38 33 36 33 34 36
16 15 14 16 17 16 29 35 34 31 30 29 27 26 26 27 27 28 30 32 32 32 32 32 31 30 28 26 24 23 25 27 29 31 30 31 31 27 29 33 34 33 33
9 11 14 15 14 17 20 24 26 27 26 26 24 23 22 22 22 23 24 27 28 28 28 27 26 26 25 23 22 23 26 26 27 26 24 25 27 28 30 31 31 30 30
9 9 9 13 17 20 21 22 24 26 27 27 27 27 26 25 26 26 26 27 27 27 26 25 24 25 24 24 24 25 25 25 26 26 26 27 27 28 28 28 29 29 28
14 14 13 12 11 13 16 20 22 22 23 27 28 28 27 28 28 27 26 25 25 26 26 25 25 25 26 26 26 26 26 26 26 25 25 26 27 28 28 29 29 30 30
15 16 16 15 12 12 12 13 14 15 17 19 20 20 20 18 19 21 23 25 25 26 27 28 28 28 28 27 27 26 26 26 25 24 25 28 29 30 31 30 30 29 28
23 22 20 18 16 14 14 14 15 17 19 20 21 23 23 24 24 23 22 23 24 26 27 28 28 28 28 26 26 24 25 24 24 26 27 29 30 31 30 29 29 28 28
26 26 28 28 25 23 22 21 23 24 24 27 27 26 28 28 29 29 29 29 26 25 25 28 28 27 26 24 23 23 22 24 25 27 29 29 29 28 27 28 28 27 26
23 25 27 29 31 31 32 33 32 35 32 30 30 30 29 30 29 28 28 29 30 31 30 28 26 26 24 22 22 23 23 24 26 28 29 28 27 26 26 26 25 24 23
24 20 23 25 29 33 34 32 32 31 31 30 30 30 30 29 29 30 30 30 30 29 28 28 26 24 23 23 23 23 24 26 27 28 27 26 27 25 24 24 23 22 20
6 8 18 15 17 20 23 26 27 27 27 27 28 29 29 29 29 27 27 27 27 27 26 25 24 24 23 24 24 24 25 25 26 26 26 25 26 26 25 23 21 20 19
11 12 13 16 20 21 20 22 23 24 23 24 25 26 27 26 25 24 23 23 24 24 25 25 25 24 24 26 25 26 25 25 27 25 24 25 23 24 24 23 21 19 18
12 12 13 14 16 17 20 18 19 19 19 21 23 24 24 23 22 22 22 24 25 25 26 25 26 26 28 29 28 27 27 28 26 25 23 23 22 23 21 19 18 17 17
13 13 13 14 13 12 13 15 15 14 15 16 17 19 20 21 21 21 22 24 27 29 28 28 30 31 31 30 27 28 28 29 25 24 23 22 22 20 17 16 15 16 18
15 14 15 13 13 11 11 11 11 9 11 11 12 15 17 18 17 19 23 25 27 27 30 32 32 28 26 25 28 28 29 29 23 21 21 21 20 18 17 16 16 17 18

GFSMW_700_spd_111.txt.gz
Wind_Speed
19 18 15 13 18 28 35 42 39 34 36 40 42 43 44 44 43 41 39 36 33 30 27 24 22 20 18 19 20 21 21 21 20 20 20 18 16 18 22 26 25 24 22
25 22 18 19 16 41 36 45 44 36 33 33 36 38 41 43 42 41 39 36 34 32 29 27 23 23 20 21 23 24 24 21 19 19 18 17 15 18 24 21 19 23 21
27 22 16 20 25 42 35 48 50 36 30 31 33 36 38 40 41 39 38 35 33 33 29 25 25 25 25 23 23 21 20 15 13 9 21 18 13 20 23 24 22 23 19
25 30 17 10 11 25 40 39 33 34 32 27 29 33 34 37 37 39 34 32 28 28 29 29 30 28 26 25 21 21 17 15 11 18 2 7 9 19 22 21 23 21 20
22 18 15 11 15 15 14 16 53 31 32 29 30 30 30 33 38 39 35 31 31 29 25 26 30 30 31 35 27 26 22 26 23 19 18 20 21 25 26 25 27 23 24
26 24 22 18 20 23 14 12 30 45 31 24 31 41 39 34 33 40 42 38 39 34 30 30 30 30 36 41 30 26 18 23 24 23 21 20 18 22 25 26 25 27 32
26 25 27 27 26 25 20 14 21 17 18 17 13 46 34 36 38 44 58 57 47 54 30 29 27 36 26 22 20 20 22 22 23 23 22 20 21 19 22 26 29 32 35
21 21 22 24 27 30 23 17 23 25 24 29 29 17 36 50 40 32 19 42 14 10 24 26 23 21 22 19 19 19 21 23 24 24 22 20 21 20 24 29 32 33 35
25 25 28 27 27 27 27 27 28 27 27 23 22 22 26 29 26 19 22 20 19 17 23 27 27 26 26 22 21 23 24 25 26 25 23 22 21 24 27 29 31 33 36
25 29 33 29 28 25 23 22 24 23 23 22 20 18 18 19 18 19 20 20 21 23 25 27 26 25 24 23 25 26 25 26 23 22 21 22 25 26 30 33 33 36 37
17 15 34 35 29 25 27 24 27 26 26 25 22 21 21 21 21 21 20 22 23 23 23 24 25 25 25 25 27 27 27 26 23 23 20 24 27 30 31 33 35 38 36
12 19 25 28 31 34 39 27 26 30 30 29 27 24 23 22 23 24 26 27 26 25 26 25 26 27 28 29 29 29 28 27 21 26 28 28 29 30 30 32 32 29 30
9 9 13 15 18 21 29 33 36 37 27 28 26 24 21 21 22 22 24 25 26 27 28 29 29 29 30 31 30 30 26 24 23 25 27 28 28 27 26 25 27 29 31
10 10 9 9 12 15 15 27 34 30 32 32 30 26 25 23 23 23 24 26 29 30 31 31 31 30 30 28 26 25 23 22 24 26 26 26 25 25 27 27 28 28 29
10 10 10 10 10 10 12 10 18 28 29 28 26 25 24 22 21 21 22 23 23 25 26 27 27 26 25 24 24 24 25 25 25 25 26 26 26 26 27 27 28 28 29
9 9 8 9 9 12 12 12 16 20 22 22 24 25 25 25 25 25 24 24 24 24 25 25 25 23 22 23 25 26 26 27 26 26 26 26 27 28 27 27 29 31 32
10 9 10 10 9 8 9 10 12 16 18 20 22 25 26 27 27 27 26 25 25 25 24 23 23 23 25 26 27 28 29 28 27 26 25 26 26 27 28 29 31 32 32
16 14 13 12 12 11 11 11 11 12 13 15 16 17 19 20 21 20 19 20 21 22 22 23 24 26 28 29 29 28 28 27 27 25 26 25 26 28 29 30 31 30 30
22 22 22 21 19 18 17 17 16 16 17 17 19 21 23 24 25 26 26 26 24 23 24 26 28 30 31 30 31 28 27 26 25 25 26 28 28 29 30 30 30 29 28
23 27 26 26 27 27 28 28 27 28 26 27 28 29 29 30 31 31 30 30 29 30 31 31 30 30 31 30 28 26 26 25 26 27 27 28 27 28 27 28 28 28 27
20 24 24 28 29 29 31 33 34 35 35 36 37 37 37 34 34 33 32 32 32 32 33 33 34 34 33 28 28 27 27 28 28 26 26 27 27 26 25 26 26 26 26
10 10 12 23 22 24 24 26 29 31 32 33 33 33 32 31 30 30 32 32 32 32 33 33 34 33 29 30 28 28 27 28 27 26 26 27 27 24 24 24 25 25 26
12 11 12 13 12 19 19 20 21 23 24 26 27 28 29 28 28 29 27 27 28 28 28 30 30 30 28 28 28 28 28 28 26 27 28 27 26 25 23 24 25 24 24
14 12 12 14 15 17 19 21 21 20 21 22 25 25 26 27 27 26 24 25 25 25 27 27 26 26 27 29 28 30 30 27 28 28 28 28 26 25 24 23 23 21 20
17 14 15 16 16 18 17 17 18 18 17 18 20 22 22 24 23 23 23 23 23 24 25 25 28 30 29 28 30 31 29 30 27 29 29 28 26 25 23 21 19 18 17
20 17 16 17 19 17 15 15 16 16 14 14 15 16 15 17 19 20 20 21 23 25 26 29 32 32 31 33 32 29 30 28 27 29 27 24 22 21 21 19 18 18 18

GFSMW_700_spd_114.txt.gz
Wind_Speed
22 21 18 14 7 20 40 50 34 41 42 40 40 44 44 43 42 43 42 41 38 34 30 27 24 21 18 17 15 15 15 16 17 16 16 15 14 15 13 19 17 20 15
21 17 16 12 9 23 19 31 39 37 40 43 37 41 41 43 44 46 45 42 39 34 31 28 26 23 20 19 18 16 18 18 17 15 11 10 14 16 18 17 21 20 15
20 21 14 15 12 24 24 27 32 38 48 35 37 38 38 40 44 44 43 41 37 34 32 29 26 24 22 20 22 19 20 21 10 7 7 8 5 12 15 12 15 19 20
22 17 16 14 11 15 24 39 33 36 37 32 34 35 37 39 39 40 40 39 38 36 34 31 28 23 22 19 20 21 19 19 12 13 4 17 8 14 18 19 20 20 18
21 16 16 14 12 14 33 21 29 37 33 38 33 34 33 33 35 37 38 39 37 36 34 33 27 26 25 24 24 21 23 22 21 15 8 16 22 22 24 23 25 23 21
21 17 8 7 14 9 3 17 27 22 37 36 34 38 34 34 30 29 33 35 38 38 37 36 33 32 31 27 27 27 29 32 35 30 9 19 23 22 22 23 24 26 25
18 19 14 7 10 7 5 6 8 19 38 40 30 31 39 35 38 28 23 23 22 31 41 43 43 40 31 33 27 36 39 34 21 22 20 21 21 25 24 25 24 25 28
17 20 20 18 16 11 12 13 6 6 12 48 30 25 41 26 28 34 39 31 29 36 44 47 44 51 47 29 14 14 14 14 19 21 20 22 24 23 23 25 27 28 29
12 14 16 18 20 20 16 17 16 14 8 13 12 19 18 41 45 39 39 35 30 26 40 44 49 48 24 23 24 20 19 21 22 21 21 23 22 24 26 26 28 30 34
7 13 15 13 13 13 18 24 24 19 15 18 22 17 18 18 28 39 59 31 34 30 16 19 14 14 17 25 26 19 20 23 21 22 23 24 24 24 25 29 31 32 35
8 12 17 17 16 13 13 14 16 17 20 20 19 16 17 15 13 15 11 32 22 15 17 20 20 21 21 22 23 21 24 23 23 23 23 22 23 23 27 29 31 34 34
1 6 8 12 18 16 16 15 13 14 17 17 16 15 14 13 14 15 16 17 16 17 20 21 20 22 24 24 24 25 25 25 23 25 25 20 22 28 29 31 31 30 27
4 3 2 7 16 22 20 20 24 20 23 19 20 19 17 18 17 16 18 19 19 21 25 24 24 24 25 25 26 26 26 26 26 24 21 25 25 29 30 29 27 25 26
2 2 5 4 8 11 14 18 22 23 23 19 24 23 20 17 16 15 16 19 21 22 24 25 26 26 27 27 27 27 27 26 23 22 22 24 26 27 26 26 26 27 27
0 1 2 3 2 4 7 8 10 22 26 28 30 28 26 23 17 17 17 16 18 20 22 25 26 25 25 26 27 27 27 23 23 22 23 25 25 26 26 26 27 27 27
3 1 0 1 2 4 4 4 5 6 13 20 23 22 13 9 17 19 18 17 18 19 20 21 22 22 22 23 24 23 22 22 22 23 25 26 26 26 26 26 26 27 28
4 3 2 2 2 2 2 3 3 5 9 13 13 12 15 20 21 20 21 22 23 25 24 23 23 22 23 22 21 22 24 24 25 27 27 27 26 25 26 27 28 29 30
11 9 8 6 5 5 5 4 5 4 5 7 10 13 16 19 21 23 24 24 22 23 22 22 22 22 22 22 23 25 25 26 29 28 28 27 26 26 26 27 29 30 31
17 18 17 16 15 13 11 10 10 10 11 12 14 15 16 18 19 20 21 22 22 21 21 20 21 21 22 24 26 27 29 28 30 28 27 27 26 25 27 27 28 29 30
16 18 25 25 23 24 22 21 20 19 20 20 21 21 21 22 22 23 24 25 25 26 27 27 27 26 26 28 29 31 31 31 29 28 28 27 26 26 27 28 28 29 28
8 12 18 22 25 29 31 30 31 33 33 34 33 32 30 31 30 31 30 29 30 30 30 30 31 31 32 32 32 32 32 31 28 28 28 27 26 26 27 28 28 28 28
8 7 8 12 18 24 25 29 31 33 35 36 39 40 40 39 38 35 32 31 31 31 31 31 32 33 32 33 33 34 34 29 31 29 27 26 27 27 28 27 27 27 27
13 11 10 10 10 11 14 26 22 24 22 23 25 28 31 31 30 30 30 30 30 30 30 30 32 32 32 31 31 30 28 30 30 29 27 27 29 29 28 28 27 26 25
15 14 12 10 11 12 14 15 16 19 24 22 21 22 24 27 28 28 28 29 28 28 28 28 28 28 28 26 25 26 28 30 30 28 28 29 31 30 29 28 26 24 23
20 18 15 14 14 15 15 16 16 16 17 17 19 22 23 24 25 25 27 28 27 28 28 28 28 27 27 25 27 29 32 31 30 30 30 31 31 31 29 26 24 22 20
21 20 19 17 18 19 19 18 14 14 16 16 17 17 19 20 20 20 24 26 25 28 28 27 27 26 27 29 31 33 33 32 31 30 29 29 29 28 23 19 18 18 17

GFSMW_700_spd_117.txt.gz
Wind_Speed
18 28 20 25 23 19 27 33 34 43 42 52 47 52 50 51 45 42 41 40 40 38 37 34 29 26 22 18 15 13 11 13 12 11 11 9 9 11 14 13 14 15 18
21 24 25 22 20 25 31 41 40 36 38 47 44 46 50 47 43 44 44 43 43 41 38 34 30 26 22 19 17 15 14 13 13 14 9 7 9 14 13 12 15 12 13
21 20 12 14 16 18 22 27 40 34 36 50 43 39 42 47 46 47 45 46 44 41 38 35 31 27 23 20 19 17 16 12 12 11 10 8 11 13 11 14 14 13 15
17 21 16 15 18 24 29 22 36 42 32 48 36 37 41 42 47 46 45 47 45 41 38 35 31 29 26 23 20 20 18 15 15 12 14 13 16 10 14 15 17 18 21
23 12 19 17 16 16 28 31 30 46 40 43 46 35 37 34 36 40 44 44 41 39 37 34 31 30 29 25 26 24 19 17 18 15 15 17 24 21 21 22 23 25 25
20 23 19 6 5 12 19 27 24 35 29 35 42 41 34 35 34 36 38 39 39 37 34 32 30 30 30 30 34 32 30 31 23 23 25 21 16 14 25 24 25 26 26
20 22 14 6 3 4 8 3 18 22 34 21 45 40 35 35 35 34 34 34 33 32 30 30 31 29 29 31 36 37 40 41 39 32 30 34 15 23 22 23 28 30 30
17 17 14 7 10 5 11 6 12 9 28 22 36 46 42 38 38 35 33 32 29 25 23 22 25 25 28 31 34 39 44 47 54 16 16 19 22 25 26 24 29 29 30
11 8 13 14 12 1 8 9 8 10 12 27 36 44 40 44 40 41 37 32 30 27 23 25 30 36 38 44 44 43 43 29 24 19 19 19 23 25 27 25 25 29 29
3 5 6 4 9 9 10 8 8 11 4 4 30 19 30 36 45 40 45 43 36 29 25 29 27 34 39 43 44 41 36 34 24 16 19 23 25 25 24 24 24 25 29
4 5 4 4 5 3 2 10 15 11 11 16 19 27 15 17 22 29 53 42 43 57 45 37 38 32 27 27 20 21 31 18 17 21 23 24 22 22 24 25 24 27 31
9 7 3 7 8 6 7 6 6 5 7 10 16 20 15 17 16 13 18 18 26 46 41 37 30 26 20 21 22 21 20 19 20 22 22 22 21 23 23 23 27 30 32
9 8 2 2 7 11 12 10 10 8 7 8 13 16 17 19 17 16 15 15 15 19 30 19 19 20 21 22 20 21 22 22 22 22 22 22 22 23 22 25 28 31 29
9 9 8 5 4 8 10 10 12 12 13 19 13 14 14 11 10 13 15 15 17 20 22 24 24 24 25 23 24 24 23 22 24 25 24 23 19 23 24 26 27 27 27
6 7 7 6 5 3 3 5 7 12 16 17 19 16 20 18 18 15 13 15 15 18 19 21 23 24 25 25 25 24 24 25 28 26 23 21 21 22 24 25 25 25 26
5 7 6 5 4 2 1 1 2 3 10 19 21 21 19 22 27 24 21 8 11 14 15 17 19 21 23 23 24 24 26 27 27 22 25 20 22 24 25 25 25 25 25
3 2 2 3 4 2 1 1 2 2 3 7 12 16 13 7 5 8 13 16 16 17 18 19 21 22 23 24 25 24 24 22 21 21 20 22 24 25 25 25 25 25 25
10 9 6 3 2 1 1 1 1 2 3 5 8 10 10 12 12 14 17 18 19 21 23 23 23 24 24 23 22 21 21 22 21 21 22 25 26 26 26 25 24 24 26
14 14 15 15 14 12 11 8 7 7 7 8 8 9 10 11 13 14 17 18 19 20 20 19 19 20 21 21 21 20 21 21 22 26 30 27 27 26 25 24 24 25 26
12 16 17 19 22 22 20 20 19 19 18 17 16 15 15 15 16 17 17 18 19 20 21 22 23 23 22 21 21 23 24 26 27 28 32 28 27 27 26 25 24 24 26
9 11 15 18 20 23 26 28 28 29 29 29 29 28 28 27 27 26 25 25 25 26 25 26 27 27 26 26 27 28 29 30 30 30 30 28 27 27 27 26 26 26 25
11 11 12 13 13 15 18 25 28 30 32 36 38 38 36 36 36 36 35 34 33 32 31 30 31 30 29 29 29 30 32 33 32 31 31 30 29 28 28 27 27 26 26
16 15 14 13 13 12 12 13 15 21 25 26 30 31 30 32 31 32 32 33 34 33 32 31 31 30 29 29 31 32 33 33 31 32 30 31 29 28 28 27 28 26 26
20 20 17 15 14 13 13 14 15 16 17 18 21 27 26 25 24 26 28 30 31 31 31 31 30 30 30 29 30 31 32 33 32 29 31 31 29 28 28 28 28 27 28
22 22 21 17 16 15 16 16 18 19 20 20 20 21 23 25 26 26 26 28 29 30 30 30 30 30 30 28 29 29 28 29 31 34 32 29 29 28 29 28 28 28 28
21 22 22 21 20 19 17 18 19 20 21 21 19 20 21 22 23 23 24 26 27 28 28 28 28 28 27 27 28 28 30 31 33 32 31 31 29 30 29 27 27 26 23

GFSMW_700_spd_120.txt.gz
Wind_Speed
18 18 23 40 45 30 36 48 41 51 41 40 42 47 43 47 44 43 40 41 38 38 38 37 35 32 27 23 22 21 18 15 13 11 11 13 13 13 15 13 12 9 13
18 16 16 20 40 33 37 32 30 29 26 30 40 44 47 50 40 42 47 41 41 39 40 39 37 33 29 27 24 20 18 15 14 11 12 14 16 17 16 13 10 12 11
19 18 17 22 27 31 17 17 22 30 32 30 35 50 48 38 44 48 42 41 41 40 42 41 38 33 30 26 24 21 19 17 14 10 13 15 19 19 16 13 13 14 15
21 19 14 16 18 20 19 22 32 36 33 30 39 34 55 57 47 42 41 40 43 43 43 42 38 34 31 28 26 24 21 19 17 18 16 16 18 19 17 15 15 18 19
20 18 12 14 15 16 16 17 22 24 38 36 40 36 54 52 49 40 39 42 43 44 44 42 39 35 33 31 27 24 23 20 21 26 20 26 24 21 20 22 22 22 23
22 13 8 18 10 6 9 20 22 22 39 50 49 42 46 52 51 44 47 42 44 45 44 41 38 35 33 31 28 27 25 24 27 29 25 34 31 17 25 26 26 26 28
12 12 14 12 6 4 11 19 22 31 33 34 42 46 40 30 43 38 39 44 45 46 44 40 37 36 33 31 31 27 26 22 25 26 30 36 42 41 31 29 33 30 30
20 22 19 16 6 4 9 6 21 6 36 41 35 36 42 35 38 40 39 40 40 40 39 36 34 34 34 31 27 25 27 25 30 33 40 42 49 39 37 31 32 31 30
16 12 15 11 3 7 7 6 11 12 13 29 31 34 41 46 45 45 45 43 40 38 39 36 34 29 30 29 27 28 32 34 35 38 42 41 28 29 28 27 27 31 30
14 15 13 5 4 5 6 2 3 1 9 9 19 33 35 37 35 40 33 39 37 39 40 39 37 36 35 31 38 35 40 44 41 41 40 28 33 21 22 27 28 31 27
19 5 9 11 8 6 3 5 6 6 5 10 15 27 36 34 36 33 34 41 44 45 46 43 31 26 27 34 43 38 35 43 46 48 41 36 25 21 26 26 27 27 26
14 12 7 7 6 5 4 4 2 2 5 2 4 22 27 37 34 42 44 44 41 41 51 48 43 30 31 30 34 36 43 41 36 36 37 27 19 24 26 25 26 27 26
15 14 11 11 4 4 4 1 5 5 2 4 3 9 13 24 17 19 27 35 37 53 47 46 51 51 39 36 41 38 28 23 19 18 17 15 22 24 24 25 23 26 27
13 14 14 11 7 4 4 1 4 5 7 6 8 5 11 20 18 20 21 22 21 20 29 42 38 34 37 30 26 25 23 23 22 22 23 23 25 24 25 25 23 25 28
8 10 10 11 9 4 1 3 4 7 10 11 11 12 9 1 6 12 16 18 15 16 15 15 19 25 25 22 23 25 25 25 24 25 27 27 26 26 25 24 25 25 26
5 7 7 7 6 5 4 2 0 3 5 11 14 13 9 11 13 14 14 17 12 12 11 15 17 17 20 24 27 28 27 28 27 27 29 25 27 25 24 23 24 26 26
1 1 2 3 4 4 4 3 1 0 1 3 10 16 18 16 10 5 26 24 24 23 17 16 17 18 20 21 23 23 25 26 27 27 28 30 27 27 21 23 26 25 25
8 7 5 4 3 2 2 1 2 1 1 3 5 7 11 14 14 9 5 8 8 12 16 18 21 22 23 25 25 25 25 25 25 26 22 30 24 18 23 27 26 25 25
11 12 11 12 12 12 11 9 8 7 6 5 6 7 9 11 13 16 16 17 18 19 20 23 25 23 22 22 23 24 25 25 24 23 26 18 19 27 29 27 26 25 24
10 11 14 16 16 17 19 19 18 18 17 16 15 15 15 15 15 15 16 17 19 23 25 24 24 24 23 22 21 21 22 22 23 24 24 25 30 32 27 27 26 25 24
10 11 12 15 17 19 20 21 23 25 27 26 27 27 27 26 25 24 23 23 23 24 24 24 25 25 26 26 25 25 24 24 26 27 28 31 33 29 25 25 26 25 25
16 14 13 13 14 15 16 17 20 23 25 28 30 33 35 37 37 36 35 34 34 34 33 32 31 31 30 29 29 29 29 30 30 31 32 33 33 31 30 28 27 26 26
22 20 18 15 13 13 15 15 16 17 18 21 23 27 28 27 29 32 33 34 35 35 35 36 36 35 34 33 32 31 32 33 33 33 34 34 33 31 30 30 27 26 26
24 24 24 21 18 17 16 15 16 18 19 20 21 22 23 24 25 29 28 29 31 33 34 35 34 33 34 34 33 33 34 34 34 34 33 30 32 34 30 31 28 27 27
21 24 25 24 24 23 21 20 19 20 21 22 22 22 23 23 24 25 28 30 33 32 31 34 35 35 35 32 33 33 34 33 33 33 35 36 31 30 31 31 30 28 28
13 19 23 25 26 27 27 25 24 24 24 24 25 25 27 27 27 25 25 26 27 29 30 31 32 32 33 33 33 34 34 33 31 34 33 31 30 32 33 33 32 29 27

GFSMW_700_spd_126.txt.gz
Wind_Speed
29 36 43 41 47 42 44 41 58 64 58 56 52 44 57 55 55 51 46 43 43 43 41 40 38 35 33 32 29 28 27 26 25 24 22 20 19 17 17 16 15 17 17
27 30 34 35 40 33 38 38 46 55 53 60 49 55 48 59 56 46 44 46 45 43 45 44 43 39 37 35 33 31 28 28 26 24 22 22 21 18 17 16 18 19 18
30 23 23 22 27 33 32 33 40 33 46 40 44 55 48 55 48 54 49 50 45 40 48 45 42 40 38 37 34 32 30 28 26 24 26 23 21 19 18 17 19 19 18
11 19 23 23 29 32 32 29 29 35 45 35 34 61 61 54 53 54 55 45 48 44 43 47 45 45 42 40 35 33 31 29 27 27 25 24 22 20 18 18 13 13 19
7 15 24 26 29 29 30 27 29 35 51 33 37 27 48 56 55 52 56 54 49 45 45 51 47 44 43 41 38 36 33 29 28 27 26 25 23 22 20 13 12 15 19
4 27 26 27 24 24 20 23 18 30 39 42 33 36 26 51 49 46 50 48 48 47 50 50 49 46 47 44 40 37 35 31 30 29 28 27 25 23 21 18 19 21 30
30 23 24 19 24 21 19 20 25 31 25 38 32 42 28 27 36 41 45 47 51 52 45 48 49 44 45 43 41 39 36 34 32 32 30 29 28 27 26 23 25 32 38
25 23 22 25 28 19 15 11 15 19 20 23 30 28 29 25 27 30 36 32 43 27 42 42 47 48 44 44 42 41 37 37 36 35 34 33 33 31 31 25 28 30 32
28 21 23 18 21 22 18 12 10 23 36 34 24 26 29 29 30 24 24 27 34 33 41 40 43 50 48 42 43 41 42 40 38 36 37 38 35 41 32 34 37 42 43
20 21 22 19 17 19 16 12 9 9 16 7 25 24 22 25 24 28 25 27 27 30 31 37 32 43 39 41 44 44 42 42 40 41 41 42 40 36 41 34 36 39 42
16 18 22 23 22 19 14 13 9 12 11 7 13 13 18 22 24 30 26 26 25 25 30 33 40 39 37 40 43 45 45 47 44 41 44 37 32 31 39 40 38 39 51
22 18 18 17 16 15 16 16 15 14 15 15 9 8 12 27 36 32 22 26 31 36 36 33 41 44 38 43 46 50 44 41 42 44 49 48 44 46 41 41 38 41 38
19 18 13 12 10 12 14 14 16 15 15 14 11 8 13 10 9 18 20 28 30 26 37 37 38 39 41 46 45 47 48 47 47 50 36 44 46 43 40 40 35 39 35
18 18 16 15 13 10 11 10 10 11 12 12 13 11 10 3 9 11 9 15 12 24 21 34 37 43 39 48 54 57 57 52 45 48 34 39 42 43 42 34 24 29 33
10 12 15 16 16 14 13 14 14 12 10 10 10 11 9 9 3 4 16 15 23 20 27 23 27 34 47 48 43 44 45 44 42 39 42 41 42 36 31 29 23 25 23
5 7 10 11 12 12 12 13 12 12 12 9 6 6 6 5 5 5 2 6 14 16 16 15 20 29 34 43 46 49 52 44 48 52 50 43 41 37 26 29 34 30 28
2 1 2 5 7 8 9 10 10 10 9 8 7 6 4 2 3 2 3 4 5 9 13 14 17 23 29 29 25 24 32 46 38 41 26 25 24 25 27 30 36 23 30
6 6 5 4 4 5 5 7 8 9 9 9 7 6 5 5 4 5 6 7 7 7 11 18 18 20 20 15 12 14 15 18 19 20 24 24 24 23 26 27 34 33 28
3 6 9 9 9 9 9 9 9 9 8 8 8 9 9 8 9 9 9 9 12 13 16 14 13 17 18 25 21 21 20 17 22 25 26 25 26 31 28 27 31 31 29
7 6 7 8 10 12 13 13 14 14 15 15 14 14 15 15 15 16 17 17 17 17 17 17 18 20 22 24 26 26 29 27 24 22 23 24 25 31 33 32 30 35 31
13 13 11 10 9 9 10 11 11 12 14 16 17 19 19 20 22 24 24 24 24 24 25 26 26 26 27 26 26 28 28 27 28 28 27 28 30 30 31 34 30 27 19
10 12 15 14 13 12 11 11 10 10 11 13 14 15 17 20 21 22 25 26 29 29 32 34 36 37 37 36 36 36 34 33 33 34 33 34 35 36 29 33 33 24 24
14 12 13 17 17 17 15 15 13 13 13 14 15 16 17 18 20 21 23 25 27 29 31 33 34 35 38 41 44 44 42 41 38 39 39 40 39 37 36 35 36 36 34
17 14 13 15 16 19 21 20 19 20 20 20 21 21 22 23 24 26 27 28 29 30 32 33 35 35 36 38 38 41 43 43 41 39 39 42 42 38 38 38 41 36 29
15 16 15 15 14 16 19 20 22 22 23 23 26 28 29 29 29 31 31 31 34 34 35 36 37 38 37 38 39 40 40 40 40 39 40 41 42 42 42 43 43 43 40
12 13 13 15 15 15 16 17 20 23 24 25 28 30 32 33 35 35 34 37 37 38 39 40 41 40 40 38 38 37 37 39 39 39 41 42 43 43 42 42 42 42 39